<?xml version="1.0" encoding="UTF-8" standalone="no" ?>
<gpx xmlns="http://www.topografix.com/GPX/1/1" xmlns:xsi="http://www.w3.org/2001/XMLSchema-instance" xsi:schemaLocation="http://www.topografix.com/GPX/1/1 http://www.topografix.com/GPX/1/1/gpx.xsd" version="1.1" creator="VisuGPX - https://www.visugpx.com">
  <metadata>
    <name>St Victor-Caloire-Le Pertuiset</name>
    <desc><![CDATA[En passant par le viaduc habituellement noyé dans le barrage]]></desc>
  </metadata>
  <trk>
    <name><![CDATA[St Victor sur Loir-Caloire-Le Pertuiset]]></name>
    <trkseg>
      <trkpt lat="45.44817" lon="4.25501">
        <ele>424</ele>
        <time>2012-02-24T08:08:17.000Z</time>
      </trkpt>
      <trkpt lat="45.44807" lon="4.25496">
        <ele>425</ele>
        <time>2012-02-24T08:08:22.000Z</time>
      </trkpt>
      <trkpt lat="45.44797" lon="4.25495">
        <ele>426.20001220703</ele>
        <time>2012-02-24T08:08:26.000Z</time>
      </trkpt>
      <trkpt lat="45.44794" lon="4.25481">
        <ele>426</ele>
        <time>2012-02-24T08:08:31.000Z</time>
      </trkpt>
      <trkpt lat="45.44786" lon="4.2547">
        <ele>426.39999389648</ele>
        <time>2012-02-24T08:08:36.000Z</time>
      </trkpt>
      <trkpt lat="45.44777" lon="4.25458">
        <ele>426.79998779297</ele>
        <time>2012-02-24T08:08:42.000Z</time>
      </trkpt>
      <trkpt lat="45.44767" lon="4.25448">
        <ele>427</ele>
        <time>2012-02-24T08:08:48.000Z</time>
      </trkpt>
      <trkpt lat="45.44758" lon="4.25439">
        <ele>427</ele>
        <time>2012-02-24T08:08:54.000Z</time>
      </trkpt>
      <trkpt lat="45.44749" lon="4.2543">
        <ele>427</ele>
        <time>2012-02-24T08:09:00.000Z</time>
      </trkpt>
      <trkpt lat="45.44741" lon="4.25422">
        <ele>427.39999389648</ele>
        <time>2012-02-24T08:09:05.000Z</time>
      </trkpt>
      <trkpt lat="45.44731" lon="4.25413">
        <ele>428</ele>
        <time>2012-02-24T08:09:11.000Z</time>
      </trkpt>
      <trkpt lat="45.44723" lon="4.25407">
        <ele>428.20001220703</ele>
        <time>2012-02-24T08:09:16.000Z</time>
      </trkpt>
      <trkpt lat="45.44712" lon="4.25396">
        <ele>428</ele>
        <time>2012-02-24T08:09:23.000Z</time>
      </trkpt>
      <trkpt lat="45.44703" lon="4.25387">
        <ele>427.79998779297</ele>
        <time>2012-02-24T08:09:29.000Z</time>
      </trkpt>
      <trkpt lat="45.44694" lon="4.25376">
        <ele>427</ele>
        <time>2012-02-24T08:09:35.000Z</time>
      </trkpt>
      <trkpt lat="45.44687" lon="4.25366">
        <ele>426</ele>
        <time>2012-02-24T08:09:40.000Z</time>
      </trkpt>
      <trkpt lat="45.44675" lon="4.25353">
        <ele>424.79998779297</ele>
        <time>2012-02-24T08:09:48.000Z</time>
      </trkpt>
      <trkpt lat="45.44664" lon="4.25338">
        <ele>423.20001220703</ele>
        <time>2012-02-24T08:09:56.000Z</time>
      </trkpt>
      <trkpt lat="45.44654" lon="4.25325">
        <ele>423.60000610352</ele>
        <time>2012-02-24T08:10:03.000Z</time>
      </trkpt>
      <trkpt lat="45.44642" lon="4.25315">
        <ele>424.60000610352</ele>
        <time>2012-02-24T08:10:10.000Z</time>
      </trkpt>
      <trkpt lat="45.44631" lon="4.25304">
        <ele>425.20001220703</ele>
        <time>2012-02-24T08:10:17.000Z</time>
      </trkpt>
      <trkpt lat="45.4462" lon="4.25293">
        <ele>426</ele>
        <time>2012-02-24T08:10:24.000Z</time>
      </trkpt>
      <trkpt lat="45.4461" lon="4.25285">
        <ele>426.79998779297</ele>
        <time>2012-02-24T08:10:30.000Z</time>
      </trkpt>
      <trkpt lat="45.44601" lon="4.25275">
        <ele>427.20001220703</ele>
        <time>2012-02-24T08:10:36.000Z</time>
      </trkpt>
      <trkpt lat="45.44593" lon="4.25267">
        <ele>427.39999389648</ele>
        <time>2012-02-24T08:10:41.000Z</time>
      </trkpt>
      <trkpt lat="45.44583" lon="4.25261">
        <ele>428.39999389648</ele>
        <time>2012-02-24T08:10:47.000Z</time>
      </trkpt>
      <trkpt lat="45.44573" lon="4.25256">
        <ele>428</ele>
        <time>2012-02-24T08:10:53.000Z</time>
      </trkpt>
      <trkpt lat="45.44563" lon="4.25252">
        <ele>427.60000610352</ele>
        <time>2012-02-24T08:10:58.000Z</time>
      </trkpt>
      <trkpt lat="45.44553" lon="4.25245">
        <ele>427.20001220703</ele>
        <time>2012-02-24T08:11:04.000Z</time>
      </trkpt>
      <trkpt lat="45.44542" lon="4.25238">
        <ele>427</ele>
        <time>2012-02-24T08:11:10.000Z</time>
      </trkpt>
      <trkpt lat="45.44532" lon="4.25234">
        <ele>427.20001220703</ele>
        <time>2012-02-24T08:11:15.000Z</time>
      </trkpt>
      <trkpt lat="45.44524" lon="4.25232">
        <ele>427.39999389648</ele>
        <time>2012-02-24T08:11:20.000Z</time>
      </trkpt>
      <trkpt lat="45.44513" lon="4.25231">
        <ele>428</ele>
        <time>2012-02-24T08:11:26.000Z</time>
      </trkpt>
      <trkpt lat="45.445" lon="4.25231">
        <ele>428.60000610352</ele>
        <time>2012-02-24T08:11:33.000Z</time>
      </trkpt>
      <trkpt lat="45.44491" lon="4.2523">
        <ele>428.39999389648</ele>
        <time>2012-02-24T08:11:38.000Z</time>
      </trkpt>
      <trkpt lat="45.44477" lon="4.2523">
        <ele>428.20001220703</ele>
        <time>2012-02-24T08:11:45.000Z</time>
      </trkpt>
      <trkpt lat="45.44467" lon="4.25235">
        <ele>428.20001220703</ele>
        <time>2012-02-24T08:11:50.000Z</time>
      </trkpt>
      <trkpt lat="45.44463" lon="4.25235">
        <ele>428</ele>
        <time>2012-02-24T08:11:52.000Z</time>
      </trkpt>
      <trkpt lat="45.44457" lon="4.25234">
        <ele>428</ele>
        <time>2012-02-24T08:11:57.000Z</time>
      </trkpt>
      <trkpt lat="45.44459" lon="4.2523">
        <ele>428</ele>
        <time>2012-02-24T08:12:01.000Z</time>
      </trkpt>
      <trkpt lat="45.4446" lon="4.25221">
        <ele>428</ele>
        <time>2012-02-24T08:12:05.000Z</time>
      </trkpt>
      <trkpt lat="45.44457" lon="4.25217">
        <ele>428</ele>
        <time>2012-02-24T08:12:07.000Z</time>
      </trkpt>
      <trkpt lat="45.44454" lon="4.25215">
        <ele>428</ele>
        <time>2012-02-24T08:12:09.000Z</time>
      </trkpt>
      <trkpt lat="45.44446" lon="4.2521">
        <ele>428</ele>
        <time>2012-02-24T08:12:13.000Z</time>
      </trkpt>
      <trkpt lat="45.44442" lon="4.25207">
        <ele>428</ele>
        <time>2012-02-24T08:12:15.000Z</time>
      </trkpt>
      <trkpt lat="45.44429" lon="4.25205">
        <ele>428</ele>
        <time>2012-02-24T08:12:22.000Z</time>
      </trkpt>
      <trkpt lat="45.44418" lon="4.25207">
        <ele>428</ele>
        <time>2012-02-24T08:12:28.000Z</time>
      </trkpt>
      <trkpt lat="45.44416" lon="4.25207">
        <ele>428</ele>
        <time>2012-02-24T08:12:29.000Z</time>
      </trkpt>
      <trkpt lat="45.44407" lon="4.25204">
        <ele>428</ele>
        <time>2012-02-24T08:12:34.000Z</time>
      </trkpt>
      <trkpt lat="45.44395" lon="4.25205">
        <ele>427.79998779297</ele>
        <time>2012-02-24T08:12:40.000Z</time>
      </trkpt>
      <trkpt lat="45.44379" lon="4.25205">
        <ele>427.79998779297</ele>
        <time>2012-02-24T08:12:47.000Z</time>
      </trkpt>
      <trkpt lat="45.44368" lon="4.25203">
        <ele>427.60000610352</ele>
        <time>2012-02-24T08:12:52.000Z</time>
      </trkpt>
      <trkpt lat="45.44356" lon="4.25202">
        <ele>427.39999389648</ele>
        <time>2012-02-24T08:12:58.000Z</time>
      </trkpt>
      <trkpt lat="45.44346" lon="4.25203">
        <ele>427.39999389648</ele>
        <time>2012-02-24T08:13:03.000Z</time>
      </trkpt>
      <trkpt lat="45.44332" lon="4.25204">
        <ele>427.20001220703</ele>
        <time>2012-02-24T08:13:10.000Z</time>
      </trkpt>
      <trkpt lat="45.44331" lon="4.25204">
        <ele>427.39999389648</ele>
        <time>2012-02-24T08:13:11.000Z</time>
      </trkpt>
      <trkpt lat="45.44322" lon="4.25204">
        <ele>427.60000610352</ele>
        <time>2012-02-24T08:13:16.000Z</time>
      </trkpt>
      <trkpt lat="45.44308" lon="4.25204">
        <ele>428</ele>
        <time>2012-02-24T08:13:23.000Z</time>
      </trkpt>
      <trkpt lat="45.44294" lon="4.25205">
        <ele>428.39999389648</ele>
        <time>2012-02-24T08:13:30.000Z</time>
      </trkpt>
      <trkpt lat="45.44282" lon="4.25205">
        <ele>428.79998779297</ele>
        <time>2012-02-24T08:13:36.000Z</time>
      </trkpt>
      <trkpt lat="45.44273" lon="4.25203">
        <ele>429</ele>
        <time>2012-02-24T08:13:41.000Z</time>
      </trkpt>
      <trkpt lat="45.44261" lon="4.25203">
        <ele>429.39999389648</ele>
        <time>2012-02-24T08:13:47.000Z</time>
      </trkpt>
      <trkpt lat="45.44258" lon="4.25204">
        <ele>429.60000610352</ele>
        <time>2012-02-24T08:13:52.000Z</time>
      </trkpt>
      <trkpt lat="45.44258" lon="4.25204">
        <ele>429.60000610352</ele>
        <time>2012-02-24T08:13:53.000Z</time>
      </trkpt>
      <trkpt lat="45.4425" lon="4.25205">
        <ele>429.79998779297</ele>
        <time>2012-02-24T08:14:09.000Z</time>
      </trkpt>
      <trkpt lat="45.4424" lon="4.25205">
        <ele>429.20001220703</ele>
        <time>2012-02-24T08:14:13.000Z</time>
      </trkpt>
      <trkpt lat="45.44227" lon="4.25204">
        <ele>428.20001220703</ele>
        <time>2012-02-24T08:14:19.000Z</time>
      </trkpt>
      <trkpt lat="45.4421" lon="4.25201">
        <ele>427</ele>
        <time>2012-02-24T08:14:27.000Z</time>
      </trkpt>
      <trkpt lat="45.44198" lon="4.25198">
        <ele>426.20001220703</ele>
        <time>2012-02-24T08:14:33.000Z</time>
      </trkpt>
      <trkpt lat="45.4419" lon="4.25194">
        <ele>425.39999389648</ele>
        <time>2012-02-24T08:14:38.000Z</time>
      </trkpt>
      <trkpt lat="45.44189" lon="4.25193">
        <ele>425.39999389648</ele>
        <time>2012-02-24T08:14:39.000Z</time>
      </trkpt>
      <trkpt lat="45.44183" lon="4.25189">
        <ele>424.79998779297</ele>
        <time>2012-02-24T08:14:44.000Z</time>
      </trkpt>
      <trkpt lat="45.4418" lon="4.25188">
        <ele>424.60000610352</ele>
        <time>2012-02-24T08:14:46.000Z</time>
      </trkpt>
      <trkpt lat="45.44178" lon="4.25187">
        <ele>424.39999389648</ele>
        <time>2012-02-24T08:14:48.000Z</time>
      </trkpt>
      <trkpt lat="45.44173" lon="4.25187">
        <ele>424.20001220703</ele>
        <time>2012-02-24T08:14:53.000Z</time>
      </trkpt>
      <trkpt lat="45.44166" lon="4.25185">
        <ele>423.60000610352</ele>
        <time>2012-02-24T08:14:57.000Z</time>
      </trkpt>
      <trkpt lat="45.4416" lon="4.25185">
        <ele>423.79998779297</ele>
        <time>2012-02-24T08:15:02.000Z</time>
      </trkpt>
      <trkpt lat="45.44154" lon="4.25184">
        <ele>423.79998779297</ele>
        <time>2012-02-24T08:15:07.000Z</time>
      </trkpt>
      <trkpt lat="45.44149" lon="4.2518">
        <ele>423.79998779297</ele>
        <time>2012-02-24T08:15:11.000Z</time>
      </trkpt>
      <trkpt lat="45.44145" lon="4.25172">
        <ele>423.60000610352</ele>
        <time>2012-02-24T08:15:16.000Z</time>
      </trkpt>
      <trkpt lat="45.44144" lon="4.25168">
        <ele>423.60000610352</ele>
        <time>2012-02-24T08:15:20.000Z</time>
      </trkpt>
      <trkpt lat="45.44143" lon="4.25164">
        <ele>424</ele>
        <time>2012-02-24T08:15:23.000Z</time>
      </trkpt>
      <trkpt lat="45.44139" lon="4.25157">
        <ele>424.79998779297</ele>
        <time>2012-02-24T08:15:29.000Z</time>
      </trkpt>
      <trkpt lat="45.44139" lon="4.25157">
        <ele>424.79998779297</ele>
        <time>2012-02-24T08:15:30.000Z</time>
      </trkpt>
      <trkpt lat="45.44135" lon="4.25151">
        <ele>425.60000610352</ele>
        <time>2012-02-24T08:15:36.000Z</time>
      </trkpt>
      <trkpt lat="45.4413" lon="4.25146">
        <ele>426.39999389648</ele>
        <time>2012-02-24T08:15:40.000Z</time>
      </trkpt>
      <trkpt lat="45.44125" lon="4.25141">
        <ele>427</ele>
        <time>2012-02-24T08:15:44.000Z</time>
      </trkpt>
      <trkpt lat="45.44123" lon="4.25141">
        <ele>427.20001220703</ele>
        <time>2012-02-24T08:15:46.000Z</time>
      </trkpt>
      <trkpt lat="45.4411" lon="4.25139">
        <ele>427.39999389648</ele>
        <time>2012-02-24T08:15:52.000Z</time>
      </trkpt>
      <trkpt lat="45.44107" lon="4.25138">
        <ele>427.60000610352</ele>
        <time>2012-02-24T08:15:54.000Z</time>
      </trkpt>
      <trkpt lat="45.44103" lon="4.25135">
        <ele>427.79998779297</ele>
        <time>2012-02-24T08:15:56.000Z</time>
      </trkpt>
      <trkpt lat="45.441" lon="4.25129">
        <ele>428.60000610352</ele>
        <time>2012-02-24T08:16:00.000Z</time>
      </trkpt>
      <trkpt lat="45.44092" lon="4.25121">
        <ele>429.39999389648</ele>
        <time>2012-02-24T08:16:05.000Z</time>
      </trkpt>
      <trkpt lat="45.44088" lon="4.25116">
        <ele>429.79998779297</ele>
        <time>2012-02-24T08:16:08.000Z</time>
      </trkpt>
      <trkpt lat="45.44081" lon="4.25106">
        <ele>430.60000610352</ele>
        <time>2012-02-24T08:16:13.000Z</time>
      </trkpt>
      <trkpt lat="45.44079" lon="4.25102">
        <ele>430.79998779297</ele>
        <time>2012-02-24T08:16:15.000Z</time>
      </trkpt>
      <trkpt lat="45.4407" lon="4.25093">
        <ele>430.60000610352</ele>
        <time>2012-02-24T08:16:22.000Z</time>
      </trkpt>
      <trkpt lat="45.44064" lon="4.25082">
        <ele>431.20001220703</ele>
        <time>2012-02-24T08:16:28.000Z</time>
      </trkpt>
      <trkpt lat="45.44058" lon="4.25072">
        <ele>431.60000610352</ele>
        <time>2012-02-24T08:16:33.000Z</time>
      </trkpt>
      <trkpt lat="45.44055" lon="4.25069">
        <ele>431.79998779297</ele>
        <time>2012-02-24T08:16:35.000Z</time>
      </trkpt>
      <trkpt lat="45.44051" lon="4.25055">
        <ele>432.79998779297</ele>
        <time>2012-02-24T08:16:41.000Z</time>
      </trkpt>
      <trkpt lat="45.44045" lon="4.25042">
        <ele>433.39999389648</ele>
        <time>2012-02-24T08:16:47.000Z</time>
      </trkpt>
      <trkpt lat="45.44034" lon="4.25038">
        <ele>432.20001220703</ele>
        <time>2012-02-24T08:16:53.000Z</time>
      </trkpt>
      <trkpt lat="45.44024" lon="4.25037">
        <ele>431</ele>
        <time>2012-02-24T08:16:58.000Z</time>
      </trkpt>
      <trkpt lat="45.44012" lon="4.25028">
        <ele>429.79998779297</ele>
        <time>2012-02-24T08:17:05.000Z</time>
      </trkpt>
      <trkpt lat="45.44002" lon="4.25022">
        <ele>428.79998779297</ele>
        <time>2012-02-24T08:17:11.000Z</time>
      </trkpt>
      <trkpt lat="45.43998" lon="4.25018">
        <ele>428.79998779297</ele>
        <time>2012-02-24T08:17:14.000Z</time>
      </trkpt>
      <trkpt lat="45.43992" lon="4.25012">
        <ele>429</ele>
        <time>2012-02-24T08:17:19.000Z</time>
      </trkpt>
      <trkpt lat="45.43991" lon="4.25011">
        <ele>429.20001220703</ele>
        <time>2012-02-24T08:17:20.000Z</time>
      </trkpt>
      <trkpt lat="45.43983" lon="4.25006">
        <ele>429.39999389648</ele>
        <time>2012-02-24T08:17:25.000Z</time>
      </trkpt>
      <trkpt lat="45.43971" lon="4.24995">
        <ele>430.39999389648</ele>
        <time>2012-02-24T08:17:33.000Z</time>
      </trkpt>
      <trkpt lat="45.43968" lon="4.24992">
        <ele>430.60000610352</ele>
        <time>2012-02-24T08:17:35.000Z</time>
      </trkpt>
      <trkpt lat="45.43955" lon="4.24983">
        <ele>431.39999389648</ele>
        <time>2012-02-24T08:17:43.000Z</time>
      </trkpt>
      <trkpt lat="45.43945" lon="4.24976">
        <ele>431.60000610352</ele>
        <time>2012-02-24T08:17:49.000Z</time>
      </trkpt>
      <trkpt lat="45.43931" lon="4.24967">
        <ele>431.20001220703</ele>
        <time>2012-02-24T08:17:57.000Z</time>
      </trkpt>
      <trkpt lat="45.43918" lon="4.2496">
        <ele>430.60000610352</ele>
        <time>2012-02-24T08:18:05.000Z</time>
      </trkpt>
      <trkpt lat="45.43909" lon="4.24955">
        <ele>430.39999389648</ele>
        <time>2012-02-24T08:18:12.000Z</time>
      </trkpt>
      <trkpt lat="45.43908" lon="4.24955">
        <ele>430.20001220703</ele>
        <time>2012-02-24T08:18:13.000Z</time>
      </trkpt>
      <trkpt lat="45.43903" lon="4.2495">
        <ele>430</ele>
        <time>2012-02-24T08:18:18.000Z</time>
      </trkpt>
      <trkpt lat="45.43896" lon="4.24946">
        <ele>429.79998779297</ele>
        <time>2012-02-24T08:18:23.000Z</time>
      </trkpt>
      <trkpt lat="45.43885" lon="4.24936">
        <ele>428.79998779297</ele>
        <time>2012-02-24T08:18:30.000Z</time>
      </trkpt>
      <trkpt lat="45.4388" lon="4.24933">
        <ele>428.20001220703</ele>
        <time>2012-02-24T08:18:33.000Z</time>
      </trkpt>
      <trkpt lat="45.43875" lon="4.24927">
        <ele>427.39999389648</ele>
        <time>2012-02-24T08:18:38.000Z</time>
      </trkpt>
      <trkpt lat="45.43864" lon="4.24919">
        <ele>425.79998779297</ele>
        <time>2012-02-24T08:18:44.000Z</time>
      </trkpt>
      <trkpt lat="45.43854" lon="4.24912">
        <ele>425</ele>
        <time>2012-02-24T08:18:50.000Z</time>
      </trkpt>
      <trkpt lat="45.43844" lon="4.24906">
        <ele>424.60000610352</ele>
        <time>2012-02-24T08:18:56.000Z</time>
      </trkpt>
      <trkpt lat="45.43836" lon="4.24901">
        <ele>424</ele>
        <time>2012-02-24T08:19:01.000Z</time>
      </trkpt>
      <trkpt lat="45.43834" lon="4.249">
        <ele>423.79998779297</ele>
        <time>2012-02-24T08:19:02.000Z</time>
      </trkpt>
      <trkpt lat="45.43825" lon="4.24896">
        <ele>424</ele>
        <time>2012-02-24T08:19:07.000Z</time>
      </trkpt>
      <trkpt lat="45.43821" lon="4.24889">
        <ele>424.79998779297</ele>
        <time>2012-02-24T08:19:11.000Z</time>
      </trkpt>
      <trkpt lat="45.43814" lon="4.24883">
        <ele>425.39999389648</ele>
        <time>2012-02-24T08:19:19.000Z</time>
      </trkpt>
      <trkpt lat="45.43815" lon="4.24876">
        <ele>426.20001220703</ele>
        <time>2012-02-24T08:19:25.000Z</time>
      </trkpt>
      <trkpt lat="45.43814" lon="4.24872">
        <ele>426.60000610352</ele>
        <time>2012-02-24T08:19:30.000Z</time>
      </trkpt>
      <trkpt lat="45.43817" lon="4.24872">
        <ele>426.60000610352</ele>
        <time>2012-02-24T08:19:35.000Z</time>
      </trkpt>
      <trkpt lat="45.43818" lon="4.24869">
        <ele>427</ele>
        <time>2012-02-24T08:19:40.000Z</time>
      </trkpt>
      <trkpt lat="45.4382" lon="4.24866">
        <ele>427.39999389648</ele>
        <time>2012-02-24T08:19:44.000Z</time>
      </trkpt>
      <trkpt lat="45.4382" lon="4.24866">
        <ele>427.39999389648</ele>
        <time>2012-02-24T08:19:45.000Z</time>
      </trkpt>
      <trkpt lat="45.43833" lon="4.24869">
        <ele>427.20001220703</ele>
        <time>2012-02-24T08:20:06.000Z</time>
      </trkpt>
      <trkpt lat="45.43839" lon="4.24872">
        <ele>427.60000610352</ele>
        <time>2012-02-24T08:20:09.000Z</time>
      </trkpt>
      <trkpt lat="45.43851" lon="4.24875">
        <ele>429.20001220703</ele>
        <time>2012-02-24T08:20:16.000Z</time>
      </trkpt>
      <trkpt lat="45.4386" lon="4.24875">
        <ele>430.60000610352</ele>
        <time>2012-02-24T08:20:21.000Z</time>
      </trkpt>
      <trkpt lat="45.43871" lon="4.24872">
        <ele>432.60000610352</ele>
        <time>2012-02-24T08:20:28.000Z</time>
      </trkpt>
      <trkpt lat="45.43879" lon="4.24872">
        <ele>433.79998779297</ele>
        <time>2012-02-24T08:20:32.000Z</time>
      </trkpt>
      <trkpt lat="45.43888" lon="4.24873">
        <ele>435</ele>
        <time>2012-02-24T08:20:38.000Z</time>
      </trkpt>
      <trkpt lat="45.4389" lon="4.24874">
        <ele>435.20001220703</ele>
        <time>2012-02-24T08:20:42.000Z</time>
      </trkpt>
      <trkpt lat="45.43895" lon="4.24879">
        <ele>435.20001220703</ele>
        <time>2012-02-24T08:20:53.000Z</time>
      </trkpt>
      <trkpt lat="45.43902" lon="4.24884">
        <ele>435.39999389648</ele>
        <time>2012-02-24T08:20:57.000Z</time>
      </trkpt>
      <trkpt lat="45.4391" lon="4.24891">
        <ele>435.39999389648</ele>
        <time>2012-02-24T08:21:04.000Z</time>
      </trkpt>
      <trkpt lat="45.43913" lon="4.24891">
        <ele>435.79998779297</ele>
        <time>2012-02-24T08:21:07.000Z</time>
      </trkpt>
      <trkpt lat="45.43912" lon="4.24887">
        <ele>436.39999389648</ele>
        <time>2012-02-24T08:21:13.000Z</time>
      </trkpt>
      <trkpt lat="45.43905" lon="4.24872">
        <ele>437.79998779297</ele>
        <time>2012-02-24T08:21:20.000Z</time>
      </trkpt>
      <trkpt lat="45.439" lon="4.24864">
        <ele>438.20001220703</ele>
        <time>2012-02-24T08:21:25.000Z</time>
      </trkpt>
      <trkpt lat="45.43893" lon="4.24858">
        <ele>438</ele>
        <time>2012-02-24T08:21:30.000Z</time>
      </trkpt>
      <trkpt lat="45.4389" lon="4.24857">
        <ele>437.60000610352</ele>
        <time>2012-02-24T08:21:32.000Z</time>
      </trkpt>
      <trkpt lat="45.43884" lon="4.24847">
        <ele>438.20001220703</ele>
        <time>2012-02-24T08:21:38.000Z</time>
      </trkpt>
      <trkpt lat="45.43885" lon="4.24837">
        <ele>439.60000610352</ele>
        <time>2012-02-24T08:21:44.000Z</time>
      </trkpt>
      <trkpt lat="45.43885" lon="4.24828">
        <ele>441.20001220703</ele>
        <time>2012-02-24T08:21:51.000Z</time>
      </trkpt>
      <trkpt lat="45.43884" lon="4.24824">
        <ele>441.79998779297</ele>
        <time>2012-02-24T08:21:57.000Z</time>
      </trkpt>
      <trkpt lat="45.43884" lon="4.24824">
        <ele>441.79998779297</ele>
        <time>2012-02-24T08:21:58.000Z</time>
      </trkpt>
      <trkpt lat="45.43861" lon="4.24803">
        <ele>440</ele>
        <time>2012-02-24T08:22:52.000Z</time>
      </trkpt>
      <trkpt lat="45.43856" lon="4.24792">
        <ele>440.39999389648</ele>
        <time>2012-02-24T08:22:57.000Z</time>
      </trkpt>
      <trkpt lat="45.4385" lon="4.24782">
        <ele>440.20001220703</ele>
        <time>2012-02-24T08:23:04.000Z</time>
      </trkpt>
      <trkpt lat="45.43845" lon="4.24772">
        <ele>440</ele>
        <time>2012-02-24T08:23:10.000Z</time>
      </trkpt>
      <trkpt lat="45.43844" lon="4.24762">
        <ele>440.79998779297</ele>
        <time>2012-02-24T08:23:15.000Z</time>
      </trkpt>
      <trkpt lat="45.43843" lon="4.24755">
        <ele>441.39999389648</ele>
        <time>2012-02-24T08:23:18.000Z</time>
      </trkpt>
      <trkpt lat="45.43841" lon="4.24739">
        <ele>441.60000610352</ele>
        <time>2012-02-24T08:23:26.000Z</time>
      </trkpt>
      <trkpt lat="45.43844" lon="4.24728">
        <ele>442.39999389648</ele>
        <time>2012-02-24T08:23:31.000Z</time>
      </trkpt>
      <trkpt lat="45.43848" lon="4.24718">
        <ele>444</ele>
        <time>2012-02-24T08:23:37.000Z</time>
      </trkpt>
      <trkpt lat="45.43848" lon="4.24716">
        <ele>444</ele>
        <time>2012-02-24T08:23:40.000Z</time>
      </trkpt>
      <trkpt lat="45.4385" lon="4.24708">
        <ele>445.20001220703</ele>
        <time>2012-02-24T08:24:01.000Z</time>
      </trkpt>
      <trkpt lat="45.43854" lon="4.24699">
        <ele>446.79998779297</ele>
        <time>2012-02-24T08:24:04.000Z</time>
      </trkpt>
      <trkpt lat="45.43859" lon="4.2468">
        <ele>449.20001220703</ele>
        <time>2012-02-24T08:24:11.000Z</time>
      </trkpt>
      <trkpt lat="45.43859" lon="4.24668">
        <ele>449.79998779297</ele>
        <time>2012-02-24T08:24:16.000Z</time>
      </trkpt>
      <trkpt lat="45.43865" lon="4.24658">
        <ele>452</ele>
        <time>2012-02-24T08:24:22.000Z</time>
      </trkpt>
      <trkpt lat="45.4387" lon="4.24657">
        <ele>454</ele>
        <time>2012-02-24T08:24:26.000Z</time>
      </trkpt>
      <trkpt lat="45.43874" lon="4.24654">
        <ele>455.60000610352</ele>
        <time>2012-02-24T08:24:29.000Z</time>
      </trkpt>
      <trkpt lat="45.43878" lon="4.2465">
        <ele>456.79998779297</ele>
        <time>2012-02-24T08:24:32.000Z</time>
      </trkpt>
      <trkpt lat="45.43881" lon="4.24636">
        <ele>457.39999389648</ele>
        <time>2012-02-24T08:24:38.000Z</time>
      </trkpt>
      <trkpt lat="45.43881" lon="4.24633">
        <ele>457.39999389648</ele>
        <time>2012-02-24T08:24:39.000Z</time>
      </trkpt>
      <trkpt lat="45.43883" lon="4.24617">
        <ele>457.39999389648</ele>
        <time>2012-02-24T08:24:47.000Z</time>
      </trkpt>
      <trkpt lat="45.43885" lon="4.24611">
        <ele>457.79998779297</ele>
        <time>2012-02-24T08:24:50.000Z</time>
      </trkpt>
      <trkpt lat="45.43893" lon="4.24598">
        <ele>460.39999389648</ele>
        <time>2012-02-24T08:24:58.000Z</time>
      </trkpt>
      <trkpt lat="45.43896" lon="4.24593">
        <ele>461.39999389648</ele>
        <time>2012-02-24T08:25:01.000Z</time>
      </trkpt>
      <trkpt lat="45.43901" lon="4.24579">
        <ele>462.60000610352</ele>
        <time>2012-02-24T08:25:08.000Z</time>
      </trkpt>
      <trkpt lat="45.43903" lon="4.24573">
        <ele>463</ele>
        <time>2012-02-24T08:25:12.000Z</time>
      </trkpt>
      <trkpt lat="45.43908" lon="4.24562">
        <ele>464.39999389648</ele>
        <time>2012-02-24T08:25:19.000Z</time>
      </trkpt>
      <trkpt lat="45.4391" lon="4.24556">
        <ele>465</ele>
        <time>2012-02-24T08:25:22.000Z</time>
      </trkpt>
      <trkpt lat="45.43911" lon="4.24543">
        <ele>465</ele>
        <time>2012-02-24T08:25:29.000Z</time>
      </trkpt>
      <trkpt lat="45.43914" lon="4.24534">
        <ele>465.39999389648</ele>
        <time>2012-02-24T08:25:34.000Z</time>
      </trkpt>
      <trkpt lat="45.43913" lon="4.24522">
        <ele>464.79998779297</ele>
        <time>2012-02-24T08:25:39.000Z</time>
      </trkpt>
      <trkpt lat="45.43913" lon="4.24514">
        <ele>464.60000610352</ele>
        <time>2012-02-24T08:25:43.000Z</time>
      </trkpt>
      <trkpt lat="45.43916" lon="4.24503">
        <ele>465</ele>
        <time>2012-02-24T08:25:50.000Z</time>
      </trkpt>
      <trkpt lat="45.43914" lon="4.24493">
        <ele>465</ele>
        <time>2012-02-24T08:25:55.000Z</time>
      </trkpt>
      <trkpt lat="45.43908" lon="4.24481">
        <ele>464.20001220703</ele>
        <time>2012-02-24T08:26:02.000Z</time>
      </trkpt>
      <trkpt lat="45.43906" lon="4.24478">
        <ele>464</ele>
        <time>2012-02-24T08:26:04.000Z</time>
      </trkpt>
      <trkpt lat="45.43901" lon="4.2447">
        <ele>462.79998779297</ele>
        <time>2012-02-24T08:26:10.000Z</time>
      </trkpt>
      <trkpt lat="45.43898" lon="4.24467">
        <ele>462</ele>
        <time>2012-02-24T08:26:14.000Z</time>
      </trkpt>
      <trkpt lat="45.43894" lon="4.2446">
        <ele>461.20001220703</ele>
        <time>2012-02-24T08:26:19.000Z</time>
      </trkpt>
      <trkpt lat="45.43889" lon="4.24448">
        <ele>460.60000610352</ele>
        <time>2012-02-24T08:26:25.000Z</time>
      </trkpt>
      <trkpt lat="45.43888" lon="4.24445">
        <ele>460.20001220703</ele>
        <time>2012-02-24T08:26:27.000Z</time>
      </trkpt>
      <trkpt lat="45.43881" lon="4.24437">
        <ele>458.39999389648</ele>
        <time>2012-02-24T08:26:33.000Z</time>
      </trkpt>
      <trkpt lat="45.43878" lon="4.24434">
        <ele>457.20001220703</ele>
        <time>2012-02-24T08:26:36.000Z</time>
      </trkpt>
      <trkpt lat="45.43868" lon="4.24423">
        <ele>454</ele>
        <time>2012-02-24T08:26:44.000Z</time>
      </trkpt>
      <trkpt lat="45.43863" lon="4.24416">
        <ele>452.39999389648</ele>
        <time>2012-02-24T08:26:49.000Z</time>
      </trkpt>
      <trkpt lat="45.43863" lon="4.24415">
        <ele>452.60000610352</ele>
        <time>2012-02-24T08:26:50.000Z</time>
      </trkpt>
      <trkpt lat="45.43862" lon="4.2441">
        <ele>452.79998779297</ele>
        <time>2012-02-24T08:26:54.000Z</time>
      </trkpt>
      <trkpt lat="45.4386" lon="4.24406">
        <ele>453</ele>
        <time>2012-02-24T08:26:59.000Z</time>
      </trkpt>
      <trkpt lat="45.43857" lon="4.24396">
        <ele>453.39999389648</ele>
        <time>2012-02-24T08:27:04.000Z</time>
      </trkpt>
      <trkpt lat="45.43856" lon="4.24393">
        <ele>453.60000610352</ele>
        <time>2012-02-24T08:27:06.000Z</time>
      </trkpt>
      <trkpt lat="45.43851" lon="4.24384">
        <ele>453</ele>
        <time>2012-02-24T08:27:11.000Z</time>
      </trkpt>
      <trkpt lat="45.43846" lon="4.24375">
        <ele>452.20001220703</ele>
        <time>2012-02-24T08:27:16.000Z</time>
      </trkpt>
      <trkpt lat="45.43845" lon="4.24373">
        <ele>452.20001220703</ele>
        <time>2012-02-24T08:27:17.000Z</time>
      </trkpt>
      <trkpt lat="45.43838" lon="4.24361">
        <ele>450.60000610352</ele>
        <time>2012-02-24T08:27:24.000Z</time>
      </trkpt>
      <trkpt lat="45.43832" lon="4.24353">
        <ele>449.39999389648</ele>
        <time>2012-02-24T08:27:29.000Z</time>
      </trkpt>
      <trkpt lat="45.43831" lon="4.24351">
        <ele>449.39999389648</ele>
        <time>2012-02-24T08:27:30.000Z</time>
      </trkpt>
      <trkpt lat="45.43821" lon="4.24339">
        <ele>448.60000610352</ele>
        <time>2012-02-24T08:27:38.000Z</time>
      </trkpt>
      <trkpt lat="45.43816" lon="4.24327">
        <ele>449</ele>
        <time>2012-02-24T08:27:44.000Z</time>
      </trkpt>
      <trkpt lat="45.4381" lon="4.24317">
        <ele>449.39999389648</ele>
        <time>2012-02-24T08:27:49.000Z</time>
      </trkpt>
      <trkpt lat="45.4381" lon="4.24304">
        <ele>452.39999389648</ele>
        <time>2012-02-24T08:27:55.000Z</time>
      </trkpt>
      <trkpt lat="45.43811" lon="4.24298">
        <ele>453.79998779297</ele>
        <time>2012-02-24T08:27:59.000Z</time>
      </trkpt>
      <trkpt lat="45.43813" lon="4.2429">
        <ele>456.39999389648</ele>
        <time>2012-02-24T08:28:04.000Z</time>
      </trkpt>
      <trkpt lat="45.43808" lon="4.24285">
        <ele>455.79998779297</ele>
        <time>2012-02-24T08:28:08.000Z</time>
      </trkpt>
      <trkpt lat="45.43802" lon="4.24283">
        <ele>454.20001220703</ele>
        <time>2012-02-24T08:28:12.000Z</time>
      </trkpt>
      <trkpt lat="45.43794" lon="4.24284">
        <ele>451.20001220703</ele>
        <time>2012-02-24T08:28:18.000Z</time>
      </trkpt>
      <trkpt lat="45.43793" lon="4.24285">
        <ele>450.79998779297</ele>
        <time>2012-02-24T08:28:21.000Z</time>
      </trkpt>
      <trkpt lat="45.43785" lon="4.24288">
        <ele>447.20001220703</ele>
        <time>2012-02-24T08:29:47.000Z</time>
      </trkpt>
      <trkpt lat="45.4378" lon="4.24288">
        <ele>445.60000610352</ele>
        <time>2012-02-24T08:29:51.000Z</time>
      </trkpt>
      <trkpt lat="45.43773" lon="4.2429">
        <ele>442.60000610352</ele>
        <time>2012-02-24T08:29:57.000Z</time>
      </trkpt>
      <trkpt lat="45.43764" lon="4.24285">
        <ele>440.60000610352</ele>
        <time>2012-02-24T08:30:03.000Z</time>
      </trkpt>
      <trkpt lat="45.43756" lon="4.24279">
        <ele>439.20001220703</ele>
        <time>2012-02-24T08:30:09.000Z</time>
      </trkpt>
      <trkpt lat="45.43749" lon="4.24277">
        <ele>437.20001220703</ele>
        <time>2012-02-24T08:30:14.000Z</time>
      </trkpt>
      <trkpt lat="45.43746" lon="4.24276">
        <ele>437.39999389648</ele>
        <time>2012-02-24T08:30:17.000Z</time>
      </trkpt>
      <trkpt lat="45.43739" lon="4.24277">
        <ele>437.20001220703</ele>
        <time>2012-02-24T08:30:25.000Z</time>
      </trkpt>
      <trkpt lat="45.43732" lon="4.24276">
        <ele>437.39999389648</ele>
        <time>2012-02-24T08:30:30.000Z</time>
      </trkpt>
      <trkpt lat="45.43726" lon="4.24273">
        <ele>438</ele>
        <time>2012-02-24T08:30:35.000Z</time>
      </trkpt>
      <trkpt lat="45.43724" lon="4.24272">
        <ele>438.20001220703</ele>
        <time>2012-02-24T08:30:37.000Z</time>
      </trkpt>
      <trkpt lat="45.4372" lon="4.24271">
        <ele>438.20001220703</ele>
        <time>2012-02-24T08:30:42.000Z</time>
      </trkpt>
      <trkpt lat="45.43716" lon="4.24265">
        <ele>439.39999389648</ele>
        <time>2012-02-24T08:30:47.000Z</time>
      </trkpt>
      <trkpt lat="45.43713" lon="4.24255">
        <ele>441.20001220703</ele>
        <time>2012-02-24T08:30:51.000Z</time>
      </trkpt>
      <trkpt lat="45.43712" lon="4.2425">
        <ele>442</ele>
        <time>2012-02-24T08:30:55.000Z</time>
      </trkpt>
      <trkpt lat="45.43714" lon="4.24235">
        <ele>445.79998779297</ele>
        <time>2012-02-24T08:31:02.000Z</time>
      </trkpt>
      <trkpt lat="45.43715" lon="4.24233">
        <ele>446.20001220703</ele>
        <time>2012-02-24T08:31:03.000Z</time>
      </trkpt>
      <trkpt lat="45.43713" lon="4.24224">
        <ele>448.39999389648</ele>
        <time>2012-02-24T08:31:08.000Z</time>
      </trkpt>
      <trkpt lat="45.4371" lon="4.24217">
        <ele>450.39999389648</ele>
        <time>2012-02-24T08:31:13.000Z</time>
      </trkpt>
      <trkpt lat="45.43708" lon="4.24216">
        <ele>450.39999389648</ele>
        <time>2012-02-24T08:31:17.000Z</time>
      </trkpt>
      <trkpt lat="45.43705" lon="4.2422">
        <ele>449.60000610352</ele>
        <time>2012-02-24T08:31:21.000Z</time>
      </trkpt>
      <trkpt lat="45.43701" lon="4.24223">
        <ele>449</ele>
        <time>2012-02-24T08:31:26.000Z</time>
      </trkpt>
      <trkpt lat="45.43698" lon="4.24224">
        <ele>448.60000610352</ele>
        <time>2012-02-24T08:31:28.000Z</time>
      </trkpt>
      <trkpt lat="45.43693" lon="4.24231">
        <ele>446.79998779297</ele>
        <time>2012-02-24T08:31:33.000Z</time>
      </trkpt>
      <trkpt lat="45.43684" lon="4.24242">
        <ele>444.20001220703</ele>
        <time>2012-02-24T08:31:41.000Z</time>
      </trkpt>
      <trkpt lat="45.43679" lon="4.24248">
        <ele>442.39999389648</ele>
        <time>2012-02-24T08:31:46.000Z</time>
      </trkpt>
      <trkpt lat="45.43674" lon="4.24254">
        <ele>441.39999389648</ele>
        <time>2012-02-24T08:31:51.000Z</time>
      </trkpt>
      <trkpt lat="45.43668" lon="4.24263">
        <ele>439.79998779297</ele>
        <time>2012-02-24T08:31:58.000Z</time>
      </trkpt>
      <trkpt lat="45.43664" lon="4.24269">
        <ele>439</ele>
        <time>2012-02-24T08:32:02.000Z</time>
      </trkpt>
      <trkpt lat="45.43661" lon="4.2427">
        <ele>439.20001220703</ele>
        <time>2012-02-24T08:32:05.000Z</time>
      </trkpt>
      <trkpt lat="45.43659" lon="4.2427">
        <ele>439.39999389648</ele>
        <time>2012-02-24T08:32:08.000Z</time>
      </trkpt>
      <trkpt lat="45.43658" lon="4.2427">
        <ele>439.60000610352</ele>
        <time>2012-02-24T08:32:13.000Z</time>
      </trkpt>
      <trkpt lat="45.43652" lon="4.24264">
        <ele>441.20001220703</ele>
        <time>2012-02-24T08:34:30.000Z</time>
      </trkpt>
      <trkpt lat="45.43655" lon="4.24266">
        <ele>440.60000610352</ele>
        <time>2012-02-24T08:34:32.000Z</time>
      </trkpt>
      <trkpt lat="45.43657" lon="4.24275">
        <ele>438.60000610352</ele>
        <time>2012-02-24T08:34:41.000Z</time>
      </trkpt>
      <trkpt lat="45.43659" lon="4.24276">
        <ele>438.39999389648</ele>
        <time>2012-02-24T08:34:44.000Z</time>
      </trkpt>
      <trkpt lat="45.43656" lon="4.24276">
        <ele>438.60000610352</ele>
        <time>2012-02-24T08:34:55.000Z</time>
      </trkpt>
      <trkpt lat="45.43646" lon="4.2428">
        <ele>438.60000610352</ele>
        <time>2012-02-24T08:34:59.000Z</time>
      </trkpt>
      <trkpt lat="45.43636" lon="4.24285">
        <ele>438.39999389648</ele>
        <time>2012-02-24T08:35:04.000Z</time>
      </trkpt>
      <trkpt lat="45.43627" lon="4.24286">
        <ele>439</ele>
        <time>2012-02-24T08:35:09.000Z</time>
      </trkpt>
      <trkpt lat="45.43618" lon="4.24291">
        <ele>438.79998779297</ele>
        <time>2012-02-24T08:35:14.000Z</time>
      </trkpt>
      <trkpt lat="45.43608" lon="4.24301">
        <ele>437</ele>
        <time>2012-02-24T08:35:20.000Z</time>
      </trkpt>
      <trkpt lat="45.436" lon="4.24308">
        <ele>435.79998779297</ele>
        <time>2012-02-24T08:35:25.000Z</time>
      </trkpt>
      <trkpt lat="45.43592" lon="4.24313">
        <ele>435</ele>
        <time>2012-02-24T08:35:30.000Z</time>
      </trkpt>
      <trkpt lat="45.43584" lon="4.24319">
        <ele>433.79998779297</ele>
        <time>2012-02-24T08:35:34.000Z</time>
      </trkpt>
      <trkpt lat="45.43573" lon="4.24323">
        <ele>432.60000610352</ele>
        <time>2012-02-24T08:35:40.000Z</time>
      </trkpt>
      <trkpt lat="45.43564" lon="4.24328">
        <ele>431.60000610352</ele>
        <time>2012-02-24T08:35:45.000Z</time>
      </trkpt>
      <trkpt lat="45.43556" lon="4.24335">
        <ele>430.60000610352</ele>
        <time>2012-02-24T08:35:50.000Z</time>
      </trkpt>
      <trkpt lat="45.43553" lon="4.24337">
        <ele>430.39999389648</ele>
        <time>2012-02-24T08:35:52.000Z</time>
      </trkpt>
      <trkpt lat="45.43545" lon="4.24342">
        <ele>430.20001220703</ele>
        <time>2012-02-24T08:35:58.000Z</time>
      </trkpt>
      <trkpt lat="45.43545" lon="4.24342">
        <ele>430.20001220703</ele>
        <time>2012-02-24T08:35:59.000Z</time>
      </trkpt>
      <trkpt lat="45.4354" lon="4.24348">
        <ele>430</ele>
        <time>2012-02-24T08:36:10.000Z</time>
      </trkpt>
      <trkpt lat="45.43533" lon="4.24353">
        <ele>429.79998779297</ele>
        <time>2012-02-24T08:36:14.000Z</time>
      </trkpt>
      <trkpt lat="45.43526" lon="4.24355">
        <ele>429.79998779297</ele>
        <time>2012-02-24T08:36:19.000Z</time>
      </trkpt>
      <trkpt lat="45.43524" lon="4.24353">
        <ele>430</ele>
        <time>2012-02-24T08:36:21.000Z</time>
      </trkpt>
      <trkpt lat="45.43521" lon="4.24345">
        <ele>430.60000610352</ele>
        <time>2012-02-24T08:36:29.000Z</time>
      </trkpt>
      <trkpt lat="45.4352" lon="4.24345">
        <ele>430.60000610352</ele>
        <time>2012-02-24T08:36:31.000Z</time>
      </trkpt>
      <trkpt lat="45.43517" lon="4.24347">
        <ele>430.60000610352</ele>
        <time>2012-02-24T08:36:37.000Z</time>
      </trkpt>
      <trkpt lat="45.43514" lon="4.24341">
        <ele>431.20001220703</ele>
        <time>2012-02-24T08:36:40.000Z</time>
      </trkpt>
      <trkpt lat="45.43507" lon="4.24334">
        <ele>431.79998779297</ele>
        <time>2012-02-24T08:36:44.000Z</time>
      </trkpt>
      <trkpt lat="45.43495" lon="4.24321">
        <ele>435.20001220703</ele>
        <time>2012-02-24T08:36:51.000Z</time>
      </trkpt>
      <trkpt lat="45.43489" lon="4.24309">
        <ele>438.39999389648</ele>
        <time>2012-02-24T08:36:57.000Z</time>
      </trkpt>
      <trkpt lat="45.43485" lon="4.24297">
        <ele>440.60000610352</ele>
        <time>2012-02-24T08:37:03.000Z</time>
      </trkpt>
      <trkpt lat="45.43483" lon="4.24284">
        <ele>442.60000610352</ele>
        <time>2012-02-24T08:37:08.000Z</time>
      </trkpt>
      <trkpt lat="45.4348" lon="4.24273">
        <ele>444.39999389648</ele>
        <time>2012-02-24T08:37:13.000Z</time>
      </trkpt>
      <trkpt lat="45.43476" lon="4.24263">
        <ele>446.20001220703</ele>
        <time>2012-02-24T08:37:17.000Z</time>
      </trkpt>
      <trkpt lat="45.43474" lon="4.24259">
        <ele>447.20001220703</ele>
        <time>2012-02-24T08:37:19.000Z</time>
      </trkpt>
      <trkpt lat="45.43471" lon="4.24258">
        <ele>448</ele>
        <time>2012-02-24T08:37:24.000Z</time>
      </trkpt>
      <trkpt lat="45.43468" lon="4.2427">
        <ele>448.20001220703</ele>
        <time>2012-02-24T08:38:25.000Z</time>
      </trkpt>
      <trkpt lat="45.43468" lon="4.2428">
        <ele>447.39999389648</ele>
        <time>2012-02-24T08:38:29.000Z</time>
      </trkpt>
      <trkpt lat="45.43467" lon="4.24295">
        <ele>446.60000610352</ele>
        <time>2012-02-24T08:38:35.000Z</time>
      </trkpt>
      <trkpt lat="45.43464" lon="4.24305">
        <ele>446.79998779297</ele>
        <time>2012-02-24T08:38:39.000Z</time>
      </trkpt>
      <trkpt lat="45.43465" lon="4.2432">
        <ele>445.39999389648</ele>
        <time>2012-02-24T08:38:45.000Z</time>
      </trkpt>
      <trkpt lat="45.43462" lon="4.24336">
        <ele>445.39999389648</ele>
        <time>2012-02-24T08:38:51.000Z</time>
      </trkpt>
      <trkpt lat="45.43461" lon="4.24351">
        <ele>444</ele>
        <time>2012-02-24T08:38:56.000Z</time>
      </trkpt>
      <trkpt lat="45.4346" lon="4.24363">
        <ele>443</ele>
        <time>2012-02-24T08:39:02.000Z</time>
      </trkpt>
      <trkpt lat="45.43459" lon="4.24377">
        <ele>442</ele>
        <time>2012-02-24T08:39:07.000Z</time>
      </trkpt>
      <trkpt lat="45.4346" lon="4.24387">
        <ele>440.60000610352</ele>
        <time>2012-02-24T08:39:11.000Z</time>
      </trkpt>
      <trkpt lat="45.4346" lon="4.24393">
        <ele>439.60000610352</ele>
        <time>2012-02-24T08:39:14.000Z</time>
      </trkpt>
      <trkpt lat="45.43458" lon="4.24408">
        <ele>438.60000610352</ele>
        <time>2012-02-24T08:39:20.000Z</time>
      </trkpt>
      <trkpt lat="45.43452" lon="4.24424">
        <ele>438.20001220703</ele>
        <time>2012-02-24T08:39:26.000Z</time>
      </trkpt>
      <trkpt lat="45.43445" lon="4.24438">
        <ele>437.79998779297</ele>
        <time>2012-02-24T08:39:32.000Z</time>
      </trkpt>
      <trkpt lat="45.43438" lon="4.24446">
        <ele>438</ele>
        <time>2012-02-24T08:39:37.000Z</time>
      </trkpt>
      <trkpt lat="45.4343" lon="4.24453">
        <ele>438.39999389648</ele>
        <time>2012-02-24T08:39:42.000Z</time>
      </trkpt>
      <trkpt lat="45.43428" lon="4.24456">
        <ele>438.20001220703</ele>
        <time>2012-02-24T08:39:44.000Z</time>
      </trkpt>
      <trkpt lat="45.43421" lon="4.24461">
        <ele>438.39999389648</ele>
        <time>2012-02-24T08:39:48.000Z</time>
      </trkpt>
      <trkpt lat="45.4341" lon="4.24468">
        <ele>439.39999389648</ele>
        <time>2012-02-24T08:39:54.000Z</time>
      </trkpt>
      <trkpt lat="45.434" lon="4.24475">
        <ele>440.20001220703</ele>
        <time>2012-02-24T08:39:59.000Z</time>
      </trkpt>
      <trkpt lat="45.43393" lon="4.24481">
        <ele>440.39999389648</ele>
        <time>2012-02-24T08:40:04.000Z</time>
      </trkpt>
      <trkpt lat="45.43386" lon="4.24487">
        <ele>440.60000610352</ele>
        <time>2012-02-24T08:40:10.000Z</time>
      </trkpt>
      <trkpt lat="45.43384" lon="4.245">
        <ele>438.60000610352</ele>
        <time>2012-02-24T08:40:15.000Z</time>
      </trkpt>
      <trkpt lat="45.43382" lon="4.24511">
        <ele>437.79998779297</ele>
        <time>2012-02-24T08:40:20.000Z</time>
      </trkpt>
      <trkpt lat="45.43381" lon="4.24512">
        <ele>437.79998779297</ele>
        <time>2012-02-24T08:40:21.000Z</time>
      </trkpt>
      <trkpt lat="45.43379" lon="4.24513">
        <ele>438.20001220703</ele>
        <time>2012-02-24T08:40:23.000Z</time>
      </trkpt>
      <trkpt lat="45.43376" lon="4.24519">
        <ele>438.20001220703</ele>
        <time>2012-02-24T08:40:27.000Z</time>
      </trkpt>
      <trkpt lat="45.4337" lon="4.24526">
        <ele>438.39999389648</ele>
        <time>2012-02-24T08:40:33.000Z</time>
      </trkpt>
      <trkpt lat="45.43365" lon="4.24531">
        <ele>438.79998779297</ele>
        <time>2012-02-24T08:40:37.000Z</time>
      </trkpt>
      <trkpt lat="45.43362" lon="4.24536">
        <ele>438.79998779297</ele>
        <time>2012-02-24T08:40:40.000Z</time>
      </trkpt>
      <trkpt lat="45.4336" lon="4.24544">
        <ele>438.20001220703</ele>
        <time>2012-02-24T08:40:44.000Z</time>
      </trkpt>
      <trkpt lat="45.43359" lon="4.24547">
        <ele>437.79998779297</ele>
        <time>2012-02-24T08:40:46.000Z</time>
      </trkpt>
      <trkpt lat="45.43356" lon="4.24556">
        <ele>437.20001220703</ele>
        <time>2012-02-24T08:40:52.000Z</time>
      </trkpt>
      <trkpt lat="45.43355" lon="4.24565">
        <ele>436</ele>
        <time>2012-02-24T08:40:57.000Z</time>
      </trkpt>
      <trkpt lat="45.43356" lon="4.2457">
        <ele>435.20001220703</ele>
        <time>2012-02-24T08:41:00.000Z</time>
      </trkpt>
      <trkpt lat="45.43353" lon="4.24577">
        <ele>434.79998779297</ele>
        <time>2012-02-24T08:41:05.000Z</time>
      </trkpt>
      <trkpt lat="45.43349" lon="4.24581">
        <ele>434.79998779297</ele>
        <time>2012-02-24T08:41:08.000Z</time>
      </trkpt>
      <trkpt lat="45.43344" lon="4.24585">
        <ele>435.20001220703</ele>
        <time>2012-02-24T08:41:12.000Z</time>
      </trkpt>
      <trkpt lat="45.4334" lon="4.24589">
        <ele>435</ele>
        <time>2012-02-24T08:41:15.000Z</time>
      </trkpt>
      <trkpt lat="45.43333" lon="4.24599">
        <ele>434.79998779297</ele>
        <time>2012-02-24T08:41:21.000Z</time>
      </trkpt>
      <trkpt lat="45.43331" lon="4.24603">
        <ele>434.79998779297</ele>
        <time>2012-02-24T08:41:23.000Z</time>
      </trkpt>
      <trkpt lat="45.43328" lon="4.24611">
        <ele>434.39999389648</ele>
        <time>2012-02-24T08:41:28.000Z</time>
      </trkpt>
      <trkpt lat="45.43327" lon="4.24612">
        <ele>434.39999389648</ele>
        <time>2012-02-24T08:41:29.000Z</time>
      </trkpt>
      <trkpt lat="45.43323" lon="4.24615">
        <ele>435</ele>
        <time>2012-02-24T08:41:35.000Z</time>
      </trkpt>
      <trkpt lat="45.43323" lon="4.24615">
        <ele>435</ele>
        <time>2012-02-24T08:41:37.000Z</time>
      </trkpt>
      <trkpt lat="45.4332" lon="4.24619">
        <ele>435</ele>
        <time>2012-02-24T08:41:47.000Z</time>
      </trkpt>
      <trkpt lat="45.4331" lon="4.24629">
        <ele>435</ele>
        <time>2012-02-24T08:41:52.000Z</time>
      </trkpt>
      <trkpt lat="45.43302" lon="4.24636">
        <ele>435</ele>
        <time>2012-02-24T08:41:57.000Z</time>
      </trkpt>
      <trkpt lat="45.43291" lon="4.24642">
        <ele>435.39999389648</ele>
        <time>2012-02-24T08:42:03.000Z</time>
      </trkpt>
      <trkpt lat="45.43282" lon="4.24645">
        <ele>436.20001220703</ele>
        <time>2012-02-24T08:42:08.000Z</time>
      </trkpt>
      <trkpt lat="45.43275" lon="4.24649">
        <ele>436</ele>
        <time>2012-02-24T08:42:13.000Z</time>
      </trkpt>
      <trkpt lat="45.43273" lon="4.24656">
        <ele>434.20001220703</ele>
        <time>2012-02-24T08:42:20.000Z</time>
      </trkpt>
      <trkpt lat="45.4327" lon="4.24659">
        <ele>433.39999389648</ele>
        <time>2012-02-24T08:42:25.000Z</time>
      </trkpt>
      <trkpt lat="45.43269" lon="4.24656">
        <ele>434.39999389648</ele>
        <time>2012-02-24T08:42:31.000Z</time>
      </trkpt>
      <trkpt lat="45.43269" lon="4.24656">
        <ele>434.39999389648</ele>
        <time>2012-02-24T08:42:33.000Z</time>
      </trkpt>
      <trkpt lat="45.43266" lon="4.2465">
        <ele>437</ele>
        <time>2012-02-24T08:42:50.000Z</time>
      </trkpt>
      <trkpt lat="45.4327" lon="4.24644">
        <ele>438.39999389648</ele>
        <time>2012-02-24T08:42:54.000Z</time>
      </trkpt>
      <trkpt lat="45.43275" lon="4.2464">
        <ele>438.39999389648</ele>
        <time>2012-02-24T08:43:00.000Z</time>
      </trkpt>
      <trkpt lat="45.43278" lon="4.24636">
        <ele>439.39999389648</ele>
        <time>2012-02-24T08:43:04.000Z</time>
      </trkpt>
      <trkpt lat="45.43283" lon="4.24619">
        <ele>443.39999389648</ele>
        <time>2012-02-24T08:43:13.000Z</time>
      </trkpt>
      <trkpt lat="45.43285" lon="4.24611">
        <ele>445.20001220703</ele>
        <time>2012-02-24T08:43:19.000Z</time>
      </trkpt>
      <trkpt lat="45.43286" lon="4.24603">
        <ele>447.20001220703</ele>
        <time>2012-02-24T08:43:24.000Z</time>
      </trkpt>
      <trkpt lat="45.4329" lon="4.24592">
        <ele>448.60000610352</ele>
        <time>2012-02-24T08:43:30.000Z</time>
      </trkpt>
      <trkpt lat="45.43294" lon="4.24587">
        <ele>448.79998779297</ele>
        <time>2012-02-24T08:43:35.000Z</time>
      </trkpt>
      <trkpt lat="45.43298" lon="4.24583">
        <ele>448.60000610352</ele>
        <time>2012-02-24T08:43:41.000Z</time>
      </trkpt>
      <trkpt lat="45.43298" lon="4.24583">
        <ele>448.60000610352</ele>
        <time>2012-02-24T08:43:42.000Z</time>
      </trkpt>
      <trkpt lat="45.433" lon="4.24582">
        <ele>448</ele>
        <time>2012-02-24T08:43:45.000Z</time>
      </trkpt>
      <trkpt lat="45.43304" lon="4.24581">
        <ele>447.20001220703</ele>
        <time>2012-02-24T08:43:48.000Z</time>
      </trkpt>
      <trkpt lat="45.43303" lon="4.24567">
        <ele>450.39999389648</ele>
        <time>2012-02-24T08:43:59.000Z</time>
      </trkpt>
      <trkpt lat="45.43304" lon="4.24558">
        <ele>452.20001220703</ele>
        <time>2012-02-24T08:44:02.000Z</time>
      </trkpt>
      <trkpt lat="45.43305" lon="4.24551">
        <ele>453</ele>
        <time>2012-02-24T08:44:05.000Z</time>
      </trkpt>
      <trkpt lat="45.43304" lon="4.24543">
        <ele>455</ele>
        <time>2012-02-24T08:44:11.000Z</time>
      </trkpt>
      <trkpt lat="45.43304" lon="4.24542">
        <ele>455.39999389648</ele>
        <time>2012-02-24T08:44:14.000Z</time>
      </trkpt>
      <trkpt lat="45.433" lon="4.24547">
        <ele>455.79998779297</ele>
        <time>2012-02-24T08:44:20.000Z</time>
      </trkpt>
      <trkpt lat="45.43299" lon="4.24555">
        <ele>454.79998779297</ele>
        <time>2012-02-24T08:44:23.000Z</time>
      </trkpt>
      <trkpt lat="45.43295" lon="4.2456">
        <ele>454.79998779297</ele>
        <time>2012-02-24T08:44:29.000Z</time>
      </trkpt>
      <trkpt lat="45.43295" lon="4.2456">
        <ele>454.79998779297</ele>
        <time>2012-02-24T08:44:31.000Z</time>
      </trkpt>
      <trkpt lat="45.43296" lon="4.24553">
        <ele>456</ele>
        <time>2012-02-24T08:44:37.000Z</time>
      </trkpt>
      <trkpt lat="45.43298" lon="4.24547">
        <ele>456.79998779297</ele>
        <time>2012-02-24T08:44:39.000Z</time>
      </trkpt>
      <trkpt lat="45.43303" lon="4.24542">
        <ele>455.79998779297</ele>
        <time>2012-02-24T08:44:46.000Z</time>
      </trkpt>
      <trkpt lat="45.43303" lon="4.24543">
        <ele>455.79998779297</ele>
        <time>2012-02-24T08:44:47.000Z</time>
      </trkpt>
      <trkpt lat="45.43302" lon="4.24535">
        <ele>458</ele>
        <time>2012-02-24T08:45:25.000Z</time>
      </trkpt>
      <trkpt lat="45.43306" lon="4.24524">
        <ele>458.39999389648</ele>
        <time>2012-02-24T08:45:29.000Z</time>
      </trkpt>
      <trkpt lat="45.43307" lon="4.24518">
        <ele>459.20001220703</ele>
        <time>2012-02-24T08:45:32.000Z</time>
      </trkpt>
      <trkpt lat="45.43309" lon="4.24505">
        <ele>461</ele>
        <time>2012-02-24T08:45:39.000Z</time>
      </trkpt>
      <trkpt lat="45.43308" lon="4.24494">
        <ele>463.39999389648</ele>
        <time>2012-02-24T08:45:47.000Z</time>
      </trkpt>
      <trkpt lat="45.43308" lon="4.24485">
        <ele>465</ele>
        <time>2012-02-24T08:45:52.000Z</time>
      </trkpt>
      <trkpt lat="45.4331" lon="4.24479">
        <ele>465.20001220703</ele>
        <time>2012-02-24T08:45:55.000Z</time>
      </trkpt>
      <trkpt lat="45.43308" lon="4.24467">
        <ele>468.39999389648</ele>
        <time>2012-02-24T08:46:01.000Z</time>
      </trkpt>
      <trkpt lat="45.43305" lon="4.24458">
        <ele>471.20001220703</ele>
        <time>2012-02-24T08:46:05.000Z</time>
      </trkpt>
      <trkpt lat="45.43301" lon="4.24449">
        <ele>474.79998779297</ele>
        <time>2012-02-24T08:46:10.000Z</time>
      </trkpt>
      <trkpt lat="45.43296" lon="4.24444">
        <ele>477.60000610352</ele>
        <time>2012-02-24T08:46:14.000Z</time>
      </trkpt>
      <trkpt lat="45.4329" lon="4.24436">
        <ele>481.60000610352</ele>
        <time>2012-02-24T08:46:20.000Z</time>
      </trkpt>
      <trkpt lat="45.43283" lon="4.2443">
        <ele>485.60000610352</ele>
        <time>2012-02-24T08:46:26.000Z</time>
      </trkpt>
      <trkpt lat="45.43282" lon="4.24428">
        <ele>486.39999389648</ele>
        <time>2012-02-24T08:46:28.000Z</time>
      </trkpt>
      <trkpt lat="45.43278" lon="4.24416">
        <ele>490</ele>
        <time>2012-02-24T08:46:35.000Z</time>
      </trkpt>
      <trkpt lat="45.43279" lon="4.24412">
        <ele>490.20001220703</ele>
        <time>2012-02-24T08:46:37.000Z</time>
      </trkpt>
      <trkpt lat="45.43285" lon="4.24404">
        <ele>489.20001220703</ele>
        <time>2012-02-24T08:46:41.000Z</time>
      </trkpt>
      <trkpt lat="45.43297" lon="4.24398">
        <ele>485.20001220703</ele>
        <time>2012-02-24T08:46:47.000Z</time>
      </trkpt>
      <trkpt lat="45.43302" lon="4.24395">
        <ele>483.79998779297</ele>
        <time>2012-02-24T08:46:51.000Z</time>
      </trkpt>
      <trkpt lat="45.4331" lon="4.2439">
        <ele>481.60000610352</ele>
        <time>2012-02-24T08:46:57.000Z</time>
      </trkpt>
      <trkpt lat="45.4332" lon="4.24385">
        <ele>479</ele>
        <time>2012-02-24T08:47:01.000Z</time>
      </trkpt>
      <trkpt lat="45.43322" lon="4.24384">
        <ele>478.60000610352</ele>
        <time>2012-02-24T08:47:02.000Z</time>
      </trkpt>
      <trkpt lat="45.43331" lon="4.24378">
        <ele>476.79998779297</ele>
        <time>2012-02-24T08:47:09.000Z</time>
      </trkpt>
      <trkpt lat="45.43338" lon="4.24373">
        <ele>475.79998779297</ele>
        <time>2012-02-24T08:47:14.000Z</time>
      </trkpt>
      <trkpt lat="45.43345" lon="4.24366">
        <ele>475.79998779297</ele>
        <time>2012-02-24T08:47:20.000Z</time>
      </trkpt>
      <trkpt lat="45.43353" lon="4.2436">
        <ele>475</ele>
        <time>2012-02-24T08:47:27.000Z</time>
      </trkpt>
      <trkpt lat="45.43358" lon="4.24354">
        <ele>475</ele>
        <time>2012-02-24T08:47:32.000Z</time>
      </trkpt>
      <trkpt lat="45.4336" lon="4.24351">
        <ele>475.20001220703</ele>
        <time>2012-02-24T08:47:34.000Z</time>
      </trkpt>
      <trkpt lat="45.43367" lon="4.24343">
        <ele>475</ele>
        <time>2012-02-24T08:47:40.000Z</time>
      </trkpt>
      <trkpt lat="45.43368" lon="4.24341">
        <ele>475</ele>
        <time>2012-02-24T08:47:41.000Z</time>
      </trkpt>
      <trkpt lat="45.43373" lon="4.24328">
        <ele>475.60000610352</ele>
        <time>2012-02-24T08:47:48.000Z</time>
      </trkpt>
      <trkpt lat="45.43375" lon="4.24325">
        <ele>475</ele>
        <time>2012-02-24T08:47:50.000Z</time>
      </trkpt>
      <trkpt lat="45.43377" lon="4.2432">
        <ele>475</ele>
        <time>2012-02-24T08:47:56.000Z</time>
      </trkpt>
      <trkpt lat="45.43377" lon="4.24317">
        <ele>475</ele>
        <time>2012-02-24T08:48:01.000Z</time>
      </trkpt>
      <trkpt lat="45.43352" lon="4.24317">
        <ele>483</ele>
        <time>2012-02-24T08:48:30.000Z</time>
      </trkpt>
      <trkpt lat="45.43345" lon="4.24317">
        <ele>485.39999389648</ele>
        <time>2012-02-24T08:48:36.000Z</time>
      </trkpt>
      <trkpt lat="45.43338" lon="4.24318">
        <ele>487.60000610352</ele>
        <time>2012-02-24T08:48:42.000Z</time>
      </trkpt>
      <trkpt lat="45.43332" lon="4.24321">
        <ele>489.20001220703</ele>
        <time>2012-02-24T08:48:49.000Z</time>
      </trkpt>
      <trkpt lat="45.43322" lon="4.24321">
        <ele>492</ele>
        <time>2012-02-24T08:48:56.000Z</time>
      </trkpt>
      <trkpt lat="45.43314" lon="4.24318">
        <ele>495</ele>
        <time>2012-02-24T08:49:03.000Z</time>
      </trkpt>
      <trkpt lat="45.43306" lon="4.24319">
        <ele>497.20001220703</ele>
        <time>2012-02-24T08:49:08.000Z</time>
      </trkpt>
      <trkpt lat="45.43294" lon="4.2432">
        <ele>500.79998779297</ele>
        <time>2012-02-24T08:49:15.000Z</time>
      </trkpt>
      <trkpt lat="45.43285" lon="4.24321">
        <ele>503.20001220703</ele>
        <time>2012-02-24T08:49:20.000Z</time>
      </trkpt>
      <trkpt lat="45.43275" lon="4.24319">
        <ele>506.60000610352</ele>
        <time>2012-02-24T08:49:25.000Z</time>
      </trkpt>
      <trkpt lat="45.43268" lon="4.24321">
        <ele>508.20001220703</ele>
        <time>2012-02-24T08:49:29.000Z</time>
      </trkpt>
      <trkpt lat="45.43262" lon="4.24319">
        <ele>510.60000610352</ele>
        <time>2012-02-24T08:49:35.000Z</time>
      </trkpt>
      <trkpt lat="45.43256" lon="4.24317">
        <ele>512.79998779297</ele>
        <time>2012-02-24T08:49:39.000Z</time>
      </trkpt>
      <trkpt lat="45.43251" lon="4.24317">
        <ele>514.20001220703</ele>
        <time>2012-02-24T08:49:43.000Z</time>
      </trkpt>
      <trkpt lat="45.43241" lon="4.24319">
        <ele>517.79998779297</ele>
        <time>2012-02-24T08:49:50.000Z</time>
      </trkpt>
      <trkpt lat="45.43232" lon="4.24327">
        <ele>519.40002441406</ele>
        <time>2012-02-24T08:49:55.000Z</time>
      </trkpt>
      <trkpt lat="45.43225" lon="4.24341">
        <ele>519.79998779297</ele>
        <time>2012-02-24T08:50:03.000Z</time>
      </trkpt>
      <trkpt lat="45.43225" lon="4.24343">
        <ele>519.59997558594</ele>
        <time>2012-02-24T08:50:04.000Z</time>
      </trkpt>
      <trkpt lat="45.43223" lon="4.24358">
        <ele>518</ele>
        <time>2012-02-24T08:50:11.000Z</time>
      </trkpt>
      <trkpt lat="45.43224" lon="4.2436">
        <ele>517.79998779297</ele>
        <time>2012-02-24T08:50:12.000Z</time>
      </trkpt>
      <trkpt lat="45.43223" lon="4.24371">
        <ele>516.40002441406</ele>
        <time>2012-02-24T08:50:17.000Z</time>
      </trkpt>
      <trkpt lat="45.43223" lon="4.24378">
        <ele>515.40002441406</ele>
        <time>2012-02-24T08:50:20.000Z</time>
      </trkpt>
      <trkpt lat="45.43222" lon="4.24394">
        <ele>513.59997558594</ele>
        <time>2012-02-24T08:50:27.000Z</time>
      </trkpt>
      <trkpt lat="45.43222" lon="4.24401">
        <ele>512.59997558594</ele>
        <time>2012-02-24T08:50:31.000Z</time>
      </trkpt>
      <trkpt lat="45.43219" lon="4.24416">
        <ele>511.39999389648</ele>
        <time>2012-02-24T08:50:38.000Z</time>
      </trkpt>
      <trkpt lat="45.43213" lon="4.24426">
        <ele>511.39999389648</ele>
        <time>2012-02-24T08:50:44.000Z</time>
      </trkpt>
      <trkpt lat="45.43208" lon="4.24436">
        <ele>511</ele>
        <time>2012-02-24T08:50:50.000Z</time>
      </trkpt>
      <trkpt lat="45.43202" lon="4.24447">
        <ele>510.39999389648</ele>
        <time>2012-02-24T08:50:56.000Z</time>
      </trkpt>
      <trkpt lat="45.432" lon="4.2445">
        <ele>510.39999389648</ele>
        <time>2012-02-24T08:50:58.000Z</time>
      </trkpt>
      <trkpt lat="45.43192" lon="4.24459">
        <ele>510.20001220703</ele>
        <time>2012-02-24T08:51:05.000Z</time>
      </trkpt>
      <trkpt lat="45.43183" lon="4.24464">
        <ele>511.39999389648</ele>
        <time>2012-02-24T08:51:12.000Z</time>
      </trkpt>
      <trkpt lat="45.4318" lon="4.24464">
        <ele>512</ele>
        <time>2012-02-24T08:51:14.000Z</time>
      </trkpt>
      <trkpt lat="45.43175" lon="4.24464">
        <ele>513.20001220703</ele>
        <time>2012-02-24T08:51:19.000Z</time>
      </trkpt>
      <trkpt lat="45.43169" lon="4.24462">
        <ele>515</ele>
        <time>2012-02-24T08:51:25.000Z</time>
      </trkpt>
      <trkpt lat="45.43168" lon="4.24456">
        <ele>517</ele>
        <time>2012-02-24T08:51:32.000Z</time>
      </trkpt>
      <trkpt lat="45.4317" lon="4.24449">
        <ele>518</ele>
        <time>2012-02-24T08:51:38.000Z</time>
      </trkpt>
      <trkpt lat="45.43173" lon="4.24441">
        <ele>519.20001220703</ele>
        <time>2012-02-24T08:51:46.000Z</time>
      </trkpt>
      <trkpt lat="45.43176" lon="4.24437">
        <ele>519.20001220703</ele>
        <time>2012-02-24T08:51:49.000Z</time>
      </trkpt>
      <trkpt lat="45.43179" lon="4.24432">
        <ele>519.59997558594</ele>
        <time>2012-02-24T08:51:53.000Z</time>
      </trkpt>
      <trkpt lat="45.43182" lon="4.24423">
        <ele>520.79998779297</ele>
        <time>2012-02-24T08:52:00.000Z</time>
      </trkpt>
      <trkpt lat="45.43183" lon="4.2441">
        <ele>523.40002441406</ele>
        <time>2012-02-24T08:52:08.000Z</time>
      </trkpt>
      <trkpt lat="45.43182" lon="4.24401">
        <ele>525.40002441406</ele>
        <time>2012-02-24T08:52:12.000Z</time>
      </trkpt>
      <trkpt lat="45.43182" lon="4.24397">
        <ele>526.20001220703</ele>
        <time>2012-02-24T08:52:14.000Z</time>
      </trkpt>
      <trkpt lat="45.43183" lon="4.24391">
        <ele>527</ele>
        <time>2012-02-24T08:52:18.000Z</time>
      </trkpt>
      <trkpt lat="45.43181" lon="4.2438">
        <ele>529.40002441406</ele>
        <time>2012-02-24T08:52:24.000Z</time>
      </trkpt>
      <trkpt lat="45.43181" lon="4.24378">
        <ele>529.79998779297</ele>
        <time>2012-02-24T08:52:25.000Z</time>
      </trkpt>
      <trkpt lat="45.43181" lon="4.24364">
        <ele>532.79998779297</ele>
        <time>2012-02-24T08:52:33.000Z</time>
      </trkpt>
      <trkpt lat="45.43178" lon="4.24349">
        <ele>536.20001220703</ele>
        <time>2012-02-24T08:52:40.000Z</time>
      </trkpt>
      <trkpt lat="45.43179" lon="4.24339">
        <ele>538.20001220703</ele>
        <time>2012-02-24T08:52:45.000Z</time>
      </trkpt>
      <trkpt lat="45.43178" lon="4.24335">
        <ele>539</ele>
        <time>2012-02-24T08:52:47.000Z</time>
      </trkpt>
      <trkpt lat="45.43179" lon="4.2433">
        <ele>539.59997558594</ele>
        <time>2012-02-24T08:52:50.000Z</time>
      </trkpt>
      <trkpt lat="45.4318" lon="4.24324">
        <ele>540.79998779297</ele>
        <time>2012-02-24T08:52:54.000Z</time>
      </trkpt>
      <trkpt lat="45.43176" lon="4.24316">
        <ele>543.79998779297</ele>
        <time>2012-02-24T08:52:59.000Z</time>
      </trkpt>
      <trkpt lat="45.43172" lon="4.24318">
        <ele>544.79998779297</ele>
        <time>2012-02-24T08:53:04.000Z</time>
      </trkpt>
      <trkpt lat="45.43172" lon="4.24324">
        <ele>543.79998779297</ele>
        <time>2012-02-24T08:53:10.000Z</time>
      </trkpt>
      <trkpt lat="45.43168" lon="4.24332">
        <ele>543.79998779297</ele>
        <time>2012-02-24T08:53:16.000Z</time>
      </trkpt>
      <trkpt lat="45.43165" lon="4.24337">
        <ele>543.40002441406</ele>
        <time>2012-02-24T08:53:21.000Z</time>
      </trkpt>
      <trkpt lat="45.43161" lon="4.24348">
        <ele>541.20001220703</ele>
        <time>2012-02-24T08:53:28.000Z</time>
      </trkpt>
      <trkpt lat="45.4316" lon="4.24352">
        <ele>540.40002441406</ele>
        <time>2012-02-24T08:53:30.000Z</time>
      </trkpt>
      <trkpt lat="45.43157" lon="4.24363">
        <ele>537.79998779297</ele>
        <time>2012-02-24T08:53:39.000Z</time>
      </trkpt>
      <trkpt lat="45.43157" lon="4.2437">
        <ele>536.40002441406</ele>
        <time>2012-02-24T08:53:44.000Z</time>
      </trkpt>
      <trkpt lat="45.43157" lon="4.24368">
        <ele>536.79998779297</ele>
        <time>2012-02-24T08:53:49.000Z</time>
      </trkpt>
      <trkpt lat="45.43157" lon="4.24366">
        <ele>537.20001220703</ele>
        <time>2012-02-24T08:53:52.000Z</time>
      </trkpt>
      <trkpt lat="45.43157" lon="4.24357">
        <ele>539.20001220703</ele>
        <time>2012-02-24T08:54:45.000Z</time>
      </trkpt>
      <trkpt lat="45.43162" lon="4.24348">
        <ele>541.20001220703</ele>
        <time>2012-02-24T08:54:50.000Z</time>
      </trkpt>
      <trkpt lat="45.43167" lon="4.24337">
        <ele>543.20001220703</ele>
        <time>2012-02-24T08:54:55.000Z</time>
      </trkpt>
      <trkpt lat="45.4317" lon="4.24328">
        <ele>543.59997558594</ele>
        <time>2012-02-24T08:55:00.000Z</time>
      </trkpt>
      <trkpt lat="45.43171" lon="4.24322">
        <ele>544.40002441406</ele>
        <time>2012-02-24T08:55:04.000Z</time>
      </trkpt>
      <trkpt lat="45.43171" lon="4.24314">
        <ele>545.79998779297</ele>
        <time>2012-02-24T08:55:07.000Z</time>
      </trkpt>
      <trkpt lat="45.43177" lon="4.24302">
        <ele>546</ele>
        <time>2012-02-24T08:55:13.000Z</time>
      </trkpt>
      <trkpt lat="45.43181" lon="4.24298">
        <ele>545.20001220703</ele>
        <time>2012-02-24T08:55:16.000Z</time>
      </trkpt>
      <trkpt lat="45.43191" lon="4.24291">
        <ele>542.79998779297</ele>
        <time>2012-02-24T08:55:22.000Z</time>
      </trkpt>
      <trkpt lat="45.43197" lon="4.24283">
        <ele>542.20001220703</ele>
        <time>2012-02-24T08:55:27.000Z</time>
      </trkpt>
      <trkpt lat="45.43202" lon="4.24282">
        <ele>540.79998779297</ele>
        <time>2012-02-24T08:55:31.000Z</time>
      </trkpt>
      <trkpt lat="45.43205" lon="4.2428">
        <ele>540</ele>
        <time>2012-02-24T08:55:35.000Z</time>
      </trkpt>
      <trkpt lat="45.43212" lon="4.24272">
        <ele>539</ele>
        <time>2012-02-24T08:55:40.000Z</time>
      </trkpt>
      <trkpt lat="45.43217" lon="4.2427">
        <ele>537.79998779297</ele>
        <time>2012-02-24T08:55:42.000Z</time>
      </trkpt>
      <trkpt lat="45.43224" lon="4.24265">
        <ele>536.20001220703</ele>
        <time>2012-02-24T08:55:48.000Z</time>
      </trkpt>
      <trkpt lat="45.43232" lon="4.2426">
        <ele>534.40002441406</ele>
        <time>2012-02-24T08:55:51.000Z</time>
      </trkpt>
      <trkpt lat="45.43247" lon="4.24258">
        <ele>529.20001220703</ele>
        <time>2012-02-24T08:55:57.000Z</time>
      </trkpt>
      <trkpt lat="45.43257" lon="4.24257">
        <ele>526</ele>
        <time>2012-02-24T08:56:02.000Z</time>
      </trkpt>
      <trkpt lat="45.43265" lon="4.24255">
        <ele>523</ele>
        <time>2012-02-24T08:56:06.000Z</time>
      </trkpt>
      <trkpt lat="45.43271" lon="4.24253">
        <ele>521.40002441406</ele>
        <time>2012-02-24T08:56:09.000Z</time>
      </trkpt>
      <trkpt lat="45.43281" lon="4.24251">
        <ele>518</ele>
        <time>2012-02-24T08:56:14.000Z</time>
      </trkpt>
      <trkpt lat="45.43293" lon="4.24247">
        <ele>513.79998779297</ele>
        <time>2012-02-24T08:56:20.000Z</time>
      </trkpt>
      <trkpt lat="45.43304" lon="4.24242">
        <ele>509.79998779297</ele>
        <time>2012-02-24T08:56:25.000Z</time>
      </trkpt>
      <trkpt lat="45.43306" lon="4.24239">
        <ele>509</ele>
        <time>2012-02-24T08:56:27.000Z</time>
      </trkpt>
      <trkpt lat="45.43306" lon="4.24235">
        <ele>509.20001220703</ele>
        <time>2012-02-24T08:56:31.000Z</time>
      </trkpt>
      <trkpt lat="45.43301" lon="4.24227">
        <ele>512</ele>
        <time>2012-02-24T08:56:39.000Z</time>
      </trkpt>
      <trkpt lat="45.43295" lon="4.24221">
        <ele>514.59997558594</ele>
        <time>2012-02-24T08:56:46.000Z</time>
      </trkpt>
      <trkpt lat="45.43293" lon="4.24218">
        <ele>516</ele>
        <time>2012-02-24T08:56:52.000Z</time>
      </trkpt>
      <trkpt lat="45.43288" lon="4.24213">
        <ele>518.40002441406</ele>
        <time>2012-02-24T08:56:58.000Z</time>
      </trkpt>
      <trkpt lat="45.43284" lon="4.24209">
        <ele>520.79998779297</ele>
        <time>2012-02-24T08:57:04.000Z</time>
      </trkpt>
      <trkpt lat="45.43278" lon="4.24205">
        <ele>524</ele>
        <time>2012-02-24T08:57:12.000Z</time>
      </trkpt>
      <trkpt lat="45.43272" lon="4.24202">
        <ele>526.79998779297</ele>
        <time>2012-02-24T08:57:18.000Z</time>
      </trkpt>
      <trkpt lat="45.43268" lon="4.24201">
        <ele>529.20001220703</ele>
        <time>2012-02-24T08:57:23.000Z</time>
      </trkpt>
      <trkpt lat="45.43262" lon="4.242">
        <ele>531.79998779297</ele>
        <time>2012-02-24T08:57:30.000Z</time>
      </trkpt>
      <trkpt lat="45.43258" lon="4.24197">
        <ele>534.59997558594</ele>
        <time>2012-02-24T08:57:36.000Z</time>
      </trkpt>
      <trkpt lat="45.43255" lon="4.24197">
        <ele>536</ele>
        <time>2012-02-24T08:57:42.000Z</time>
      </trkpt>
      <trkpt lat="45.43253" lon="4.24195">
        <ele>537.20001220703</ele>
        <time>2012-02-24T08:57:47.000Z</time>
      </trkpt>
      <trkpt lat="45.43234" lon="4.24184">
        <ele>546</ele>
        <time>2012-02-24T08:58:21.000Z</time>
      </trkpt>
      <trkpt lat="45.43232" lon="4.24183">
        <ele>547</ele>
        <time>2012-02-24T08:58:22.000Z</time>
      </trkpt>
      <trkpt lat="45.43229" lon="4.24181">
        <ele>548.40002441406</ele>
        <time>2012-02-24T08:58:25.000Z</time>
      </trkpt>
      <trkpt lat="45.43224" lon="4.24177">
        <ele>550.59997558594</ele>
        <time>2012-02-24T08:58:33.000Z</time>
      </trkpt>
      <trkpt lat="45.43224" lon="4.24177">
        <ele>551</ele>
        <time>2012-02-24T08:58:35.000Z</time>
      </trkpt>
      <trkpt lat="45.43143" lon="4.24149">
        <ele>577.59997558594</ele>
        <time>2012-02-24T09:00:55.000Z</time>
      </trkpt>
      <trkpt lat="45.43137" lon="4.24144">
        <ele>579</ele>
        <time>2012-02-24T09:01:03.000Z</time>
      </trkpt>
      <trkpt lat="45.43133" lon="4.24148">
        <ele>580.20001220703</ele>
        <time>2012-02-24T09:01:08.000Z</time>
      </trkpt>
      <trkpt lat="45.43133" lon="4.24148">
        <ele>580.20001220703</ele>
        <time>2012-02-24T09:01:09.000Z</time>
      </trkpt>
      <trkpt lat="45.43107" lon="4.24151">
        <ele>587.20001220703</ele>
        <time>2012-02-24T09:01:59.000Z</time>
      </trkpt>
      <trkpt lat="45.43104" lon="4.24157">
        <ele>588.20001220703</ele>
        <time>2012-02-24T09:02:02.000Z</time>
      </trkpt>
      <trkpt lat="45.43095" lon="4.24168">
        <ele>590.79998779297</ele>
        <time>2012-02-24T09:02:08.000Z</time>
      </trkpt>
      <trkpt lat="45.43089" lon="4.24172">
        <ele>591.20001220703</ele>
        <time>2012-02-24T09:02:11.000Z</time>
      </trkpt>
      <trkpt lat="45.43082" lon="4.2418">
        <ele>590.59997558594</ele>
        <time>2012-02-24T09:02:15.000Z</time>
      </trkpt>
      <trkpt lat="45.43073" lon="4.24189">
        <ele>590</ele>
        <time>2012-02-24T09:02:20.000Z</time>
      </trkpt>
      <trkpt lat="45.43062" lon="4.24197">
        <ele>589.59997558594</ele>
        <time>2012-02-24T09:02:25.000Z</time>
      </trkpt>
      <trkpt lat="45.43055" lon="4.24203">
        <ele>589.20001220703</ele>
        <time>2012-02-24T09:02:29.000Z</time>
      </trkpt>
      <trkpt lat="45.43048" lon="4.24208">
        <ele>589</ele>
        <time>2012-02-24T09:02:32.000Z</time>
      </trkpt>
      <trkpt lat="45.43034" lon="4.24214">
        <ele>589.59997558594</ele>
        <time>2012-02-24T09:02:39.000Z</time>
      </trkpt>
      <trkpt lat="45.4303" lon="4.24218">
        <ele>589.20001220703</ele>
        <time>2012-02-24T09:02:41.000Z</time>
      </trkpt>
      <trkpt lat="45.43017" lon="4.24227">
        <ele>588.59997558594</ele>
        <time>2012-02-24T09:02:47.000Z</time>
      </trkpt>
      <trkpt lat="45.43007" lon="4.24232">
        <ele>588.79998779297</ele>
        <time>2012-02-24T09:02:52.000Z</time>
      </trkpt>
      <trkpt lat="45.43001" lon="4.24237">
        <ele>588.40002441406</ele>
        <time>2012-02-24T09:02:55.000Z</time>
      </trkpt>
      <trkpt lat="45.42985" lon="4.24245">
        <ele>585</ele>
        <time>2012-02-24T09:03:02.000Z</time>
      </trkpt>
      <trkpt lat="45.42975" lon="4.2425">
        <ele>582.59997558594</ele>
        <time>2012-02-24T09:03:06.000Z</time>
      </trkpt>
      <trkpt lat="45.42966" lon="4.2425">
        <ele>581.59997558594</ele>
        <time>2012-02-24T09:03:10.000Z</time>
      </trkpt>
      <trkpt lat="45.42955" lon="4.24249">
        <ele>580.79998779297</ele>
        <time>2012-02-24T09:03:15.000Z</time>
      </trkpt>
      <trkpt lat="45.42939" lon="4.24242">
        <ele>581.20001220703</ele>
        <time>2012-02-24T09:03:22.000Z</time>
      </trkpt>
      <trkpt lat="45.42929" lon="4.24231">
        <ele>583</ele>
        <time>2012-02-24T09:03:27.000Z</time>
      </trkpt>
      <trkpt lat="45.42918" lon="4.24224">
        <ele>583.79998779297</ele>
        <time>2012-02-24T09:03:31.000Z</time>
      </trkpt>
      <trkpt lat="45.42909" lon="4.24214">
        <ele>584.40002441406</ele>
        <time>2012-02-24T09:03:36.000Z</time>
      </trkpt>
      <trkpt lat="45.42906" lon="4.24209">
        <ele>584.79998779297</ele>
        <time>2012-02-24T09:03:38.000Z</time>
      </trkpt>
      <trkpt lat="45.42898" lon="4.24198">
        <ele>585.79998779297</ele>
        <time>2012-02-24T09:03:43.000Z</time>
      </trkpt>
      <trkpt lat="45.42889" lon="4.24185">
        <ele>587</ele>
        <time>2012-02-24T09:03:48.000Z</time>
      </trkpt>
      <trkpt lat="45.42884" lon="4.24177">
        <ele>588</ele>
        <time>2012-02-24T09:03:52.000Z</time>
      </trkpt>
      <trkpt lat="45.42868" lon="4.24167">
        <ele>587.20001220703</ele>
        <time>2012-02-24T09:03:59.000Z</time>
      </trkpt>
      <trkpt lat="45.42856" lon="4.24164">
        <ele>585.79998779297</ele>
        <time>2012-02-24T09:04:04.000Z</time>
      </trkpt>
      <trkpt lat="45.42844" lon="4.2416">
        <ele>584.59997558594</ele>
        <time>2012-02-24T09:04:09.000Z</time>
      </trkpt>
      <trkpt lat="45.42833" lon="4.24157">
        <ele>583.59997558594</ele>
        <time>2012-02-24T09:04:14.000Z</time>
      </trkpt>
      <trkpt lat="45.42823" lon="4.24152">
        <ele>584.40002441406</ele>
        <time>2012-02-24T09:04:18.000Z</time>
      </trkpt>
      <trkpt lat="45.42811" lon="4.24152">
        <ele>583.40002441406</ele>
        <time>2012-02-24T09:04:23.000Z</time>
      </trkpt>
      <trkpt lat="45.42797" lon="4.2415">
        <ele>582.59997558594</ele>
        <time>2012-02-24T09:04:28.000Z</time>
      </trkpt>
      <trkpt lat="45.42783" lon="4.24151">
        <ele>580.59997558594</ele>
        <time>2012-02-24T09:04:33.000Z</time>
      </trkpt>
      <trkpt lat="45.42767" lon="4.24155">
        <ele>578</ele>
        <time>2012-02-24T09:04:39.000Z</time>
      </trkpt>
      <trkpt lat="45.42755" lon="4.24159">
        <ele>575.59997558594</ele>
        <time>2012-02-24T09:04:45.000Z</time>
      </trkpt>
      <trkpt lat="45.42751" lon="4.24163">
        <ele>574.20001220703</ele>
        <time>2012-02-24T09:04:49.000Z</time>
      </trkpt>
      <trkpt lat="45.42741" lon="4.24161">
        <ele>574</ele>
        <time>2012-02-24T09:04:56.000Z</time>
      </trkpt>
      <trkpt lat="45.42737" lon="4.24162">
        <ele>573.40002441406</ele>
        <time>2012-02-24T09:04:59.000Z</time>
      </trkpt>
      <trkpt lat="45.42729" lon="4.24163">
        <ele>572.59997558594</ele>
        <time>2012-02-24T09:05:07.000Z</time>
      </trkpt>
      <trkpt lat="45.42727" lon="4.24164">
        <ele>572.20001220703</ele>
        <time>2012-02-24T09:05:09.000Z</time>
      </trkpt>
      <trkpt lat="45.42729" lon="4.24167">
        <ele>571.59997558594</ele>
        <time>2012-02-24T09:05:15.000Z</time>
      </trkpt>
      <trkpt lat="45.4273" lon="4.24166">
        <ele>572</ele>
        <time>2012-02-24T09:05:16.000Z</time>
      </trkpt>
      <trkpt lat="45.42731" lon="4.24163">
        <ele>572.59997558594</ele>
        <time>2012-02-24T09:05:20.000Z</time>
      </trkpt>
      <trkpt lat="45.42703" lon="4.24164">
        <ele>570.59997558594</ele>
        <time>2012-02-24T09:07:41.000Z</time>
      </trkpt>
      <trkpt lat="45.42692" lon="4.24165">
        <ele>569.79998779297</ele>
        <time>2012-02-24T09:07:49.000Z</time>
      </trkpt>
      <trkpt lat="45.42682" lon="4.24168">
        <ele>568.79998779297</ele>
        <time>2012-02-24T09:07:58.000Z</time>
      </trkpt>
      <trkpt lat="45.42678" lon="4.24169">
        <ele>568.40002441406</ele>
        <time>2012-02-24T09:08:04.000Z</time>
      </trkpt>
      <trkpt lat="45.42678" lon="4.24169">
        <ele>568.40002441406</ele>
        <time>2012-02-24T09:08:06.000Z</time>
      </trkpt>
      <trkpt lat="45.42685" lon="4.24147">
        <ele>572</ele>
        <time>2012-02-24T09:09:58.000Z</time>
      </trkpt>
      <trkpt lat="45.42677" lon="4.24139">
        <ele>572.20001220703</ele>
        <time>2012-02-24T09:10:03.000Z</time>
      </trkpt>
      <trkpt lat="45.42672" lon="4.24127">
        <ele>573</ele>
        <time>2012-02-24T09:10:07.000Z</time>
      </trkpt>
      <trkpt lat="45.42668" lon="4.24115">
        <ele>573.79998779297</ele>
        <time>2012-02-24T09:10:12.000Z</time>
      </trkpt>
      <trkpt lat="45.42664" lon="4.241">
        <ele>574.79998779297</ele>
        <time>2012-02-24T09:10:17.000Z</time>
      </trkpt>
      <trkpt lat="45.42661" lon="4.24087">
        <ele>575.40002441406</ele>
        <time>2012-02-24T09:10:21.000Z</time>
      </trkpt>
      <trkpt lat="45.42657" lon="4.24072">
        <ele>576.59997558594</ele>
        <time>2012-02-24T09:10:26.000Z</time>
      </trkpt>
      <trkpt lat="45.42656" lon="4.24069">
        <ele>576.79998779297</ele>
        <time>2012-02-24T09:10:27.000Z</time>
      </trkpt>
      <trkpt lat="45.42659" lon="4.24056">
        <ele>579.20001220703</ele>
        <time>2012-02-24T09:10:32.000Z</time>
      </trkpt>
      <trkpt lat="45.42665" lon="4.24049">
        <ele>581.20001220703</ele>
        <time>2012-02-24T09:10:36.000Z</time>
      </trkpt>
      <trkpt lat="45.42666" lon="4.24047">
        <ele>581.59997558594</ele>
        <time>2012-02-24T09:10:37.000Z</time>
      </trkpt>
      <trkpt lat="45.42668" lon="4.24042">
        <ele>582.59997558594</ele>
        <time>2012-02-24T09:10:39.000Z</time>
      </trkpt>
      <trkpt lat="45.42667" lon="4.24027">
        <ele>584.59997558594</ele>
        <time>2012-02-24T09:10:45.000Z</time>
      </trkpt>
      <trkpt lat="45.42664" lon="4.24007">
        <ele>586.59997558594</ele>
        <time>2012-02-24T09:10:53.000Z</time>
      </trkpt>
      <trkpt lat="45.42661" lon="4.23992">
        <ele>588.59997558594</ele>
        <time>2012-02-24T09:10:59.000Z</time>
      </trkpt>
      <trkpt lat="45.42658" lon="4.23977">
        <ele>590.79998779297</ele>
        <time>2012-02-24T09:11:05.000Z</time>
      </trkpt>
      <trkpt lat="45.42655" lon="4.23966">
        <ele>592.20001220703</ele>
        <time>2012-02-24T09:11:10.000Z</time>
      </trkpt>
      <trkpt lat="45.42649" lon="4.23956">
        <ele>593.40002441406</ele>
        <time>2012-02-24T09:11:16.000Z</time>
      </trkpt>
      <trkpt lat="45.42643" lon="4.2395">
        <ele>593.79998779297</ele>
        <time>2012-02-24T09:11:20.000Z</time>
      </trkpt>
      <trkpt lat="45.42641" lon="4.23948">
        <ele>594</ele>
        <time>2012-02-24T09:11:24.000Z</time>
      </trkpt>
      <trkpt lat="45.42636" lon="4.23942">
        <ele>594.59997558594</ele>
        <time>2012-02-24T09:12:22.000Z</time>
      </trkpt>
      <trkpt lat="45.42638" lon="4.23931">
        <ele>597</ele>
        <time>2012-02-24T09:12:25.000Z</time>
      </trkpt>
      <trkpt lat="45.42644" lon="4.23926">
        <ele>598.59997558594</ele>
        <time>2012-02-24T09:12:29.000Z</time>
      </trkpt>
      <trkpt lat="45.42648" lon="4.23925">
        <ele>599</ele>
        <time>2012-02-24T09:12:31.000Z</time>
      </trkpt>
      <trkpt lat="45.42663" lon="4.23934">
        <ele>598.79998779297</ele>
        <time>2012-02-24T09:12:41.000Z</time>
      </trkpt>
      <trkpt lat="45.4267" lon="4.23939">
        <ele>599</ele>
        <time>2012-02-24T09:12:46.000Z</time>
      </trkpt>
      <trkpt lat="45.42677" lon="4.23943">
        <ele>600.20001220703</ele>
        <time>2012-02-24T09:12:51.000Z</time>
      </trkpt>
      <trkpt lat="45.42679" lon="4.23944">
        <ele>600.79998779297</ele>
        <time>2012-02-24T09:12:52.000Z</time>
      </trkpt>
      <trkpt lat="45.42689" lon="4.23954">
        <ele>601.79998779297</ele>
        <time>2012-02-24T09:12:59.000Z</time>
      </trkpt>
      <trkpt lat="45.42695" lon="4.23967">
        <ele>601.59997558594</ele>
        <time>2012-02-24T09:13:06.000Z</time>
      </trkpt>
      <trkpt lat="45.42702" lon="4.23978">
        <ele>602.20001220703</ele>
        <time>2012-02-24T09:13:12.000Z</time>
      </trkpt>
      <trkpt lat="45.42704" lon="4.23981">
        <ele>602.20001220703</ele>
        <time>2012-02-24T09:13:14.000Z</time>
      </trkpt>
      <trkpt lat="45.42713" lon="4.23983">
        <ele>605</ele>
        <time>2012-02-24T09:13:21.000Z</time>
      </trkpt>
      <trkpt lat="45.42718" lon="4.23973">
        <ele>607.59997558594</ele>
        <time>2012-02-24T09:13:27.000Z</time>
      </trkpt>
      <trkpt lat="45.42722" lon="4.23959">
        <ele>610.20001220703</ele>
        <time>2012-02-24T09:13:34.000Z</time>
      </trkpt>
      <trkpt lat="45.42722" lon="4.23947">
        <ele>611.59997558594</ele>
        <time>2012-02-24T09:13:41.000Z</time>
      </trkpt>
      <trkpt lat="45.42723" lon="4.23944">
        <ele>612</ele>
        <time>2012-02-24T09:13:43.000Z</time>
      </trkpt>
      <trkpt lat="45.42723" lon="4.23937">
        <ele>612.59997558594</ele>
        <time>2012-02-24T09:13:47.000Z</time>
      </trkpt>
      <trkpt lat="45.42723" lon="4.23933">
        <ele>613.20001220703</ele>
        <time>2012-02-24T09:13:49.000Z</time>
      </trkpt>
      <trkpt lat="45.42722" lon="4.23922">
        <ele>614.20001220703</ele>
        <time>2012-02-24T09:13:56.000Z</time>
      </trkpt>
      <trkpt lat="45.42723" lon="4.2391">
        <ele>616</ele>
        <time>2012-02-24T09:14:03.000Z</time>
      </trkpt>
      <trkpt lat="45.42723" lon="4.23903">
        <ele>617</ele>
        <time>2012-02-24T09:14:07.000Z</time>
      </trkpt>
      <trkpt lat="45.42722" lon="4.23889">
        <ele>619</ele>
        <time>2012-02-24T09:14:15.000Z</time>
      </trkpt>
      <trkpt lat="45.42722" lon="4.23882">
        <ele>620.20001220703</ele>
        <time>2012-02-24T09:14:19.000Z</time>
      </trkpt>
      <trkpt lat="45.42724" lon="4.23866">
        <ele>623</ele>
        <time>2012-02-24T09:14:28.000Z</time>
      </trkpt>
      <trkpt lat="45.42728" lon="4.23849">
        <ele>626</ele>
        <time>2012-02-24T09:14:37.000Z</time>
      </trkpt>
      <trkpt lat="45.42731" lon="4.23837">
        <ele>628.20001220703</ele>
        <time>2012-02-24T09:14:44.000Z</time>
      </trkpt>
      <trkpt lat="45.42737" lon="4.23823">
        <ele>630.40002441406</ele>
        <time>2012-02-24T09:14:53.000Z</time>
      </trkpt>
      <trkpt lat="45.42742" lon="4.23814">
        <ele>631.79998779297</ele>
        <time>2012-02-24T09:15:00.000Z</time>
      </trkpt>
      <trkpt lat="45.42746" lon="4.23805">
        <ele>633.20001220703</ele>
        <time>2012-02-24T09:15:06.000Z</time>
      </trkpt>
      <trkpt lat="45.42752" lon="4.23798">
        <ele>634.20001220703</ele>
        <time>2012-02-24T09:15:13.000Z</time>
      </trkpt>
      <trkpt lat="45.42756" lon="4.23795">
        <ele>634.59997558594</ele>
        <time>2012-02-24T09:15:17.000Z</time>
      </trkpt>
      <trkpt lat="45.42763" lon="4.23788">
        <ele>635</ele>
        <time>2012-02-24T09:15:25.000Z</time>
      </trkpt>
      <trkpt lat="45.42763" lon="4.23787">
        <ele>635.20001220703</ele>
        <time>2012-02-24T09:15:26.000Z</time>
      </trkpt>
      <trkpt lat="45.42764" lon="4.23781">
        <ele>635.79998779297</ele>
        <time>2012-02-24T09:15:30.000Z</time>
      </trkpt>
      <trkpt lat="45.42765" lon="4.23771">
        <ele>636.79998779297</ele>
        <time>2012-02-24T09:15:39.000Z</time>
      </trkpt>
      <trkpt lat="45.42758" lon="4.23757">
        <ele>638.59997558594</ele>
        <time>2012-02-24T09:16:09.000Z</time>
      </trkpt>
      <trkpt lat="45.42756" lon="4.23749">
        <ele>639.59997558594</ele>
        <time>2012-02-24T09:16:13.000Z</time>
      </trkpt>
      <trkpt lat="45.42755" lon="4.23743">
        <ele>640.20001220703</ele>
        <time>2012-02-24T09:16:18.000Z</time>
      </trkpt>
      <trkpt lat="45.42754" lon="4.23741">
        <ele>640.40002441406</ele>
        <time>2012-02-24T09:16:20.000Z</time>
      </trkpt>
      <trkpt lat="45.42752" lon="4.23731">
        <ele>641.20001220703</ele>
        <time>2012-02-24T09:16:26.000Z</time>
      </trkpt>
      <trkpt lat="45.42751" lon="4.23728">
        <ele>641.40002441406</ele>
        <time>2012-02-24T09:16:28.000Z</time>
      </trkpt>
      <trkpt lat="45.42748" lon="4.2372">
        <ele>642.20001220703</ele>
        <time>2012-02-24T09:16:35.000Z</time>
      </trkpt>
      <trkpt lat="45.42745" lon="4.23716">
        <ele>642.40002441406</ele>
        <time>2012-02-24T09:16:38.000Z</time>
      </trkpt>
      <trkpt lat="45.4274" lon="4.2371">
        <ele>643</ele>
        <time>2012-02-24T09:16:42.000Z</time>
      </trkpt>
      <trkpt lat="45.42729" lon="4.237">
        <ele>643.79998779297</ele>
        <time>2012-02-24T09:16:48.000Z</time>
      </trkpt>
      <trkpt lat="45.42727" lon="4.23696">
        <ele>644.20001220703</ele>
        <time>2012-02-24T09:16:50.000Z</time>
      </trkpt>
      <trkpt lat="45.4272" lon="4.23691">
        <ele>644.79998779297</ele>
        <time>2012-02-24T09:16:55.000Z</time>
      </trkpt>
      <trkpt lat="45.42715" lon="4.23687">
        <ele>645.20001220703</ele>
        <time>2012-02-24T09:16:59.000Z</time>
      </trkpt>
      <trkpt lat="45.42708" lon="4.23678">
        <ele>646</ele>
        <time>2012-02-24T09:17:05.000Z</time>
      </trkpt>
      <trkpt lat="45.42699" lon="4.23669">
        <ele>647</ele>
        <time>2012-02-24T09:17:11.000Z</time>
      </trkpt>
      <trkpt lat="45.42689" lon="4.23658">
        <ele>648.40002441406</ele>
        <time>2012-02-24T09:17:18.000Z</time>
      </trkpt>
      <trkpt lat="45.4268" lon="4.23645">
        <ele>650.40002441406</ele>
        <time>2012-02-24T09:17:25.000Z</time>
      </trkpt>
      <trkpt lat="45.42676" lon="4.23635">
        <ele>651.79998779297</ele>
        <time>2012-02-24T09:17:30.000Z</time>
      </trkpt>
      <trkpt lat="45.42674" lon="4.2363">
        <ele>652.59997558594</ele>
        <time>2012-02-24T09:17:33.000Z</time>
      </trkpt>
      <trkpt lat="45.42668" lon="4.23615">
        <ele>654.59997558594</ele>
        <time>2012-02-24T09:17:40.000Z</time>
      </trkpt>
      <trkpt lat="45.42666" lon="4.23606">
        <ele>656</ele>
        <time>2012-02-24T09:17:45.000Z</time>
      </trkpt>
      <trkpt lat="45.42663" lon="4.23595">
        <ele>657.40002441406</ele>
        <time>2012-02-24T09:17:50.000Z</time>
      </trkpt>
      <trkpt lat="45.42662" lon="4.23585">
        <ele>658.79998779297</ele>
        <time>2012-02-24T09:17:55.000Z</time>
      </trkpt>
      <trkpt lat="45.4266" lon="4.23572">
        <ele>660.59997558594</ele>
        <time>2012-02-24T09:18:02.000Z</time>
      </trkpt>
      <trkpt lat="45.42658" lon="4.23558">
        <ele>662.59997558594</ele>
        <time>2012-02-24T09:18:11.000Z</time>
      </trkpt>
      <trkpt lat="45.42653" lon="4.23548">
        <ele>664.20001220703</ele>
        <time>2012-02-24T09:18:17.000Z</time>
      </trkpt>
      <trkpt lat="45.42651" lon="4.23536">
        <ele>666</ele>
        <time>2012-02-24T09:18:24.000Z</time>
      </trkpt>
      <trkpt lat="45.42649" lon="4.23531">
        <ele>666.79998779297</ele>
        <time>2012-02-24T09:18:28.000Z</time>
      </trkpt>
      <trkpt lat="45.42646" lon="4.23523">
        <ele>668.20001220703</ele>
        <time>2012-02-24T09:18:34.000Z</time>
      </trkpt>
      <trkpt lat="45.42643" lon="4.23518">
        <ele>669</ele>
        <time>2012-02-24T09:18:38.000Z</time>
      </trkpt>
      <trkpt lat="45.42639" lon="4.23513">
        <ele>670</ele>
        <time>2012-02-24T09:18:43.000Z</time>
      </trkpt>
      <trkpt lat="45.42636" lon="4.23509">
        <ele>670.79998779297</ele>
        <time>2012-02-24T09:18:46.000Z</time>
      </trkpt>
      <trkpt lat="45.42632" lon="4.235">
        <ele>672.40002441406</ele>
        <time>2012-02-24T09:18:54.000Z</time>
      </trkpt>
      <trkpt lat="45.42628" lon="4.23494">
        <ele>673.59997558594</ele>
        <time>2012-02-24T09:19:01.000Z</time>
      </trkpt>
      <trkpt lat="45.42625" lon="4.23487">
        <ele>675</ele>
        <time>2012-02-24T09:19:08.000Z</time>
      </trkpt>
      <trkpt lat="45.42622" lon="4.23478">
        <ele>676.59997558594</ele>
        <time>2012-02-24T09:19:16.000Z</time>
      </trkpt>
      <trkpt lat="45.42619" lon="4.23471">
        <ele>677.79998779297</ele>
        <time>2012-02-24T09:19:23.000Z</time>
      </trkpt>
      <trkpt lat="45.42614" lon="4.23465">
        <ele>679.20001220703</ele>
        <time>2012-02-24T09:19:29.000Z</time>
      </trkpt>
      <trkpt lat="45.42607" lon="4.23456">
        <ele>681.20001220703</ele>
        <time>2012-02-24T09:19:37.000Z</time>
      </trkpt>
      <trkpt lat="45.42602" lon="4.23451">
        <ele>682.59997558594</ele>
        <time>2012-02-24T09:19:44.000Z</time>
      </trkpt>
      <trkpt lat="45.42598" lon="4.23444">
        <ele>684</ele>
        <time>2012-02-24T09:19:50.000Z</time>
      </trkpt>
      <trkpt lat="45.42597" lon="4.2344">
        <ele>684.79998779297</ele>
        <time>2012-02-24T09:19:52.000Z</time>
      </trkpt>
      <trkpt lat="45.42593" lon="4.23437">
        <ele>685.79998779297</ele>
        <time>2012-02-24T09:19:57.000Z</time>
      </trkpt>
      <trkpt lat="45.42588" lon="4.23434">
        <ele>686.59997558594</ele>
        <time>2012-02-24T09:20:02.000Z</time>
      </trkpt>
      <trkpt lat="45.42586" lon="4.23433">
        <ele>687</ele>
        <time>2012-02-24T09:20:04.000Z</time>
      </trkpt>
      <trkpt lat="45.42577" lon="4.23431">
        <ele>687.79998779297</ele>
        <time>2012-02-24T09:20:10.000Z</time>
      </trkpt>
      <trkpt lat="45.42567" lon="4.23425">
        <ele>689.20001220703</ele>
        <time>2012-02-24T09:20:20.000Z</time>
      </trkpt>
      <trkpt lat="45.4256" lon="4.23424">
        <ele>689.59997558594</ele>
        <time>2012-02-24T09:20:27.000Z</time>
      </trkpt>
      <trkpt lat="45.42556" lon="4.2342">
        <ele>690.40002441406</ele>
        <time>2012-02-24T09:20:34.000Z</time>
      </trkpt>
      <trkpt lat="45.42552" lon="4.23416">
        <ele>691.20001220703</ele>
        <time>2012-02-24T09:20:39.000Z</time>
      </trkpt>
      <trkpt lat="45.42548" lon="4.23414">
        <ele>691.59997558594</ele>
        <time>2012-02-24T09:20:43.000Z</time>
      </trkpt>
      <trkpt lat="45.42544" lon="4.23412">
        <ele>692</ele>
        <time>2012-02-24T09:20:49.000Z</time>
      </trkpt>
      <trkpt lat="45.42538" lon="4.23407">
        <ele>692.79998779297</ele>
        <time>2012-02-24T09:20:56.000Z</time>
      </trkpt>
      <trkpt lat="45.42534" lon="4.23405">
        <ele>693.20001220703</ele>
        <time>2012-02-24T09:21:01.000Z</time>
      </trkpt>
      <trkpt lat="45.4253" lon="4.23401">
        <ele>693.59997558594</ele>
        <time>2012-02-24T09:21:05.000Z</time>
      </trkpt>
      <trkpt lat="45.42526" lon="4.23397">
        <ele>694.20001220703</ele>
        <time>2012-02-24T09:21:12.000Z</time>
      </trkpt>
      <trkpt lat="45.42521" lon="4.23389">
        <ele>695.20001220703</ele>
        <time>2012-02-24T09:21:19.000Z</time>
      </trkpt>
      <trkpt lat="45.42516" lon="4.23383">
        <ele>696</ele>
        <time>2012-02-24T09:21:25.000Z</time>
      </trkpt>
      <trkpt lat="45.4251" lon="4.23375">
        <ele>696.79998779297</ele>
        <time>2012-02-24T09:21:32.000Z</time>
      </trkpt>
      <trkpt lat="45.42507" lon="4.2337">
        <ele>697.40002441406</ele>
        <time>2012-02-24T09:21:37.000Z</time>
      </trkpt>
      <trkpt lat="45.42503" lon="4.23362">
        <ele>698.20001220703</ele>
        <time>2012-02-24T09:21:44.000Z</time>
      </trkpt>
      <trkpt lat="45.42502" lon="4.23361">
        <ele>698.40002441406</ele>
        <time>2012-02-24T09:21:45.000Z</time>
      </trkpt>
      <trkpt lat="45.42497" lon="4.2335">
        <ele>699.40002441406</ele>
        <time>2012-02-24T09:21:53.000Z</time>
      </trkpt>
      <trkpt lat="45.42492" lon="4.23342">
        <ele>700.20001220703</ele>
        <time>2012-02-24T09:22:00.000Z</time>
      </trkpt>
      <trkpt lat="45.42485" lon="4.23333">
        <ele>701.20001220703</ele>
        <time>2012-02-24T09:22:09.000Z</time>
      </trkpt>
      <trkpt lat="45.42478" lon="4.23325">
        <ele>702.40002441406</ele>
        <time>2012-02-24T09:22:17.000Z</time>
      </trkpt>
      <trkpt lat="45.42474" lon="4.23322">
        <ele>703</ele>
        <time>2012-02-24T09:22:22.000Z</time>
      </trkpt>
      <trkpt lat="45.42471" lon="4.23318">
        <ele>703.79998779297</ele>
        <time>2012-02-24T09:22:26.000Z</time>
      </trkpt>
      <trkpt lat="45.42463" lon="4.23312">
        <ele>704.79998779297</ele>
        <time>2012-02-24T09:22:34.000Z</time>
      </trkpt>
      <trkpt lat="45.42461" lon="4.23309">
        <ele>705</ele>
        <time>2012-02-24T09:22:37.000Z</time>
      </trkpt>
      <trkpt lat="45.42455" lon="4.23305">
        <ele>705.59997558594</ele>
        <time>2012-02-24T09:22:44.000Z</time>
      </trkpt>
      <trkpt lat="45.42449" lon="4.23302">
        <ele>706</ele>
        <time>2012-02-24T09:22:50.000Z</time>
      </trkpt>
      <trkpt lat="45.42441" lon="4.23297">
        <ele>706.79998779297</ele>
        <time>2012-02-24T09:22:57.000Z</time>
      </trkpt>
      <trkpt lat="45.4244" lon="4.23296">
        <ele>707</ele>
        <time>2012-02-24T09:22:58.000Z</time>
      </trkpt>
      <trkpt lat="45.42435" lon="4.23288">
        <ele>708</ele>
        <time>2012-02-24T09:23:05.000Z</time>
      </trkpt>
      <trkpt lat="45.42433" lon="4.23285">
        <ele>708.40002441406</ele>
        <time>2012-02-24T09:23:08.000Z</time>
      </trkpt>
      <trkpt lat="45.42428" lon="4.23275">
        <ele>709.79998779297</ele>
        <time>2012-02-24T09:23:16.000Z</time>
      </trkpt>
      <trkpt lat="45.42428" lon="4.23274">
        <ele>709.79998779297</ele>
        <time>2012-02-24T09:23:17.000Z</time>
      </trkpt>
      <trkpt lat="45.42428" lon="4.23263">
        <ele>711.59997558594</ele>
        <time>2012-02-24T09:23:25.000Z</time>
      </trkpt>
      <trkpt lat="45.42429" lon="4.23262">
        <ele>711.79998779297</ele>
        <time>2012-02-24T09:23:26.000Z</time>
      </trkpt>
      <trkpt lat="45.42431" lon="4.23256">
        <ele>712.79998779297</ele>
        <time>2012-02-24T09:23:30.000Z</time>
      </trkpt>
      <trkpt lat="45.42436" lon="4.23246">
        <ele>714.20001220703</ele>
        <time>2012-02-24T09:23:38.000Z</time>
      </trkpt>
      <trkpt lat="45.42441" lon="4.23238">
        <ele>715</ele>
        <time>2012-02-24T09:23:45.000Z</time>
      </trkpt>
      <trkpt lat="45.42442" lon="4.2323">
        <ele>715.59997558594</ele>
        <time>2012-02-24T09:23:53.000Z</time>
      </trkpt>
      <trkpt lat="45.42441" lon="4.2322">
        <ele>716.20001220703</ele>
        <time>2012-02-24T09:23:59.000Z</time>
      </trkpt>
      <trkpt lat="45.4244" lon="4.23212">
        <ele>716.79998779297</ele>
        <time>2012-02-24T09:24:04.000Z</time>
      </trkpt>
      <trkpt lat="45.42441" lon="4.232">
        <ele>717.59997558594</ele>
        <time>2012-02-24T09:24:09.000Z</time>
      </trkpt>
      <trkpt lat="45.42445" lon="4.23184">
        <ele>718.79998779297</ele>
        <time>2012-02-24T09:24:15.000Z</time>
      </trkpt>
      <trkpt lat="45.42446" lon="4.23174">
        <ele>719.59997558594</ele>
        <time>2012-02-24T09:24:19.000Z</time>
      </trkpt>
      <trkpt lat="45.4245" lon="4.23159">
        <ele>720.20001220703</ele>
        <time>2012-02-24T09:24:25.000Z</time>
      </trkpt>
      <trkpt lat="45.42447" lon="4.23146">
        <ele>719.79998779297</ele>
        <time>2012-02-24T09:24:31.000Z</time>
      </trkpt>
      <trkpt lat="45.42445" lon="4.23142">
        <ele>719.59997558594</ele>
        <time>2012-02-24T09:24:33.000Z</time>
      </trkpt>
      <trkpt lat="45.42441" lon="4.23137">
        <ele>719.40002441406</ele>
        <time>2012-02-24T09:24:39.000Z</time>
      </trkpt>
      <trkpt lat="45.42438" lon="4.23132">
        <ele>719</ele>
        <time>2012-02-24T09:24:42.000Z</time>
      </trkpt>
      <trkpt lat="45.42432" lon="4.23124">
        <ele>718.79998779297</ele>
        <time>2012-02-24T09:24:49.000Z</time>
      </trkpt>
      <trkpt lat="45.4243" lon="4.23121">
        <ele>718.59997558594</ele>
        <time>2012-02-24T09:24:53.000Z</time>
      </trkpt>
      <trkpt lat="45.42426" lon="4.23117">
        <ele>718.40002441406</ele>
        <time>2012-02-24T09:24:58.000Z</time>
      </trkpt>
      <trkpt lat="45.42425" lon="4.23115">
        <ele>718.40002441406</ele>
        <time>2012-02-24T09:24:59.000Z</time>
      </trkpt>
      <trkpt lat="45.4242" lon="4.2311">
        <ele>718.20001220703</ele>
        <time>2012-02-24T09:25:04.000Z</time>
      </trkpt>
      <trkpt lat="45.4242" lon="4.2311">
        <ele>718.20001220703</ele>
        <time>2012-02-24T09:25:05.000Z</time>
      </trkpt>
      <trkpt lat="45.42409" lon="4.23097">
        <ele>717.79998779297</ele>
        <time>2012-02-24T09:25:23.000Z</time>
      </trkpt>
      <trkpt lat="45.42406" lon="4.23092">
        <ele>717.79998779297</ele>
        <time>2012-02-24T09:25:28.000Z</time>
      </trkpt>
      <trkpt lat="45.42405" lon="4.2309">
        <ele>717.79998779297</ele>
        <time>2012-02-24T09:25:30.000Z</time>
      </trkpt>
      <trkpt lat="45.424" lon="4.23083">
        <ele>718</ele>
        <time>2012-02-24T09:25:36.000Z</time>
      </trkpt>
      <trkpt lat="45.42393" lon="4.2307">
        <ele>719</ele>
        <time>2012-02-24T09:25:43.000Z</time>
      </trkpt>
      <trkpt lat="45.4239" lon="4.23066">
        <ele>719.40002441406</ele>
        <time>2012-02-24T09:25:45.000Z</time>
      </trkpt>
      <trkpt lat="45.42382" lon="4.23056">
        <ele>720.20001220703</ele>
        <time>2012-02-24T09:25:51.000Z</time>
      </trkpt>
      <trkpt lat="45.4238" lon="4.23054">
        <ele>720.40002441406</ele>
        <time>2012-02-24T09:25:53.000Z</time>
      </trkpt>
      <trkpt lat="45.42378" lon="4.23046">
        <ele>721</ele>
        <time>2012-02-24T09:25:58.000Z</time>
      </trkpt>
      <trkpt lat="45.42374" lon="4.2304">
        <ele>721.40002441406</ele>
        <time>2012-02-24T09:26:03.000Z</time>
      </trkpt>
      <trkpt lat="45.42369" lon="4.23031">
        <ele>722</ele>
        <time>2012-02-24T09:26:08.000Z</time>
      </trkpt>
      <trkpt lat="45.42366" lon="4.23024">
        <ele>722.59997558594</ele>
        <time>2012-02-24T09:26:13.000Z</time>
      </trkpt>
      <trkpt lat="45.42361" lon="4.23018">
        <ele>723</ele>
        <time>2012-02-24T09:26:18.000Z</time>
      </trkpt>
      <trkpt lat="45.42355" lon="4.2301">
        <ele>723.59997558594</ele>
        <time>2012-02-24T09:26:24.000Z</time>
      </trkpt>
      <trkpt lat="45.42354" lon="4.23008">
        <ele>723.59997558594</ele>
        <time>2012-02-24T09:26:25.000Z</time>
      </trkpt>
      <trkpt lat="45.42348" lon="4.23001">
        <ele>724</ele>
        <time>2012-02-24T09:26:30.000Z</time>
      </trkpt>
      <trkpt lat="45.42342" lon="4.22992">
        <ele>724</ele>
        <time>2012-02-24T09:26:37.000Z</time>
      </trkpt>
      <trkpt lat="45.4234" lon="4.22989">
        <ele>724</ele>
        <time>2012-02-24T09:26:39.000Z</time>
      </trkpt>
      <trkpt lat="45.42334" lon="4.22984">
        <ele>724</ele>
        <time>2012-02-24T09:26:44.000Z</time>
      </trkpt>
      <trkpt lat="45.42331" lon="4.2298">
        <ele>724</ele>
        <time>2012-02-24T09:26:47.000Z</time>
      </trkpt>
      <trkpt lat="45.42328" lon="4.22977">
        <ele>724</ele>
        <time>2012-02-24T09:26:54.000Z</time>
      </trkpt>
      <trkpt lat="45.42325" lon="4.22971">
        <ele>724</ele>
        <time>2012-02-24T09:27:22.000Z</time>
      </trkpt>
      <trkpt lat="45.42317" lon="4.22963">
        <ele>724</ele>
        <time>2012-02-24T09:27:27.000Z</time>
      </trkpt>
      <trkpt lat="45.42315" lon="4.22963">
        <ele>724</ele>
        <time>2012-02-24T09:27:28.000Z</time>
      </trkpt>
      <trkpt lat="45.42302" lon="4.22965">
        <ele>724</ele>
        <time>2012-02-24T09:27:35.000Z</time>
      </trkpt>
      <trkpt lat="45.42296" lon="4.22961">
        <ele>724</ele>
        <time>2012-02-24T09:27:38.000Z</time>
      </trkpt>
      <trkpt lat="45.4229" lon="4.2296">
        <ele>724</ele>
        <time>2012-02-24T09:27:41.000Z</time>
      </trkpt>
      <trkpt lat="45.42276" lon="4.22959">
        <ele>724</ele>
        <time>2012-02-24T09:27:48.000Z</time>
      </trkpt>
      <trkpt lat="45.42266" lon="4.2296">
        <ele>724</ele>
        <time>2012-02-24T09:27:53.000Z</time>
      </trkpt>
      <trkpt lat="45.42256" lon="4.2296">
        <ele>724</ele>
        <time>2012-02-24T09:27:58.000Z</time>
      </trkpt>
      <trkpt lat="45.4225" lon="4.22961">
        <ele>724</ele>
        <time>2012-02-24T09:28:01.000Z</time>
      </trkpt>
      <trkpt lat="45.42238" lon="4.22959">
        <ele>723.40002441406</ele>
        <time>2012-02-24T09:28:07.000Z</time>
      </trkpt>
      <trkpt lat="45.42225" lon="4.22959">
        <ele>722.79998779297</ele>
        <time>2012-02-24T09:28:13.000Z</time>
      </trkpt>
      <trkpt lat="45.42215" lon="4.22957">
        <ele>722.40002441406</ele>
        <time>2012-02-24T09:28:18.000Z</time>
      </trkpt>
      <trkpt lat="45.42203" lon="4.22955">
        <ele>721.79998779297</ele>
        <time>2012-02-24T09:28:24.000Z</time>
      </trkpt>
      <trkpt lat="45.42192" lon="4.22956">
        <ele>721.40002441406</ele>
        <time>2012-02-24T09:28:29.000Z</time>
      </trkpt>
      <trkpt lat="45.42181" lon="4.22958">
        <ele>720.79998779297</ele>
        <time>2012-02-24T09:28:34.000Z</time>
      </trkpt>
      <trkpt lat="45.42171" lon="4.2296">
        <ele>720.20001220703</ele>
        <time>2012-02-24T09:28:39.000Z</time>
      </trkpt>
      <trkpt lat="45.42163" lon="4.22959">
        <ele>720.40002441406</ele>
        <time>2012-02-24T09:28:44.000Z</time>
      </trkpt>
      <trkpt lat="45.42159" lon="4.2296">
        <ele>720.79998779297</ele>
        <time>2012-02-24T09:28:46.000Z</time>
      </trkpt>
      <trkpt lat="45.42146" lon="4.22962">
        <ele>722</ele>
        <time>2012-02-24T09:28:53.000Z</time>
      </trkpt>
      <trkpt lat="45.42139" lon="4.22964">
        <ele>722.79998779297</ele>
        <time>2012-02-24T09:28:57.000Z</time>
      </trkpt>
      <trkpt lat="45.4213" lon="4.22968">
        <ele>723.59997558594</ele>
        <time>2012-02-24T09:29:02.000Z</time>
      </trkpt>
      <trkpt lat="45.42129" lon="4.22969">
        <ele>723.79998779297</ele>
        <time>2012-02-24T09:29:03.000Z</time>
      </trkpt>
      <trkpt lat="45.42123" lon="4.22973">
        <ele>724.40002441406</ele>
        <time>2012-02-24T09:29:08.000Z</time>
      </trkpt>
      <trkpt lat="45.4212" lon="4.22974">
        <ele>724.59997558594</ele>
        <time>2012-02-24T09:29:12.000Z</time>
      </trkpt>
      <trkpt lat="45.42117" lon="4.22979">
        <ele>725</ele>
        <time>2012-02-24T09:29:18.000Z</time>
      </trkpt>
      <trkpt lat="45.42109" lon="4.22979">
        <ele>726</ele>
        <time>2012-02-24T09:29:23.000Z</time>
      </trkpt>
      <trkpt lat="45.42106" lon="4.22978">
        <ele>726.59997558594</ele>
        <time>2012-02-24T09:29:26.000Z</time>
      </trkpt>
      <trkpt lat="45.42101" lon="4.22978">
        <ele>727.20001220703</ele>
        <time>2012-02-24T09:29:32.000Z</time>
      </trkpt>
      <trkpt lat="45.42096" lon="4.22977">
        <ele>727.79998779297</ele>
        <time>2012-02-24T09:29:37.000Z</time>
      </trkpt>
      <trkpt lat="45.42089" lon="4.22978">
        <ele>728.79998779297</ele>
        <time>2012-02-24T09:29:43.000Z</time>
      </trkpt>
      <trkpt lat="45.4208" lon="4.2298">
        <ele>729.59997558594</ele>
        <time>2012-02-24T09:29:48.000Z</time>
      </trkpt>
      <trkpt lat="45.4207" lon="4.22981">
        <ele>729.59997558594</ele>
        <time>2012-02-24T09:29:54.000Z</time>
      </trkpt>
      <trkpt lat="45.42068" lon="4.2298">
        <ele>729.59997558594</ele>
        <time>2012-02-24T09:29:55.000Z</time>
      </trkpt>
      <trkpt lat="45.42055" lon="4.22979">
        <ele>729.79998779297</ele>
        <time>2012-02-24T09:30:02.000Z</time>
      </trkpt>
      <trkpt lat="45.42051" lon="4.22978">
        <ele>729.79998779297</ele>
        <time>2012-02-24T09:30:04.000Z</time>
      </trkpt>
      <trkpt lat="45.42042" lon="4.22974">
        <ele>729.79998779297</ele>
        <time>2012-02-24T09:30:09.000Z</time>
      </trkpt>
      <trkpt lat="45.4204" lon="4.22973">
        <ele>729.59997558594</ele>
        <time>2012-02-24T09:30:10.000Z</time>
      </trkpt>
      <trkpt lat="45.42028" lon="4.22966">
        <ele>729.59997558594</ele>
        <time>2012-02-24T09:30:17.000Z</time>
      </trkpt>
      <trkpt lat="45.42025" lon="4.22964">
        <ele>729.59997558594</ele>
        <time>2012-02-24T09:30:18.000Z</time>
      </trkpt>
      <trkpt lat="45.42017" lon="4.22958">
        <ele>729.40002441406</ele>
        <time>2012-02-24T09:30:22.000Z</time>
      </trkpt>
      <trkpt lat="45.42009" lon="4.22953">
        <ele>729.20001220703</ele>
        <time>2012-02-24T09:30:26.000Z</time>
      </trkpt>
      <trkpt lat="45.41998" lon="4.22952">
        <ele>729.40002441406</ele>
        <time>2012-02-24T09:30:31.000Z</time>
      </trkpt>
      <trkpt lat="45.41992" lon="4.2295">
        <ele>729.79998779297</ele>
        <time>2012-02-24T09:30:34.000Z</time>
      </trkpt>
      <trkpt lat="45.4198" lon="4.22948">
        <ele>730.79998779297</ele>
        <time>2012-02-24T09:30:40.000Z</time>
      </trkpt>
      <trkpt lat="45.41972" lon="4.22949">
        <ele>731.40002441406</ele>
        <time>2012-02-24T09:30:45.000Z</time>
      </trkpt>
      <trkpt lat="45.4197" lon="4.22949">
        <ele>731.40002441406</ele>
        <time>2012-02-24T09:30:46.000Z</time>
      </trkpt>
      <trkpt lat="45.41966" lon="4.22949">
        <ele>731.79998779297</ele>
        <time>2012-02-24T09:30:50.000Z</time>
      </trkpt>
      <trkpt lat="45.41957" lon="4.2295">
        <ele>732.40002441406</ele>
        <time>2012-02-24T09:30:56.000Z</time>
      </trkpt>
      <trkpt lat="45.41956" lon="4.2295">
        <ele>732.59997558594</ele>
        <time>2012-02-24T09:30:57.000Z</time>
      </trkpt>
      <trkpt lat="45.41953" lon="4.2295">
        <ele>732.79998779297</ele>
        <time>2012-02-24T09:31:00.000Z</time>
      </trkpt>
      <trkpt lat="45.4195" lon="4.22952">
        <ele>733</ele>
        <time>2012-02-24T09:31:03.000Z</time>
      </trkpt>
      <trkpt lat="45.41944" lon="4.22954">
        <ele>733.40002441406</ele>
        <time>2012-02-24T09:31:08.000Z</time>
      </trkpt>
      <trkpt lat="45.41943" lon="4.22955">
        <ele>733.59997558594</ele>
        <time>2012-02-24T09:31:10.000Z</time>
      </trkpt>
      <trkpt lat="45.41939" lon="4.22958">
        <ele>733.79998779297</ele>
        <time>2012-02-24T09:31:15.000Z</time>
      </trkpt>
      <trkpt lat="45.41932" lon="4.22965">
        <ele>734.40002441406</ele>
        <time>2012-02-24T09:31:22.000Z</time>
      </trkpt>
      <trkpt lat="45.4193" lon="4.22969">
        <ele>734.59997558594</ele>
        <time>2012-02-24T09:31:26.000Z</time>
      </trkpt>
      <trkpt lat="45.41923" lon="4.2297">
        <ele>735</ele>
        <time>2012-02-24T09:31:31.000Z</time>
      </trkpt>
      <trkpt lat="45.41919" lon="4.22968">
        <ele>735.20001220703</ele>
        <time>2012-02-24T09:31:35.000Z</time>
      </trkpt>
      <trkpt lat="45.41914" lon="4.22963">
        <ele>735.40002441406</ele>
        <time>2012-02-24T09:31:42.000Z</time>
      </trkpt>
      <trkpt lat="45.4191" lon="4.22961">
        <ele>735.59997558594</ele>
        <time>2012-02-24T09:31:47.000Z</time>
      </trkpt>
      <trkpt lat="45.41908" lon="4.22959">
        <ele>735.59997558594</ele>
        <time>2012-02-24T09:31:49.000Z</time>
      </trkpt>
      <trkpt lat="45.41899" lon="4.22951">
        <ele>736</ele>
        <time>2012-02-24T09:31:56.000Z</time>
      </trkpt>
      <trkpt lat="45.41892" lon="4.22946">
        <ele>736.20001220703</ele>
        <time>2012-02-24T09:32:02.000Z</time>
      </trkpt>
      <trkpt lat="45.41885" lon="4.22944">
        <ele>736.40002441406</ele>
        <time>2012-02-24T09:32:07.000Z</time>
      </trkpt>
      <trkpt lat="45.41876" lon="4.22942">
        <ele>736.79998779297</ele>
        <time>2012-02-24T09:32:14.000Z</time>
      </trkpt>
      <trkpt lat="45.41868" lon="4.22942">
        <ele>737</ele>
        <time>2012-02-24T09:32:19.000Z</time>
      </trkpt>
      <trkpt lat="45.4186" lon="4.22941">
        <ele>737.20001220703</ele>
        <time>2012-02-24T09:32:24.000Z</time>
      </trkpt>
      <trkpt lat="45.41852" lon="4.22942">
        <ele>737.40002441406</ele>
        <time>2012-02-24T09:32:29.000Z</time>
      </trkpt>
      <trkpt lat="45.41842" lon="4.2294">
        <ele>737.79998779297</ele>
        <time>2012-02-24T09:32:35.000Z</time>
      </trkpt>
      <trkpt lat="45.41834" lon="4.22935">
        <ele>738.40002441406</ele>
        <time>2012-02-24T09:32:41.000Z</time>
      </trkpt>
      <trkpt lat="45.41828" lon="4.22931">
        <ele>738.79998779297</ele>
        <time>2012-02-24T09:32:47.000Z</time>
      </trkpt>
      <trkpt lat="45.41826" lon="4.22928">
        <ele>739</ele>
        <time>2012-02-24T09:32:51.000Z</time>
      </trkpt>
      <trkpt lat="45.41823" lon="4.22923">
        <ele>739.40002441406</ele>
        <time>2012-02-24T09:32:56.000Z</time>
      </trkpt>
      <trkpt lat="45.4182" lon="4.22921">
        <ele>739.59997558594</ele>
        <time>2012-02-24T09:32:59.000Z</time>
      </trkpt>
      <trkpt lat="45.41819" lon="4.2292">
        <ele>739.59997558594</ele>
        <time>2012-02-24T09:33:00.000Z</time>
      </trkpt>
      <trkpt lat="45.41817" lon="4.22919">
        <ele>739.79998779297</ele>
        <time>2012-02-24T09:33:02.000Z</time>
      </trkpt>
      <trkpt lat="45.41815" lon="4.22917">
        <ele>740</ele>
        <time>2012-02-24T09:33:07.000Z</time>
      </trkpt>
      <trkpt lat="45.41812" lon="4.22915">
        <ele>740</ele>
        <time>2012-02-24T09:33:25.000Z</time>
      </trkpt>
      <trkpt lat="45.41808" lon="4.22912">
        <ele>740</ele>
        <time>2012-02-24T09:33:30.000Z</time>
      </trkpt>
      <trkpt lat="45.41803" lon="4.22908">
        <ele>740.20001220703</ele>
        <time>2012-02-24T09:33:38.000Z</time>
      </trkpt>
      <trkpt lat="45.418" lon="4.22906">
        <ele>740.20001220703</ele>
        <time>2012-02-24T09:33:41.000Z</time>
      </trkpt>
      <trkpt lat="45.41797" lon="4.22899">
        <ele>740.20001220703</ele>
        <time>2012-02-24T09:33:48.000Z</time>
      </trkpt>
      <trkpt lat="45.41797" lon="4.2289">
        <ele>740.40002441406</ele>
        <time>2012-02-24T09:33:55.000Z</time>
      </trkpt>
      <trkpt lat="45.41796" lon="4.22883">
        <ele>740.59997558594</ele>
        <time>2012-02-24T09:34:01.000Z</time>
      </trkpt>
      <trkpt lat="45.41796" lon="4.22878">
        <ele>740.59997558594</ele>
        <time>2012-02-24T09:34:06.000Z</time>
      </trkpt>
      <trkpt lat="45.41797" lon="4.2287">
        <ele>740.79998779297</ele>
        <time>2012-02-24T09:34:11.000Z</time>
      </trkpt>
      <trkpt lat="45.41799" lon="4.22864">
        <ele>740.79998779297</ele>
        <time>2012-02-24T09:34:17.000Z</time>
      </trkpt>
      <trkpt lat="45.41799" lon="4.22859">
        <ele>740.79998779297</ele>
        <time>2012-02-24T09:34:21.000Z</time>
      </trkpt>
      <trkpt lat="45.41802" lon="4.22852">
        <ele>740.79998779297</ele>
        <time>2012-02-24T09:34:26.000Z</time>
      </trkpt>
      <trkpt lat="45.41804" lon="4.22841">
        <ele>741</ele>
        <time>2012-02-24T09:34:33.000Z</time>
      </trkpt>
      <trkpt lat="45.41805" lon="4.22836">
        <ele>741</ele>
        <time>2012-02-24T09:34:37.000Z</time>
      </trkpt>
      <trkpt lat="45.41807" lon="4.22826">
        <ele>741</ele>
        <time>2012-02-24T09:34:42.000Z</time>
      </trkpt>
      <trkpt lat="45.4181" lon="4.22814">
        <ele>741</ele>
        <time>2012-02-24T09:34:49.000Z</time>
      </trkpt>
      <trkpt lat="45.41811" lon="4.22804">
        <ele>741</ele>
        <time>2012-02-24T09:34:56.000Z</time>
      </trkpt>
      <trkpt lat="45.4181" lon="4.22797">
        <ele>741.20001220703</ele>
        <time>2012-02-24T09:35:02.000Z</time>
      </trkpt>
      <trkpt lat="45.41809" lon="4.2279">
        <ele>741.40002441406</ele>
        <time>2012-02-24T09:35:07.000Z</time>
      </trkpt>
      <trkpt lat="45.41806" lon="4.22782">
        <ele>741.59997558594</ele>
        <time>2012-02-24T09:35:14.000Z</time>
      </trkpt>
      <trkpt lat="45.41804" lon="4.22776">
        <ele>741.79998779297</ele>
        <time>2012-02-24T09:35:18.000Z</time>
      </trkpt>
      <trkpt lat="45.41802" lon="4.2277">
        <ele>742</ele>
        <time>2012-02-24T09:35:24.000Z</time>
      </trkpt>
      <trkpt lat="45.41779" lon="4.22708">
        <ele>745.40002441406</ele>
        <time>2012-02-24T09:37:03.000Z</time>
      </trkpt>
      <trkpt lat="45.41778" lon="4.22704">
        <ele>745.59997558594</ele>
        <time>2012-02-24T09:37:04.000Z</time>
      </trkpt>
      <trkpt lat="45.41778" lon="4.22696">
        <ele>746</ele>
        <time>2012-02-24T09:37:08.000Z</time>
      </trkpt>
      <trkpt lat="45.41774" lon="4.22678">
        <ele>746.59997558594</ele>
        <time>2012-02-24T09:37:16.000Z</time>
      </trkpt>
      <trkpt lat="45.41772" lon="4.22664">
        <ele>747.20001220703</ele>
        <time>2012-02-24T09:37:22.000Z</time>
      </trkpt>
      <trkpt lat="45.41769" lon="4.22654">
        <ele>747.59997558594</ele>
        <time>2012-02-24T09:37:27.000Z</time>
      </trkpt>
      <trkpt lat="45.41767" lon="4.22646">
        <ele>747.79998779297</ele>
        <time>2012-02-24T09:37:31.000Z</time>
      </trkpt>
      <trkpt lat="45.41764" lon="4.22633">
        <ele>748.59997558594</ele>
        <time>2012-02-24T09:37:37.000Z</time>
      </trkpt>
      <trkpt lat="45.4176" lon="4.22619">
        <ele>749.20001220703</ele>
        <time>2012-02-24T09:37:43.000Z</time>
      </trkpt>
      <trkpt lat="45.4176" lon="4.22617">
        <ele>749.20001220703</ele>
        <time>2012-02-24T09:37:44.000Z</time>
      </trkpt>
      <trkpt lat="45.41757" lon="4.22608">
        <ele>749.79998779297</ele>
        <time>2012-02-24T09:37:50.000Z</time>
      </trkpt>
      <trkpt lat="45.41756" lon="4.22602">
        <ele>750</ele>
        <time>2012-02-24T09:37:54.000Z</time>
      </trkpt>
      <trkpt lat="45.41755" lon="4.22597">
        <ele>750.20001220703</ele>
        <time>2012-02-24T09:37:58.000Z</time>
      </trkpt>
      <trkpt lat="45.41754" lon="4.22593">
        <ele>750.40002441406</ele>
        <time>2012-02-24T09:38:04.000Z</time>
      </trkpt>
      <trkpt lat="45.41753" lon="4.22587">
        <ele>750.79998779297</ele>
        <time>2012-02-24T09:38:10.000Z</time>
      </trkpt>
      <trkpt lat="45.4175" lon="4.22579">
        <ele>751.20001220703</ele>
        <time>2012-02-24T09:38:16.000Z</time>
      </trkpt>
      <trkpt lat="45.41747" lon="4.22569">
        <ele>751.40002441406</ele>
        <time>2012-02-24T09:38:22.000Z</time>
      </trkpt>
      <trkpt lat="45.41745" lon="4.22562">
        <ele>751.79998779297</ele>
        <time>2012-02-24T09:38:27.000Z</time>
      </trkpt>
      <trkpt lat="45.41741" lon="4.2255">
        <ele>752.40002441406</ele>
        <time>2012-02-24T09:38:35.000Z</time>
      </trkpt>
      <trkpt lat="45.41738" lon="4.22539">
        <ele>752.79998779297</ele>
        <time>2012-02-24T09:38:42.000Z</time>
      </trkpt>
      <trkpt lat="45.41734" lon="4.2253">
        <ele>753.20001220703</ele>
        <time>2012-02-24T09:38:48.000Z</time>
      </trkpt>
      <trkpt lat="45.41728" lon="4.22521">
        <ele>753.79998779297</ele>
        <time>2012-02-24T09:38:55.000Z</time>
      </trkpt>
      <trkpt lat="45.41721" lon="4.22512">
        <ele>754.40002441406</ele>
        <time>2012-02-24T09:39:02.000Z</time>
      </trkpt>
      <trkpt lat="45.41714" lon="4.22502">
        <ele>755.20001220703</ele>
        <time>2012-02-24T09:39:10.000Z</time>
      </trkpt>
      <trkpt lat="45.41708" lon="4.22493">
        <ele>755.59997558594</ele>
        <time>2012-02-24T09:39:17.000Z</time>
      </trkpt>
      <trkpt lat="45.41701" lon="4.22483">
        <ele>756</ele>
        <time>2012-02-24T09:39:25.000Z</time>
      </trkpt>
      <trkpt lat="45.417" lon="4.22482">
        <ele>756</ele>
        <time>2012-02-24T09:39:26.000Z</time>
      </trkpt>
      <trkpt lat="45.41696" lon="4.22474">
        <ele>756.20001220703</ele>
        <time>2012-02-24T09:39:33.000Z</time>
      </trkpt>
      <trkpt lat="45.41695" lon="4.22473">
        <ele>756.20001220703</ele>
        <time>2012-02-24T09:39:34.000Z</time>
      </trkpt>
      <trkpt lat="45.41688" lon="4.22467">
        <ele>756.59997558594</ele>
        <time>2012-02-24T09:39:42.000Z</time>
      </trkpt>
      <trkpt lat="45.4168" lon="4.2246">
        <ele>756.79998779297</ele>
        <time>2012-02-24T09:39:50.000Z</time>
      </trkpt>
      <trkpt lat="45.41671" lon="4.22456">
        <ele>757.20001220703</ele>
        <time>2012-02-24T09:39:57.000Z</time>
      </trkpt>
      <trkpt lat="45.41662" lon="4.22453">
        <ele>757.40002441406</ele>
        <time>2012-02-24T09:40:03.000Z</time>
      </trkpt>
      <trkpt lat="45.41655" lon="4.22448">
        <ele>757</ele>
        <time>2012-02-24T09:40:08.000Z</time>
      </trkpt>
      <trkpt lat="45.41651" lon="4.22446">
        <ele>757</ele>
        <time>2012-02-24T09:40:11.000Z</time>
      </trkpt>
      <trkpt lat="45.41647" lon="4.22442">
        <ele>756.79998779297</ele>
        <time>2012-02-24T09:40:15.000Z</time>
      </trkpt>
      <trkpt lat="45.41642" lon="4.22438">
        <ele>756.79998779297</ele>
        <time>2012-02-24T09:40:19.000Z</time>
      </trkpt>
      <trkpt lat="45.41634" lon="4.22434">
        <ele>756.59997558594</ele>
        <time>2012-02-24T09:40:26.000Z</time>
      </trkpt>
      <trkpt lat="45.41627" lon="4.22429">
        <ele>756.40002441406</ele>
        <time>2012-02-24T09:40:33.000Z</time>
      </trkpt>
      <trkpt lat="45.41626" lon="4.22429">
        <ele>756.40002441406</ele>
        <time>2012-02-24T09:40:36.000Z</time>
      </trkpt>
      <trkpt lat="45.41621" lon="4.22425">
        <ele>756.40002441406</ele>
        <time>2012-02-24T09:40:42.000Z</time>
      </trkpt>
      <trkpt lat="45.41613" lon="4.22417">
        <ele>756.40002441406</ele>
        <time>2012-02-24T09:40:46.000Z</time>
      </trkpt>
      <trkpt lat="45.41607" lon="4.22413">
        <ele>756.20001220703</ele>
        <time>2012-02-24T09:40:49.000Z</time>
      </trkpt>
      <trkpt lat="45.41592" lon="4.224">
        <ele>756</ele>
        <time>2012-02-24T09:40:57.000Z</time>
      </trkpt>
      <trkpt lat="45.41578" lon="4.22389">
        <ele>756</ele>
        <time>2012-02-24T09:41:04.000Z</time>
      </trkpt>
      <trkpt lat="45.41566" lon="4.22378">
        <ele>756.20001220703</ele>
        <time>2012-02-24T09:41:10.000Z</time>
      </trkpt>
      <trkpt lat="45.41555" lon="4.22367">
        <ele>756.59997558594</ele>
        <time>2012-02-24T09:41:16.000Z</time>
      </trkpt>
      <trkpt lat="45.41544" lon="4.22359">
        <ele>757</ele>
        <time>2012-02-24T09:41:22.000Z</time>
      </trkpt>
      <trkpt lat="45.41528" lon="4.22345">
        <ele>757.79998779297</ele>
        <time>2012-02-24T09:41:30.000Z</time>
      </trkpt>
      <trkpt lat="45.41521" lon="4.22336">
        <ele>758.20001220703</ele>
        <time>2012-02-24T09:41:35.000Z</time>
      </trkpt>
      <trkpt lat="45.41521" lon="4.22336">
        <ele>758.20001220703</ele>
        <time>2012-02-24T09:41:38.000Z</time>
      </trkpt>
      <trkpt lat="45.41515" lon="4.22328">
        <ele>758.40002441406</ele>
        <time>2012-02-24T09:41:59.000Z</time>
      </trkpt>
      <trkpt lat="45.41511" lon="4.22328">
        <ele>758.59997558594</ele>
        <time>2012-02-24T09:42:00.000Z</time>
      </trkpt>
      <trkpt lat="45.41504" lon="4.22341">
        <ele>758.59997558594</ele>
        <time>2012-02-24T09:42:05.000Z</time>
      </trkpt>
      <trkpt lat="45.41499" lon="4.2236">
        <ele>758</ele>
        <time>2012-02-24T09:42:11.000Z</time>
      </trkpt>
      <trkpt lat="45.41494" lon="4.22382">
        <ele>757.40002441406</ele>
        <time>2012-02-24T09:42:18.000Z</time>
      </trkpt>
      <trkpt lat="45.4149" lon="4.22395">
        <ele>757.20001220703</ele>
        <time>2012-02-24T09:42:22.000Z</time>
      </trkpt>
      <trkpt lat="45.41485" lon="4.22411">
        <ele>756.79998779297</ele>
        <time>2012-02-24T09:42:27.000Z</time>
      </trkpt>
      <trkpt lat="45.41479" lon="4.2243">
        <ele>756.59997558594</ele>
        <time>2012-02-24T09:42:33.000Z</time>
      </trkpt>
      <trkpt lat="45.41471" lon="4.2245">
        <ele>756.59997558594</ele>
        <time>2012-02-24T09:42:39.000Z</time>
      </trkpt>
      <trkpt lat="45.41464" lon="4.22468">
        <ele>756.40002441406</ele>
        <time>2012-02-24T09:42:45.000Z</time>
      </trkpt>
      <trkpt lat="45.41457" lon="4.22482">
        <ele>756.40002441406</ele>
        <time>2012-02-24T09:42:50.000Z</time>
      </trkpt>
      <trkpt lat="45.4145" lon="4.22495">
        <ele>756.20001220703</ele>
        <time>2012-02-24T09:42:55.000Z</time>
      </trkpt>
      <trkpt lat="45.41441" lon="4.22512">
        <ele>756</ele>
        <time>2012-02-24T09:43:01.000Z</time>
      </trkpt>
      <trkpt lat="45.41433" lon="4.22527">
        <ele>755.59997558594</ele>
        <time>2012-02-24T09:43:06.000Z</time>
      </trkpt>
      <trkpt lat="45.41423" lon="4.22544">
        <ele>755.20001220703</ele>
        <time>2012-02-24T09:43:12.000Z</time>
      </trkpt>
      <trkpt lat="45.41413" lon="4.22559">
        <ele>754.79998779297</ele>
        <time>2012-02-24T09:43:18.000Z</time>
      </trkpt>
      <trkpt lat="45.41402" lon="4.22572">
        <ele>754.20001220703</ele>
        <time>2012-02-24T09:43:24.000Z</time>
      </trkpt>
      <trkpt lat="45.41392" lon="4.22582">
        <ele>753.79998779297</ele>
        <time>2012-02-24T09:43:29.000Z</time>
      </trkpt>
      <trkpt lat="45.41382" lon="4.22591">
        <ele>753.20001220703</ele>
        <time>2012-02-24T09:43:34.000Z</time>
      </trkpt>
      <trkpt lat="45.41377" lon="4.22596">
        <ele>753</ele>
        <time>2012-02-24T09:43:39.000Z</time>
      </trkpt>
      <trkpt lat="45.41372" lon="4.22608">
        <ele>752.40002441406</ele>
        <time>2012-02-24T09:44:31.000Z</time>
      </trkpt>
      <trkpt lat="45.41378" lon="4.22621">
        <ele>752</ele>
        <time>2012-02-24T09:44:35.000Z</time>
      </trkpt>
      <trkpt lat="45.41379" lon="4.22624">
        <ele>751.79998779297</ele>
        <time>2012-02-24T09:44:36.000Z</time>
      </trkpt>
      <trkpt lat="45.41386" lon="4.22644">
        <ele>751</ele>
        <time>2012-02-24T09:44:42.000Z</time>
      </trkpt>
      <trkpt lat="45.41392" lon="4.22658">
        <ele>750.40002441406</ele>
        <time>2012-02-24T09:44:46.000Z</time>
      </trkpt>
      <trkpt lat="45.41397" lon="4.22677">
        <ele>749.59997558594</ele>
        <time>2012-02-24T09:44:52.000Z</time>
      </trkpt>
      <trkpt lat="45.41402" lon="4.22697">
        <ele>748.79998779297</ele>
        <time>2012-02-24T09:44:58.000Z</time>
      </trkpt>
      <trkpt lat="45.41404" lon="4.22714">
        <ele>748.20001220703</ele>
        <time>2012-02-24T09:45:03.000Z</time>
      </trkpt>
      <trkpt lat="45.41408" lon="4.22734">
        <ele>747.40002441406</ele>
        <time>2012-02-24T09:45:09.000Z</time>
      </trkpt>
      <trkpt lat="45.41417" lon="4.22753">
        <ele>747</ele>
        <time>2012-02-24T09:45:15.000Z</time>
      </trkpt>
      <trkpt lat="45.41427" lon="4.2277">
        <ele>746.20001220703</ele>
        <time>2012-02-24T09:45:21.000Z</time>
      </trkpt>
      <trkpt lat="45.41441" lon="4.22784">
        <ele>745.40002441406</ele>
        <time>2012-02-24T09:45:27.000Z</time>
      </trkpt>
      <trkpt lat="45.41452" lon="4.22792">
        <ele>745</ele>
        <time>2012-02-24T09:45:32.000Z</time>
      </trkpt>
      <trkpt lat="45.41467" lon="4.22802">
        <ele>744.20001220703</ele>
        <time>2012-02-24T09:45:38.000Z</time>
      </trkpt>
      <trkpt lat="45.41484" lon="4.22812">
        <ele>743.20001220703</ele>
        <time>2012-02-24T09:45:45.000Z</time>
      </trkpt>
      <trkpt lat="45.41495" lon="4.22814">
        <ele>742.79998779297</ele>
        <time>2012-02-24T09:45:50.000Z</time>
      </trkpt>
      <trkpt lat="45.41509" lon="4.2281">
        <ele>743</ele>
        <time>2012-02-24T09:45:55.000Z</time>
      </trkpt>
      <trkpt lat="45.41521" lon="4.22805">
        <ele>743.40002441406</ele>
        <time>2012-02-24T09:46:00.000Z</time>
      </trkpt>
      <trkpt lat="45.41538" lon="4.22796">
        <ele>744</ele>
        <time>2012-02-24T09:46:07.000Z</time>
      </trkpt>
      <trkpt lat="45.41549" lon="4.22792">
        <ele>744.40002441406</ele>
        <time>2012-02-24T09:46:12.000Z</time>
      </trkpt>
      <trkpt lat="45.4156" lon="4.22784">
        <ele>744.79998779297</ele>
        <time>2012-02-24T09:46:18.000Z</time>
      </trkpt>
      <trkpt lat="45.41563" lon="4.22782">
        <ele>744.79998779297</ele>
        <time>2012-02-24T09:46:20.000Z</time>
      </trkpt>
      <trkpt lat="45.41572" lon="4.22778">
        <ele>745.20001220703</ele>
        <time>2012-02-24T09:46:25.000Z</time>
      </trkpt>
      <trkpt lat="45.4158" lon="4.22774">
        <ele>745.40002441406</ele>
        <time>2012-02-24T09:46:29.000Z</time>
      </trkpt>
      <trkpt lat="45.41584" lon="4.22771">
        <ele>745.40002441406</ele>
        <time>2012-02-24T09:46:31.000Z</time>
      </trkpt>
      <trkpt lat="45.41594" lon="4.22767">
        <ele>745.40002441406</ele>
        <time>2012-02-24T09:46:36.000Z</time>
      </trkpt>
      <trkpt lat="45.41596" lon="4.22766">
        <ele>745.20001220703</ele>
        <time>2012-02-24T09:46:37.000Z</time>
      </trkpt>
      <trkpt lat="45.41612" lon="4.22763">
        <ele>745</ele>
        <time>2012-02-24T09:46:44.000Z</time>
      </trkpt>
      <trkpt lat="45.41622" lon="4.2276">
        <ele>744.79998779297</ele>
        <time>2012-02-24T09:46:49.000Z</time>
      </trkpt>
      <trkpt lat="45.4163" lon="4.22757">
        <ele>744.79998779297</ele>
        <time>2012-02-24T09:46:54.000Z</time>
      </trkpt>
      <trkpt lat="45.41637" lon="4.22752">
        <ele>744.59997558594</ele>
        <time>2012-02-24T09:46:59.000Z</time>
      </trkpt>
      <trkpt lat="45.41644" lon="4.2275">
        <ele>744.59997558594</ele>
        <time>2012-02-24T09:47:03.000Z</time>
      </trkpt>
      <trkpt lat="45.41659" lon="4.22745">
        <ele>744.40002441406</ele>
        <time>2012-02-24T09:47:09.000Z</time>
      </trkpt>
      <trkpt lat="45.41675" lon="4.2274">
        <ele>744.59997558594</ele>
        <time>2012-02-24T09:47:16.000Z</time>
      </trkpt>
      <trkpt lat="45.41693" lon="4.22735">
        <ele>745</ele>
        <time>2012-02-24T09:47:24.000Z</time>
      </trkpt>
      <trkpt lat="45.41704" lon="4.22732">
        <ele>745.40002441406</ele>
        <time>2012-02-24T09:47:29.000Z</time>
      </trkpt>
      <trkpt lat="45.41719" lon="4.22726">
        <ele>745.79998779297</ele>
        <time>2012-02-24T09:47:36.000Z</time>
      </trkpt>
      <trkpt lat="45.41728" lon="4.22725">
        <ele>746</ele>
        <time>2012-02-24T09:47:41.000Z</time>
      </trkpt>
      <trkpt lat="45.41739" lon="4.22722">
        <ele>746.20001220703</ele>
        <time>2012-02-24T09:47:46.000Z</time>
      </trkpt>
      <trkpt lat="45.4175" lon="4.22721">
        <ele>746.40002441406</ele>
        <time>2012-02-24T09:47:51.000Z</time>
      </trkpt>
      <trkpt lat="45.41761" lon="4.2272">
        <ele>745.79998779297</ele>
        <time>2012-02-24T09:47:56.000Z</time>
      </trkpt>
      <trkpt lat="45.41774" lon="4.22719">
        <ele>745.40002441406</ele>
        <time>2012-02-24T09:48:02.000Z</time>
      </trkpt>
      <trkpt lat="45.4178" lon="4.22718">
        <ele>745</ele>
        <time>2012-02-24T09:48:07.000Z</time>
      </trkpt>
      <trkpt lat="45.41782" lon="4.22718">
        <ele>745</ele>
        <time>2012-02-24T09:48:12.000Z</time>
      </trkpt>
      <trkpt lat="45.41786" lon="4.22733">
        <ele>744.20001220703</ele>
        <time>2012-02-24T09:50:28.000Z</time>
      </trkpt>
      <trkpt lat="45.41788" lon="4.22739">
        <ele>743.79998779297</ele>
        <time>2012-02-24T09:50:32.000Z</time>
      </trkpt>
      <trkpt lat="45.41791" lon="4.22745">
        <ele>743.40002441406</ele>
        <time>2012-02-24T09:50:36.000Z</time>
      </trkpt>
      <trkpt lat="45.41791" lon="4.22747">
        <ele>743.20001220703</ele>
        <time>2012-02-24T09:50:38.000Z</time>
      </trkpt>
      <trkpt lat="45.41795" lon="4.22753">
        <ele>742.79998779297</ele>
        <time>2012-02-24T09:50:43.000Z</time>
      </trkpt>
      <trkpt lat="45.41796" lon="4.22758">
        <ele>742.59997558594</ele>
        <time>2012-02-24T09:50:47.000Z</time>
      </trkpt>
      <trkpt lat="45.41798" lon="4.22765">
        <ele>742.20001220703</ele>
        <time>2012-02-24T09:50:52.000Z</time>
      </trkpt>
      <trkpt lat="45.418" lon="4.22769">
        <ele>742.20001220703</ele>
        <time>2012-02-24T09:50:55.000Z</time>
      </trkpt>
      <trkpt lat="45.41802" lon="4.22773">
        <ele>742</ele>
        <time>2012-02-24T09:50:58.000Z</time>
      </trkpt>
      <trkpt lat="45.41805" lon="4.22781">
        <ele>741.59997558594</ele>
        <time>2012-02-24T09:51:04.000Z</time>
      </trkpt>
      <trkpt lat="45.41806" lon="4.22785">
        <ele>741.59997558594</ele>
        <time>2012-02-24T09:51:08.000Z</time>
      </trkpt>
      <trkpt lat="45.41809" lon="4.22796">
        <ele>741.20001220703</ele>
        <time>2012-02-24T09:51:15.000Z</time>
      </trkpt>
      <trkpt lat="45.41811" lon="4.22803">
        <ele>741.20001220703</ele>
        <time>2012-02-24T09:51:19.000Z</time>
      </trkpt>
      <trkpt lat="45.41809" lon="4.22815">
        <ele>741</ele>
        <time>2012-02-24T09:51:27.000Z</time>
      </trkpt>
      <trkpt lat="45.41806" lon="4.22829">
        <ele>741</ele>
        <time>2012-02-24T09:51:36.000Z</time>
      </trkpt>
      <trkpt lat="45.41805" lon="4.22836">
        <ele>741</ele>
        <time>2012-02-24T09:51:40.000Z</time>
      </trkpt>
      <trkpt lat="45.41803" lon="4.22847">
        <ele>740.79998779297</ele>
        <time>2012-02-24T09:51:46.000Z</time>
      </trkpt>
      <trkpt lat="45.41801" lon="4.22858">
        <ele>740.79998779297</ele>
        <time>2012-02-24T09:51:51.000Z</time>
      </trkpt>
      <trkpt lat="45.41801" lon="4.22861">
        <ele>740.79998779297</ele>
        <time>2012-02-24T09:51:54.000Z</time>
      </trkpt>
      <trkpt lat="45.41798" lon="4.2287">
        <ele>740.79998779297</ele>
        <time>2012-02-24T09:52:00.000Z</time>
      </trkpt>
      <trkpt lat="45.41798" lon="4.22872">
        <ele>740.59997558594</ele>
        <time>2012-02-24T09:52:01.000Z</time>
      </trkpt>
      <trkpt lat="45.41797" lon="4.22876">
        <ele>740.59997558594</ele>
        <time>2012-02-24T09:52:05.000Z</time>
      </trkpt>
      <trkpt lat="45.41798" lon="4.22882">
        <ele>740.59997558594</ele>
        <time>2012-02-24T09:52:09.000Z</time>
      </trkpt>
      <trkpt lat="45.41799" lon="4.22891">
        <ele>740.40002441406</ele>
        <time>2012-02-24T09:52:16.000Z</time>
      </trkpt>
      <trkpt lat="45.418" lon="4.22898">
        <ele>740.20001220703</ele>
        <time>2012-02-24T09:52:21.000Z</time>
      </trkpt>
      <trkpt lat="45.418" lon="4.22901">
        <ele>740.20001220703</ele>
        <time>2012-02-24T09:52:23.000Z</time>
      </trkpt>
      <trkpt lat="45.41803" lon="4.22908">
        <ele>740.20001220703</ele>
        <time>2012-02-24T09:52:27.000Z</time>
      </trkpt>
      <trkpt lat="45.41809" lon="4.22914">
        <ele>740</ele>
        <time>2012-02-24T09:52:32.000Z</time>
      </trkpt>
      <trkpt lat="45.41812" lon="4.22918">
        <ele>739.79998779297</ele>
        <time>2012-02-24T09:52:37.000Z</time>
      </trkpt>
      <trkpt lat="45.41816" lon="4.22922">
        <ele>739.40002441406</ele>
        <time>2012-02-24T09:52:42.000Z</time>
      </trkpt>
      <trkpt lat="45.41821" lon="4.22926">
        <ele>739.20001220703</ele>
        <time>2012-02-24T09:52:48.000Z</time>
      </trkpt>
      <trkpt lat="45.41825" lon="4.2293">
        <ele>738.79998779297</ele>
        <time>2012-02-24T09:52:53.000Z</time>
      </trkpt>
      <trkpt lat="45.41835" lon="4.22935">
        <ele>738.40002441406</ele>
        <time>2012-02-24T09:52:58.000Z</time>
      </trkpt>
      <trkpt lat="45.41843" lon="4.22938">
        <ele>738</ele>
        <time>2012-02-24T09:53:03.000Z</time>
      </trkpt>
      <trkpt lat="45.41851" lon="4.22938">
        <ele>737.59997558594</ele>
        <time>2012-02-24T09:53:08.000Z</time>
      </trkpt>
      <trkpt lat="45.41862" lon="4.22937">
        <ele>737.40002441406</ele>
        <time>2012-02-24T09:53:13.000Z</time>
      </trkpt>
      <trkpt lat="45.4187" lon="4.22936">
        <ele>737.20001220703</ele>
        <time>2012-02-24T09:53:17.000Z</time>
      </trkpt>
      <trkpt lat="45.41877" lon="4.22937">
        <ele>737</ele>
        <time>2012-02-24T09:53:20.000Z</time>
      </trkpt>
      <trkpt lat="45.41882" lon="4.22943">
        <ele>736.59997558594</ele>
        <time>2012-02-24T09:53:24.000Z</time>
      </trkpt>
      <trkpt lat="45.41889" lon="4.22946">
        <ele>736.20001220703</ele>
        <time>2012-02-24T09:53:28.000Z</time>
      </trkpt>
      <trkpt lat="45.419" lon="4.22953">
        <ele>735.79998779297</ele>
        <time>2012-02-24T09:53:33.000Z</time>
      </trkpt>
      <trkpt lat="45.41908" lon="4.2296">
        <ele>735.59997558594</ele>
        <time>2012-02-24T09:53:39.000Z</time>
      </trkpt>
      <trkpt lat="45.41916" lon="4.22965">
        <ele>735.40002441406</ele>
        <time>2012-02-24T09:53:44.000Z</time>
      </trkpt>
      <trkpt lat="45.41925" lon="4.22969">
        <ele>734.79998779297</ele>
        <time>2012-02-24T09:53:49.000Z</time>
      </trkpt>
      <trkpt lat="45.41932" lon="4.22964">
        <ele>734.40002441406</ele>
        <time>2012-02-24T09:53:54.000Z</time>
      </trkpt>
      <trkpt lat="45.41938" lon="4.2296">
        <ele>734</ele>
        <time>2012-02-24T09:53:58.000Z</time>
      </trkpt>
      <trkpt lat="45.41945" lon="4.22959">
        <ele>733.40002441406</ele>
        <time>2012-02-24T09:54:02.000Z</time>
      </trkpt>
      <trkpt lat="45.4195" lon="4.22956">
        <ele>733</ele>
        <time>2012-02-24T09:54:06.000Z</time>
      </trkpt>
      <trkpt lat="45.41955" lon="4.22951">
        <ele>732.59997558594</ele>
        <time>2012-02-24T09:54:10.000Z</time>
      </trkpt>
      <trkpt lat="45.41963" lon="4.22949">
        <ele>732</ele>
        <time>2012-02-24T09:54:15.000Z</time>
      </trkpt>
      <trkpt lat="45.41965" lon="4.22949">
        <ele>731.79998779297</ele>
        <time>2012-02-24T09:54:16.000Z</time>
      </trkpt>
      <trkpt lat="45.4197" lon="4.22948">
        <ele>731.59997558594</ele>
        <time>2012-02-24T09:54:19.000Z</time>
      </trkpt>
      <trkpt lat="45.41983" lon="4.22949">
        <ele>730.59997558594</ele>
        <time>2012-02-24T09:54:26.000Z</time>
      </trkpt>
      <trkpt lat="45.41985" lon="4.22949">
        <ele>730.40002441406</ele>
        <time>2012-02-24T09:54:27.000Z</time>
      </trkpt>
      <trkpt lat="45.41999" lon="4.22951">
        <ele>729.40002441406</ele>
        <time>2012-02-24T09:54:33.000Z</time>
      </trkpt>
      <trkpt lat="45.42009" lon="4.22954">
        <ele>729.20001220703</ele>
        <time>2012-02-24T09:54:38.000Z</time>
      </trkpt>
      <trkpt lat="45.42019" lon="4.22958">
        <ele>729.40002441406</ele>
        <time>2012-02-24T09:54:44.000Z</time>
      </trkpt>
      <trkpt lat="45.42023" lon="4.22958">
        <ele>729.40002441406</ele>
        <time>2012-02-24T09:54:46.000Z</time>
      </trkpt>
      <trkpt lat="45.42026" lon="4.22959">
        <ele>729.40002441406</ele>
        <time>2012-02-24T09:54:50.000Z</time>
      </trkpt>
      <trkpt lat="45.42032" lon="4.22963">
        <ele>729.40002441406</ele>
        <time>2012-02-24T09:54:58.000Z</time>
      </trkpt>
      <trkpt lat="45.42039" lon="4.22973">
        <ele>729.79998779297</ele>
        <time>2012-02-24T09:55:02.000Z</time>
      </trkpt>
      <trkpt lat="45.42045" lon="4.22976">
        <ele>729.79998779297</ele>
        <time>2012-02-24T09:55:06.000Z</time>
      </trkpt>
      <trkpt lat="45.42049" lon="4.22975">
        <ele>729.59997558594</ele>
        <time>2012-02-24T09:55:10.000Z</time>
      </trkpt>
      <trkpt lat="45.42058" lon="4.22978">
        <ele>729.59997558594</ele>
        <time>2012-02-24T09:55:17.000Z</time>
      </trkpt>
      <trkpt lat="45.4207" lon="4.22976">
        <ele>729.59997558594</ele>
        <time>2012-02-24T09:55:25.000Z</time>
      </trkpt>
      <trkpt lat="45.42071" lon="4.22976">
        <ele>729.59997558594</ele>
        <time>2012-02-24T09:55:28.000Z</time>
      </trkpt>
      <trkpt lat="45.42083" lon="4.22976">
        <ele>729.40002441406</ele>
        <time>2012-02-24T09:55:50.000Z</time>
      </trkpt>
      <trkpt lat="45.4209" lon="4.22974">
        <ele>728.59997558594</ele>
        <time>2012-02-24T09:55:54.000Z</time>
      </trkpt>
      <trkpt lat="45.421" lon="4.22974">
        <ele>727.20001220703</ele>
        <time>2012-02-24T09:56:01.000Z</time>
      </trkpt>
      <trkpt lat="45.42102" lon="4.22976">
        <ele>727</ele>
        <time>2012-02-24T09:56:05.000Z</time>
      </trkpt>
      <trkpt lat="45.42099" lon="4.22975">
        <ele>727.40002441406</ele>
        <time>2012-02-24T09:56:09.000Z</time>
      </trkpt>
      <trkpt lat="45.42097" lon="4.22975">
        <ele>727.79998779297</ele>
        <time>2012-02-24T09:56:14.000Z</time>
      </trkpt>
      <trkpt lat="45.42086" lon="4.22973">
        <ele>729</ele>
        <time>2012-02-24T09:58:01.000Z</time>
      </trkpt>
      <trkpt lat="45.42084" lon="4.22974">
        <ele>729.40002441406</ele>
        <time>2012-02-24T09:58:02.000Z</time>
      </trkpt>
      <trkpt lat="45.42076" lon="4.22977">
        <ele>729.59997558594</ele>
        <time>2012-02-24T09:58:08.000Z</time>
      </trkpt>
      <trkpt lat="45.42075" lon="4.22977">
        <ele>729.59997558594</ele>
        <time>2012-02-24T09:58:09.000Z</time>
      </trkpt>
      <trkpt lat="45.42069" lon="4.22978">
        <ele>729.59997558594</ele>
        <time>2012-02-24T09:58:14.000Z</time>
      </trkpt>
      <trkpt lat="45.42062" lon="4.22979">
        <ele>729.59997558594</ele>
        <time>2012-02-24T09:58:20.000Z</time>
      </trkpt>
      <trkpt lat="45.42058" lon="4.22979">
        <ele>729.79998779297</ele>
        <time>2012-02-24T09:58:25.000Z</time>
      </trkpt>
      <trkpt lat="45.42052" lon="4.22977">
        <ele>729.79998779297</ele>
        <time>2012-02-24T09:58:29.000Z</time>
      </trkpt>
      <trkpt lat="45.42045" lon="4.22976">
        <ele>729.79998779297</ele>
        <time>2012-02-24T09:58:34.000Z</time>
      </trkpt>
      <trkpt lat="45.42038" lon="4.22975">
        <ele>729.79998779297</ele>
        <time>2012-02-24T09:58:40.000Z</time>
      </trkpt>
      <trkpt lat="45.42034" lon="4.22974">
        <ele>729.79998779297</ele>
        <time>2012-02-24T09:58:43.000Z</time>
      </trkpt>
      <trkpt lat="45.4202" lon="4.22968">
        <ele>729.79998779297</ele>
        <time>2012-02-24T09:58:53.000Z</time>
      </trkpt>
      <trkpt lat="45.42012" lon="4.22961">
        <ele>729.59997558594</ele>
        <time>2012-02-24T09:59:01.000Z</time>
      </trkpt>
      <trkpt lat="45.4201" lon="4.22959">
        <ele>729.40002441406</ele>
        <time>2012-02-24T09:59:02.000Z</time>
      </trkpt>
      <trkpt lat="45.42007" lon="4.22958">
        <ele>729.40002441406</ele>
        <time>2012-02-24T09:59:04.000Z</time>
      </trkpt>
      <trkpt lat="45.42005" lon="4.22956">
        <ele>729.40002441406</ele>
        <time>2012-02-24T09:59:06.000Z</time>
      </trkpt>
      <trkpt lat="45.41998" lon="4.22956">
        <ele>729.59997558594</ele>
        <time>2012-02-24T09:59:11.000Z</time>
      </trkpt>
      <trkpt lat="45.41991" lon="4.22955">
        <ele>730</ele>
        <time>2012-02-24T09:59:16.000Z</time>
      </trkpt>
      <trkpt lat="45.41986" lon="4.22956">
        <ele>730.40002441406</ele>
        <time>2012-02-24T09:59:19.000Z</time>
      </trkpt>
      <trkpt lat="45.41976" lon="4.22955">
        <ele>731.20001220703</ele>
        <time>2012-02-24T09:59:26.000Z</time>
      </trkpt>
      <trkpt lat="45.4197" lon="4.22954">
        <ele>731.59997558594</ele>
        <time>2012-02-24T09:59:30.000Z</time>
      </trkpt>
      <trkpt lat="45.41968" lon="4.22954">
        <ele>731.79998779297</ele>
        <time>2012-02-24T09:59:32.000Z</time>
      </trkpt>
      <trkpt lat="45.41963" lon="4.22957">
        <ele>732.20001220703</ele>
        <time>2012-02-24T09:59:36.000Z</time>
      </trkpt>
      <trkpt lat="45.41956" lon="4.22957">
        <ele>732.59997558594</ele>
        <time>2012-02-24T09:59:41.000Z</time>
      </trkpt>
      <trkpt lat="45.41951" lon="4.22958">
        <ele>733</ele>
        <time>2012-02-24T09:59:47.000Z</time>
      </trkpt>
      <trkpt lat="45.4195" lon="4.22958">
        <ele>733</ele>
        <time>2012-02-24T09:59:48.000Z</time>
      </trkpt>
      <trkpt lat="45.41946" lon="4.22961">
        <ele>733.40002441406</ele>
        <time>2012-02-24T09:59:52.000Z</time>
      </trkpt>
      <trkpt lat="45.41942" lon="4.22964">
        <ele>733.59997558594</ele>
        <time>2012-02-24T09:59:56.000Z</time>
      </trkpt>
      <trkpt lat="45.41941" lon="4.22964">
        <ele>733.79998779297</ele>
        <time>2012-02-24T09:59:57.000Z</time>
      </trkpt>
      <trkpt lat="45.41937" lon="4.22966">
        <ele>734</ele>
        <time>2012-02-24T10:00:01.000Z</time>
      </trkpt>
      <trkpt lat="45.41933" lon="4.22969">
        <ele>734.20001220703</ele>
        <time>2012-02-24T10:00:04.000Z</time>
      </trkpt>
      <trkpt lat="45.41927" lon="4.22971">
        <ele>734.59997558594</ele>
        <time>2012-02-24T10:00:10.000Z</time>
      </trkpt>
      <trkpt lat="45.41924" lon="4.22971">
        <ele>734.79998779297</ele>
        <time>2012-02-24T10:00:13.000Z</time>
      </trkpt>
      <trkpt lat="45.41921" lon="4.2297">
        <ele>735</ele>
        <time>2012-02-24T10:00:16.000Z</time>
      </trkpt>
      <trkpt lat="45.41911" lon="4.22964">
        <ele>735.40002441406</ele>
        <time>2012-02-24T10:00:25.000Z</time>
      </trkpt>
      <trkpt lat="45.41904" lon="4.22958">
        <ele>735.59997558594</ele>
        <time>2012-02-24T10:00:32.000Z</time>
      </trkpt>
      <trkpt lat="45.41899" lon="4.22954">
        <ele>735.79998779297</ele>
        <time>2012-02-24T10:00:37.000Z</time>
      </trkpt>
      <trkpt lat="45.41893" lon="4.22949">
        <ele>736.20001220703</ele>
        <time>2012-02-24T10:00:43.000Z</time>
      </trkpt>
      <trkpt lat="45.41886" lon="4.22944">
        <ele>736.40002441406</ele>
        <time>2012-02-24T10:00:49.000Z</time>
      </trkpt>
      <trkpt lat="45.41882" lon="4.22942">
        <ele>736.59997558594</ele>
        <time>2012-02-24T10:00:52.000Z</time>
      </trkpt>
      <trkpt lat="45.41873" lon="4.2294">
        <ele>737</ele>
        <time>2012-02-24T10:01:00.000Z</time>
      </trkpt>
      <trkpt lat="45.41872" lon="4.2294">
        <ele>737</ele>
        <time>2012-02-24T10:01:01.000Z</time>
      </trkpt>
      <trkpt lat="45.4187" lon="4.2294">
        <ele>737</ele>
        <time>2012-02-24T10:01:03.000Z</time>
      </trkpt>
      <trkpt lat="45.41867" lon="4.22938">
        <ele>737.20001220703</ele>
        <time>2012-02-24T10:01:06.000Z</time>
      </trkpt>
      <trkpt lat="45.41857" lon="4.22941">
        <ele>737.40002441406</ele>
        <time>2012-02-24T10:01:14.000Z</time>
      </trkpt>
      <trkpt lat="45.41855" lon="4.22941">
        <ele>737.40002441406</ele>
        <time>2012-02-24T10:01:16.000Z</time>
      </trkpt>
      <trkpt lat="45.41844" lon="4.22941">
        <ele>737.59997558594</ele>
        <time>2012-02-24T10:01:24.000Z</time>
      </trkpt>
      <trkpt lat="45.4184" lon="4.2294">
        <ele>737.79998779297</ele>
        <time>2012-02-24T10:01:27.000Z</time>
      </trkpt>
      <trkpt lat="45.41829" lon="4.22933">
        <ele>738.59997558594</ele>
        <time>2012-02-24T10:01:35.000Z</time>
      </trkpt>
      <trkpt lat="45.41828" lon="4.22931">
        <ele>738.59997558594</ele>
        <time>2012-02-24T10:01:36.000Z</time>
      </trkpt>
      <trkpt lat="45.41823" lon="4.22925">
        <ele>739.20001220703</ele>
        <time>2012-02-24T10:01:43.000Z</time>
      </trkpt>
      <trkpt lat="45.4182" lon="4.22921">
        <ele>739.59997558594</ele>
        <time>2012-02-24T10:01:48.000Z</time>
      </trkpt>
      <trkpt lat="45.41819" lon="4.2292">
        <ele>739.59997558594</ele>
        <time>2012-02-24T10:01:49.000Z</time>
      </trkpt>
      <trkpt lat="45.41814" lon="4.22916">
        <ele>740</ele>
        <time>2012-02-24T10:01:55.000Z</time>
      </trkpt>
      <trkpt lat="45.41811" lon="4.22914">
        <ele>740</ele>
        <time>2012-02-24T10:01:58.000Z</time>
      </trkpt>
      <trkpt lat="45.41808" lon="4.2291">
        <ele>740</ele>
        <time>2012-02-24T10:02:03.000Z</time>
      </trkpt>
      <trkpt lat="45.41805" lon="4.22908">
        <ele>740.20001220703</ele>
        <time>2012-02-24T10:02:08.000Z</time>
      </trkpt>
      <trkpt lat="45.41805" lon="4.22908">
        <ele>740.20001220703</ele>
        <time>2012-02-24T10:02:09.000Z</time>
      </trkpt>
      <trkpt lat="45.41803" lon="4.22848">
        <ele>741</ele>
        <time>2012-02-24T10:03:00.000Z</time>
      </trkpt>
      <trkpt lat="45.41806" lon="4.22836">
        <ele>741</ele>
        <time>2012-02-24T10:03:07.000Z</time>
      </trkpt>
      <trkpt lat="45.41809" lon="4.22824">
        <ele>741</ele>
        <time>2012-02-24T10:03:15.000Z</time>
      </trkpt>
      <trkpt lat="45.41811" lon="4.22813">
        <ele>741</ele>
        <time>2012-02-24T10:03:23.000Z</time>
      </trkpt>
      <trkpt lat="45.41813" lon="4.22802">
        <ele>741</ele>
        <time>2012-02-24T10:03:31.000Z</time>
      </trkpt>
      <trkpt lat="45.41811" lon="4.22793">
        <ele>741.20001220703</ele>
        <time>2012-02-24T10:03:37.000Z</time>
      </trkpt>
      <trkpt lat="45.4181" lon="4.22785">
        <ele>741.40002441406</ele>
        <time>2012-02-24T10:03:43.000Z</time>
      </trkpt>
      <trkpt lat="45.41805" lon="4.22776">
        <ele>741.59997558594</ele>
        <time>2012-02-24T10:03:50.000Z</time>
      </trkpt>
      <trkpt lat="45.41803" lon="4.2277">
        <ele>742</ele>
        <time>2012-02-24T10:03:55.000Z</time>
      </trkpt>
      <trkpt lat="45.41801" lon="4.22767">
        <ele>742</ele>
        <time>2012-02-24T10:03:58.000Z</time>
      </trkpt>
      <trkpt lat="45.41797" lon="4.22758">
        <ele>742.40002441406</ele>
        <time>2012-02-24T10:04:04.000Z</time>
      </trkpt>
      <trkpt lat="45.41795" lon="4.22756">
        <ele>742.59997558594</ele>
        <time>2012-02-24T10:04:06.000Z</time>
      </trkpt>
      <trkpt lat="45.41793" lon="4.22749">
        <ele>743</ele>
        <time>2012-02-24T10:04:11.000Z</time>
      </trkpt>
      <trkpt lat="45.4179" lon="4.22741">
        <ele>743.40002441406</ele>
        <time>2012-02-24T10:04:18.000Z</time>
      </trkpt>
      <trkpt lat="45.41787" lon="4.22731">
        <ele>744.20001220703</ele>
        <time>2012-02-24T10:04:26.000Z</time>
      </trkpt>
      <trkpt lat="45.41784" lon="4.22726">
        <ele>744.59997558594</ele>
        <time>2012-02-24T10:04:31.000Z</time>
      </trkpt>
      <trkpt lat="45.4178" lon="4.22723">
        <ele>744.79998779297</ele>
        <time>2012-02-24T10:04:36.000Z</time>
      </trkpt>
      <trkpt lat="45.4178" lon="4.22722">
        <ele>745</ele>
        <time>2012-02-24T10:04:39.000Z</time>
      </trkpt>
      <trkpt lat="45.41773" lon="4.22718">
        <ele>745.40002441406</ele>
        <time>2012-02-24T10:05:22.000Z</time>
      </trkpt>
      <trkpt lat="45.41759" lon="4.22719">
        <ele>746</ele>
        <time>2012-02-24T10:05:28.000Z</time>
      </trkpt>
      <trkpt lat="45.41752" lon="4.22722">
        <ele>746.20001220703</ele>
        <time>2012-02-24T10:05:31.000Z</time>
      </trkpt>
      <trkpt lat="45.41742" lon="4.22724">
        <ele>746.20001220703</ele>
        <time>2012-02-24T10:05:36.000Z</time>
      </trkpt>
      <trkpt lat="45.41729" lon="4.22727">
        <ele>746</ele>
        <time>2012-02-24T10:05:42.000Z</time>
      </trkpt>
      <trkpt lat="45.41717" lon="4.22729">
        <ele>745.59997558594</ele>
        <time>2012-02-24T10:05:48.000Z</time>
      </trkpt>
      <trkpt lat="45.41707" lon="4.22732">
        <ele>745.40002441406</ele>
        <time>2012-02-24T10:05:53.000Z</time>
      </trkpt>
      <trkpt lat="45.41696" lon="4.22736">
        <ele>745</ele>
        <time>2012-02-24T10:05:58.000Z</time>
      </trkpt>
      <trkpt lat="45.41683" lon="4.2274">
        <ele>744.79998779297</ele>
        <time>2012-02-24T10:06:04.000Z</time>
      </trkpt>
      <trkpt lat="45.41671" lon="4.22743">
        <ele>744.40002441406</ele>
        <time>2012-02-24T10:06:10.000Z</time>
      </trkpt>
      <trkpt lat="45.41659" lon="4.22748">
        <ele>744.20001220703</ele>
        <time>2012-02-24T10:06:16.000Z</time>
      </trkpt>
      <trkpt lat="45.41646" lon="4.22754">
        <ele>744.40002441406</ele>
        <time>2012-02-24T10:06:22.000Z</time>
      </trkpt>
      <trkpt lat="45.41635" lon="4.22758">
        <ele>744.59997558594</ele>
        <time>2012-02-24T10:06:29.000Z</time>
      </trkpt>
      <trkpt lat="45.41624" lon="4.22762">
        <ele>744.79998779297</ele>
        <time>2012-02-24T10:06:36.000Z</time>
      </trkpt>
      <trkpt lat="45.41612" lon="4.22766">
        <ele>745</ele>
        <time>2012-02-24T10:06:42.000Z</time>
      </trkpt>
      <trkpt lat="45.41603" lon="4.22769">
        <ele>745</ele>
        <time>2012-02-24T10:06:47.000Z</time>
      </trkpt>
      <trkpt lat="45.41592" lon="4.22772">
        <ele>745.20001220703</ele>
        <time>2012-02-24T10:06:53.000Z</time>
      </trkpt>
      <trkpt lat="45.41583" lon="4.22775">
        <ele>745.40002441406</ele>
        <time>2012-02-24T10:06:58.000Z</time>
      </trkpt>
      <trkpt lat="45.41573" lon="4.22779">
        <ele>745.20001220703</ele>
        <time>2012-02-24T10:07:04.000Z</time>
      </trkpt>
      <trkpt lat="45.41565" lon="4.22782">
        <ele>745</ele>
        <time>2012-02-24T10:07:10.000Z</time>
      </trkpt>
      <trkpt lat="45.41562" lon="4.22783">
        <ele>744.79998779297</ele>
        <time>2012-02-24T10:07:13.000Z</time>
      </trkpt>
      <trkpt lat="45.41564" lon="4.2278">
        <ele>745</ele>
        <time>2012-02-24T10:07:18.000Z</time>
      </trkpt>
      <trkpt lat="45.41566" lon="4.22779">
        <ele>745</ele>
        <time>2012-02-24T10:07:22.000Z</time>
      </trkpt>
      <trkpt lat="45.41563" lon="4.22783">
        <ele>744.79998779297</ele>
        <time>2012-02-24T10:07:45.000Z</time>
      </trkpt>
      <trkpt lat="45.41553" lon="4.2279">
        <ele>744.40002441406</ele>
        <time>2012-02-24T10:07:49.000Z</time>
      </trkpt>
      <trkpt lat="45.4154" lon="4.22795">
        <ele>744.20001220703</ele>
        <time>2012-02-24T10:07:54.000Z</time>
      </trkpt>
      <trkpt lat="45.41523" lon="4.22805">
        <ele>743.40002441406</ele>
        <time>2012-02-24T10:08:01.000Z</time>
      </trkpt>
      <trkpt lat="45.4151" lon="4.22815">
        <ele>742.79998779297</ele>
        <time>2012-02-24T10:08:06.000Z</time>
      </trkpt>
      <trkpt lat="45.41501" lon="4.2282">
        <ele>742.40002441406</ele>
        <time>2012-02-24T10:08:10.000Z</time>
      </trkpt>
      <trkpt lat="45.41488" lon="4.2283">
        <ele>742.59997558594</ele>
        <time>2012-02-24T10:08:16.000Z</time>
      </trkpt>
      <trkpt lat="45.41476" lon="4.22838">
        <ele>742.40002441406</ele>
        <time>2012-02-24T10:08:22.000Z</time>
      </trkpt>
      <trkpt lat="45.41467" lon="4.22847">
        <ele>742</ele>
        <time>2012-02-24T10:08:27.000Z</time>
      </trkpt>
      <trkpt lat="45.41465" lon="4.22848">
        <ele>741.79998779297</ele>
        <time>2012-02-24T10:08:28.000Z</time>
      </trkpt>
      <trkpt lat="45.41456" lon="4.22856">
        <ele>741.40002441406</ele>
        <time>2012-02-24T10:08:33.000Z</time>
      </trkpt>
      <trkpt lat="45.4145" lon="4.22858">
        <ele>741.40002441406</ele>
        <time>2012-02-24T10:08:37.000Z</time>
      </trkpt>
      <trkpt lat="45.41446" lon="4.22863">
        <ele>740.79998779297</ele>
        <time>2012-02-24T10:08:42.000Z</time>
      </trkpt>
      <trkpt lat="45.41441" lon="4.22865">
        <ele>740.79998779297</ele>
        <time>2012-02-24T10:08:47.000Z</time>
      </trkpt>
      <trkpt lat="45.41437" lon="4.22864">
        <ele>740.79998779297</ele>
        <time>2012-02-24T10:08:51.000Z</time>
      </trkpt>
      <trkpt lat="45.41434" lon="4.22864">
        <ele>741</ele>
        <time>2012-02-24T10:08:54.000Z</time>
      </trkpt>
      <trkpt lat="45.41431" lon="4.22866">
        <ele>740.79998779297</ele>
        <time>2012-02-24T10:08:56.000Z</time>
      </trkpt>
      <trkpt lat="45.41429" lon="4.22872">
        <ele>740.20001220703</ele>
        <time>2012-02-24T10:09:00.000Z</time>
      </trkpt>
      <trkpt lat="45.41424" lon="4.22879">
        <ele>739.40002441406</ele>
        <time>2012-02-24T10:09:05.000Z</time>
      </trkpt>
      <trkpt lat="45.41426" lon="4.22885">
        <ele>738.79998779297</ele>
        <time>2012-02-24T10:09:11.000Z</time>
      </trkpt>
      <trkpt lat="45.41428" lon="4.22891">
        <ele>738</ele>
        <time>2012-02-24T10:09:16.000Z</time>
      </trkpt>
      <trkpt lat="45.41432" lon="4.22896">
        <ele>737.40002441406</ele>
        <time>2012-02-24T10:09:21.000Z</time>
      </trkpt>
      <trkpt lat="45.41434" lon="4.22899">
        <ele>737.20001220703</ele>
        <time>2012-02-24T10:09:24.000Z</time>
      </trkpt>
      <trkpt lat="45.41436" lon="4.22904">
        <ele>736.59997558594</ele>
        <time>2012-02-24T10:09:31.000Z</time>
      </trkpt>
      <trkpt lat="45.41424" lon="4.22881">
        <ele>739.20001220703</ele>
        <time>2012-02-24T10:11:35.000Z</time>
      </trkpt>
      <trkpt lat="45.41423" lon="4.22873">
        <ele>740.20001220703</ele>
        <time>2012-02-24T10:11:39.000Z</time>
      </trkpt>
      <trkpt lat="45.41423" lon="4.22872">
        <ele>740.40002441406</ele>
        <time>2012-02-24T10:11:42.000Z</time>
      </trkpt>
      <trkpt lat="45.41412" lon="4.2288">
        <ele>739</ele>
        <time>2012-02-24T10:11:57.000Z</time>
      </trkpt>
      <trkpt lat="45.41403" lon="4.22885">
        <ele>737.40002441406</ele>
        <time>2012-02-24T10:12:01.000Z</time>
      </trkpt>
      <trkpt lat="45.41396" lon="4.22887">
        <ele>736.20001220703</ele>
        <time>2012-02-24T10:12:05.000Z</time>
      </trkpt>
      <trkpt lat="45.41388" lon="4.22885">
        <ele>735.79998779297</ele>
        <time>2012-02-24T10:12:10.000Z</time>
      </trkpt>
      <trkpt lat="45.41384" lon="4.22885">
        <ele>735.20001220703</ele>
        <time>2012-02-24T10:12:12.000Z</time>
      </trkpt>
      <trkpt lat="45.41379" lon="4.22882">
        <ele>735.20001220703</ele>
        <time>2012-02-24T10:12:18.000Z</time>
      </trkpt>
      <trkpt lat="45.41376" lon="4.22881">
        <ele>735</ele>
        <time>2012-02-24T10:12:24.000Z</time>
      </trkpt>
      <trkpt lat="45.41366" lon="4.22874">
        <ele>735</ele>
        <time>2012-02-24T10:12:38.000Z</time>
      </trkpt>
      <trkpt lat="45.41364" lon="4.22873">
        <ele>735</ele>
        <time>2012-02-24T10:12:39.000Z</time>
      </trkpt>
      <trkpt lat="45.41361" lon="4.22872">
        <ele>734.79998779297</ele>
        <time>2012-02-24T10:12:42.000Z</time>
      </trkpt>
      <trkpt lat="45.41358" lon="4.2287">
        <ele>734.79998779297</ele>
        <time>2012-02-24T10:12:45.000Z</time>
      </trkpt>
      <trkpt lat="45.4135" lon="4.22865">
        <ele>734.79998779297</ele>
        <time>2012-02-24T10:12:50.000Z</time>
      </trkpt>
      <trkpt lat="45.41343" lon="4.2286">
        <ele>735</ele>
        <time>2012-02-24T10:12:55.000Z</time>
      </trkpt>
      <trkpt lat="45.41334" lon="4.22856">
        <ele>735</ele>
        <time>2012-02-24T10:13:00.000Z</time>
      </trkpt>
      <trkpt lat="45.41324" lon="4.22853">
        <ele>734</ele>
        <time>2012-02-24T10:13:06.000Z</time>
      </trkpt>
      <trkpt lat="45.41314" lon="4.22848">
        <ele>733.20001220703</ele>
        <time>2012-02-24T10:13:12.000Z</time>
      </trkpt>
      <trkpt lat="45.41304" lon="4.22848">
        <ele>731.79998779297</ele>
        <time>2012-02-24T10:13:17.000Z</time>
      </trkpt>
      <trkpt lat="45.41301" lon="4.22847">
        <ele>731.40002441406</ele>
        <time>2012-02-24T10:13:19.000Z</time>
      </trkpt>
      <trkpt lat="45.41294" lon="4.22835">
        <ele>732.79998779297</ele>
        <time>2012-02-24T10:13:26.000Z</time>
      </trkpt>
      <trkpt lat="45.41286" lon="4.22829">
        <ele>733</ele>
        <time>2012-02-24T10:13:32.000Z</time>
      </trkpt>
      <trkpt lat="45.41278" lon="4.22826">
        <ele>732.20001220703</ele>
        <time>2012-02-24T10:13:37.000Z</time>
      </trkpt>
      <trkpt lat="45.41275" lon="4.22826">
        <ele>731.79998779297</ele>
        <time>2012-02-24T10:13:39.000Z</time>
      </trkpt>
      <trkpt lat="45.41269" lon="4.22827">
        <ele>730.79998779297</ele>
        <time>2012-02-24T10:13:44.000Z</time>
      </trkpt>
      <trkpt lat="45.41265" lon="4.22829">
        <ele>730</ele>
        <time>2012-02-24T10:13:47.000Z</time>
      </trkpt>
      <trkpt lat="45.41258" lon="4.2283">
        <ele>728.79998779297</ele>
        <time>2012-02-24T10:13:53.000Z</time>
      </trkpt>
      <trkpt lat="45.41251" lon="4.22829">
        <ele>728</ele>
        <time>2012-02-24T10:13:58.000Z</time>
      </trkpt>
      <trkpt lat="45.41245" lon="4.2283">
        <ele>727.20001220703</ele>
        <time>2012-02-24T10:14:02.000Z</time>
      </trkpt>
      <trkpt lat="45.41242" lon="4.22832">
        <ele>726.59997558594</ele>
        <time>2012-02-24T10:14:04.000Z</time>
      </trkpt>
      <trkpt lat="45.41239" lon="4.22835">
        <ele>725.79998779297</ele>
        <time>2012-02-24T10:14:07.000Z</time>
      </trkpt>
      <trkpt lat="45.41232" lon="4.2284">
        <ele>723.79998779297</ele>
        <time>2012-02-24T10:14:13.000Z</time>
      </trkpt>
      <trkpt lat="45.4123" lon="4.22843">
        <ele>723</ele>
        <time>2012-02-24T10:14:15.000Z</time>
      </trkpt>
      <trkpt lat="45.41227" lon="4.22847">
        <ele>722</ele>
        <time>2012-02-24T10:14:17.000Z</time>
      </trkpt>
      <trkpt lat="45.4122" lon="4.22849">
        <ele>720.79998779297</ele>
        <time>2012-02-24T10:14:23.000Z</time>
      </trkpt>
      <trkpt lat="45.41216" lon="4.2285">
        <ele>720.59997558594</ele>
        <time>2012-02-24T10:14:26.000Z</time>
      </trkpt>
      <trkpt lat="45.41208" lon="4.22849">
        <ele>720.20001220703</ele>
        <time>2012-02-24T10:14:32.000Z</time>
      </trkpt>
      <trkpt lat="45.41207" lon="4.22849">
        <ele>720.20001220703</ele>
        <time>2012-02-24T10:14:33.000Z</time>
      </trkpt>
      <trkpt lat="45.41202" lon="4.22849">
        <ele>719.59997558594</ele>
        <time>2012-02-24T10:14:38.000Z</time>
      </trkpt>
      <trkpt lat="45.41193" lon="4.22848">
        <ele>719.40002441406</ele>
        <time>2012-02-24T10:14:44.000Z</time>
      </trkpt>
      <trkpt lat="45.41192" lon="4.22847">
        <ele>719.40002441406</ele>
        <time>2012-02-24T10:14:45.000Z</time>
      </trkpt>
      <trkpt lat="45.4119" lon="4.22843">
        <ele>720</ele>
        <time>2012-02-24T10:14:50.000Z</time>
      </trkpt>
      <trkpt lat="45.41183" lon="4.22841">
        <ele>720</ele>
        <time>2012-02-24T10:14:56.000Z</time>
      </trkpt>
      <trkpt lat="45.41181" lon="4.22841">
        <ele>719.79998779297</ele>
        <time>2012-02-24T10:14:57.000Z</time>
      </trkpt>
      <trkpt lat="45.41179" lon="4.22841">
        <ele>719.59997558594</ele>
        <time>2012-02-24T10:14:59.000Z</time>
      </trkpt>
      <trkpt lat="45.41172" lon="4.22842">
        <ele>718.79998779297</ele>
        <time>2012-02-24T10:15:04.000Z</time>
      </trkpt>
      <trkpt lat="45.4117" lon="4.22843">
        <ele>718.40002441406</ele>
        <time>2012-02-24T10:15:06.000Z</time>
      </trkpt>
      <trkpt lat="45.41162" lon="4.2285">
        <ele>717.79998779297</ele>
        <time>2012-02-24T10:15:13.000Z</time>
      </trkpt>
      <trkpt lat="45.4116" lon="4.22856">
        <ele>717.20001220703</ele>
        <time>2012-02-24T10:15:15.000Z</time>
      </trkpt>
      <trkpt lat="45.41159" lon="4.22862">
        <ele>716.20001220703</ele>
        <time>2012-02-24T10:15:19.000Z</time>
      </trkpt>
      <trkpt lat="45.41157" lon="4.22876">
        <ele>714</ele>
        <time>2012-02-24T10:15:25.000Z</time>
      </trkpt>
      <trkpt lat="45.41157" lon="4.22878">
        <ele>713.59997558594</ele>
        <time>2012-02-24T10:15:26.000Z</time>
      </trkpt>
      <trkpt lat="45.41155" lon="4.22892">
        <ele>711.40002441406</ele>
        <time>2012-02-24T10:15:32.000Z</time>
      </trkpt>
      <trkpt lat="45.41154" lon="4.22903">
        <ele>709.59997558594</ele>
        <time>2012-02-24T10:15:37.000Z</time>
      </trkpt>
      <trkpt lat="45.41151" lon="4.22917">
        <ele>707.40002441406</ele>
        <time>2012-02-24T10:15:42.000Z</time>
      </trkpt>
      <trkpt lat="45.4115" lon="4.22924">
        <ele>706.20001220703</ele>
        <time>2012-02-24T10:15:45.000Z</time>
      </trkpt>
      <trkpt lat="45.41147" lon="4.22941">
        <ele>703.40002441406</ele>
        <time>2012-02-24T10:15:51.000Z</time>
      </trkpt>
      <trkpt lat="45.41148" lon="4.22949">
        <ele>701.79998779297</ele>
        <time>2012-02-24T10:15:58.000Z</time>
      </trkpt>
      <trkpt lat="45.41149" lon="4.22952">
        <ele>701</ele>
        <time>2012-02-24T10:15:59.000Z</time>
      </trkpt>
      <trkpt lat="45.41148" lon="4.22967">
        <ele>698.40002441406</ele>
        <time>2012-02-24T10:16:04.000Z</time>
      </trkpt>
      <trkpt lat="45.41145" lon="4.22977">
        <ele>696.59997558594</ele>
        <time>2012-02-24T10:16:08.000Z</time>
      </trkpt>
      <trkpt lat="45.41142" lon="4.22981">
        <ele>696.20001220703</ele>
        <time>2012-02-24T10:16:10.000Z</time>
      </trkpt>
      <trkpt lat="45.41142" lon="4.22988">
        <ele>694.79998779297</ele>
        <time>2012-02-24T10:16:14.000Z</time>
      </trkpt>
      <trkpt lat="45.41144" lon="4.22994">
        <ele>693.40002441406</ele>
        <time>2012-02-24T10:16:19.000Z</time>
      </trkpt>
      <trkpt lat="45.41147" lon="4.23005">
        <ele>691</ele>
        <time>2012-02-24T10:16:25.000Z</time>
      </trkpt>
      <trkpt lat="45.41147" lon="4.23016">
        <ele>688.59997558594</ele>
        <time>2012-02-24T10:16:31.000Z</time>
      </trkpt>
      <trkpt lat="45.41151" lon="4.23028">
        <ele>686</ele>
        <time>2012-02-24T10:16:36.000Z</time>
      </trkpt>
      <trkpt lat="45.41155" lon="4.23044">
        <ele>682.79998779297</ele>
        <time>2012-02-24T10:16:42.000Z</time>
      </trkpt>
      <trkpt lat="45.41156" lon="4.23047">
        <ele>682.20001220703</ele>
        <time>2012-02-24T10:16:43.000Z</time>
      </trkpt>
      <trkpt lat="45.41159" lon="4.23063">
        <ele>679</ele>
        <time>2012-02-24T10:16:48.000Z</time>
      </trkpt>
      <trkpt lat="45.4116" lon="4.23065">
        <ele>678.40002441406</ele>
        <time>2012-02-24T10:16:49.000Z</time>
      </trkpt>
      <trkpt lat="45.41167" lon="4.23082">
        <ele>675</ele>
        <time>2012-02-24T10:16:55.000Z</time>
      </trkpt>
      <trkpt lat="45.41168" lon="4.23086">
        <ele>674.40002441406</ele>
        <time>2012-02-24T10:16:56.000Z</time>
      </trkpt>
      <trkpt lat="45.41169" lon="4.23091">
        <ele>673.40002441406</ele>
        <time>2012-02-24T10:16:58.000Z</time>
      </trkpt>
      <trkpt lat="45.41167" lon="4.23089">
        <ele>674</ele>
        <time>2012-02-24T10:17:02.000Z</time>
      </trkpt>
      <trkpt lat="45.41166" lon="4.23087">
        <ele>674.59997558594</ele>
        <time>2012-02-24T10:17:04.000Z</time>
      </trkpt>
      <trkpt lat="45.41162" lon="4.23088">
        <ele>674.20001220703</ele>
        <time>2012-02-24T10:17:13.000Z</time>
      </trkpt>
      <trkpt lat="45.41163" lon="4.23091">
        <ele>673.79998779297</ele>
        <time>2012-02-24T10:17:34.000Z</time>
      </trkpt>
      <trkpt lat="45.41164" lon="4.2309">
        <ele>674</ele>
        <time>2012-02-24T10:17:35.000Z</time>
      </trkpt>
      <trkpt lat="45.41169" lon="4.23077">
        <ele>675.79998779297</ele>
        <time>2012-02-24T10:17:41.000Z</time>
      </trkpt>
      <trkpt lat="45.41171" lon="4.23063">
        <ele>677.79998779297</ele>
        <time>2012-02-24T10:17:46.000Z</time>
      </trkpt>
      <trkpt lat="45.4117" lon="4.23052">
        <ele>680</ele>
        <time>2012-02-24T10:17:50.000Z</time>
      </trkpt>
      <trkpt lat="45.4117" lon="4.23045">
        <ele>681.40002441406</ele>
        <time>2012-02-24T10:17:53.000Z</time>
      </trkpt>
      <trkpt lat="45.41175" lon="4.2303">
        <ele>683.40002441406</ele>
        <time>2012-02-24T10:17:59.000Z</time>
      </trkpt>
      <trkpt lat="45.41176" lon="4.23025">
        <ele>684.20001220703</ele>
        <time>2012-02-24T10:18:01.000Z</time>
      </trkpt>
      <trkpt lat="45.4118" lon="4.23007">
        <ele>687</ele>
        <time>2012-02-24T10:18:07.000Z</time>
      </trkpt>
      <trkpt lat="45.41183" lon="4.22991">
        <ele>689.79998779297</ele>
        <time>2012-02-24T10:18:13.000Z</time>
      </trkpt>
      <trkpt lat="45.41184" lon="4.22989">
        <ele>690.20001220703</ele>
        <time>2012-02-24T10:18:14.000Z</time>
      </trkpt>
      <trkpt lat="45.4119" lon="4.22969">
        <ele>694</ele>
        <time>2012-02-24T10:18:21.000Z</time>
      </trkpt>
      <trkpt lat="45.41194" lon="4.22957">
        <ele>696.40002441406</ele>
        <time>2012-02-24T10:18:26.000Z</time>
      </trkpt>
      <trkpt lat="45.41195" lon="4.22957">
        <ele>696.40002441406</ele>
        <time>2012-02-24T10:18:27.000Z</time>
      </trkpt>
      <trkpt lat="45.41201" lon="4.2296">
        <ele>695.40002441406</ele>
        <time>2012-02-24T10:18:33.000Z</time>
      </trkpt>
      <trkpt lat="45.41202" lon="4.22961">
        <ele>695</ele>
        <time>2012-02-24T10:18:34.000Z</time>
      </trkpt>
      <trkpt lat="45.41208" lon="4.22963">
        <ele>694.20001220703</ele>
        <time>2012-02-24T10:18:39.000Z</time>
      </trkpt>
      <trkpt lat="45.41209" lon="4.22971">
        <ele>692</ele>
        <time>2012-02-24T10:18:47.000Z</time>
      </trkpt>
      <trkpt lat="45.41208" lon="4.22971">
        <ele>692.20001220703</ele>
        <time>2012-02-24T10:18:51.000Z</time>
      </trkpt>
      <trkpt lat="45.41207" lon="4.22969">
        <ele>692.79998779297</ele>
        <time>2012-02-24T10:18:54.000Z</time>
      </trkpt>
      <trkpt lat="45.41212" lon="4.22978">
        <ele>690.20001220703</ele>
        <time>2012-02-24T10:19:06.000Z</time>
      </trkpt>
      <trkpt lat="45.4122" lon="4.22989">
        <ele>686.59997558594</ele>
        <time>2012-02-24T10:19:11.000Z</time>
      </trkpt>
      <trkpt lat="45.41226" lon="4.22996">
        <ele>684</ele>
        <time>2012-02-24T10:19:16.000Z</time>
      </trkpt>
      <trkpt lat="45.4123" lon="4.23003">
        <ele>681.59997558594</ele>
        <time>2012-02-24T10:19:20.000Z</time>
      </trkpt>
      <trkpt lat="45.41237" lon="4.23007">
        <ele>679.79998779297</ele>
        <time>2012-02-24T10:19:24.000Z</time>
      </trkpt>
      <trkpt lat="45.41247" lon="4.23015">
        <ele>676.40002441406</ele>
        <time>2012-02-24T10:19:30.000Z</time>
      </trkpt>
      <trkpt lat="45.41249" lon="4.23016">
        <ele>676</ele>
        <time>2012-02-24T10:19:31.000Z</time>
      </trkpt>
      <trkpt lat="45.41252" lon="4.23019">
        <ele>675.20001220703</ele>
        <time>2012-02-24T10:19:33.000Z</time>
      </trkpt>
      <trkpt lat="45.41259" lon="4.23029">
        <ele>673.40002441406</ele>
        <time>2012-02-24T10:19:40.000Z</time>
      </trkpt>
      <trkpt lat="45.41263" lon="4.23033">
        <ele>672.59997558594</ele>
        <time>2012-02-24T10:19:43.000Z</time>
      </trkpt>
      <trkpt lat="45.41277" lon="4.23036">
        <ele>673</ele>
        <time>2012-02-24T10:19:49.000Z</time>
      </trkpt>
      <trkpt lat="45.41285" lon="4.2304">
        <ele>672.79998779297</ele>
        <time>2012-02-24T10:19:53.000Z</time>
      </trkpt>
      <trkpt lat="45.41286" lon="4.23041">
        <ele>672.40002441406</ele>
        <time>2012-02-24T10:19:54.000Z</time>
      </trkpt>
      <trkpt lat="45.41293" lon="4.23043">
        <ele>672.40002441406</ele>
        <time>2012-02-24T10:19:58.000Z</time>
      </trkpt>
      <trkpt lat="45.41296" lon="4.23044">
        <ele>672.20001220703</ele>
        <time>2012-02-24T10:20:02.000Z</time>
      </trkpt>
      <trkpt lat="45.41296" lon="4.23045">
        <ele>672.20001220703</ele>
        <time>2012-02-24T10:20:05.000Z</time>
      </trkpt>
      <trkpt lat="45.41293" lon="4.23045">
        <ele>671.79998779297</ele>
        <time>2012-02-24T10:20:55.000Z</time>
      </trkpt>
      <trkpt lat="45.41293" lon="4.23046">
        <ele>671.40002441406</ele>
        <time>2012-02-24T10:20:58.000Z</time>
      </trkpt>
      <trkpt lat="45.41303" lon="4.23042">
        <ele>673.59997558594</ele>
        <time>2012-02-24T10:21:43.000Z</time>
      </trkpt>
      <trkpt lat="45.41316" lon="4.23042">
        <ele>675</ele>
        <time>2012-02-24T10:21:47.000Z</time>
      </trkpt>
      <trkpt lat="45.4133" lon="4.23043">
        <ele>675.59997558594</ele>
        <time>2012-02-24T10:21:52.000Z</time>
      </trkpt>
      <trkpt lat="45.41345" lon="4.23044">
        <ele>677.40002441406</ele>
        <time>2012-02-24T10:21:58.000Z</time>
      </trkpt>
      <trkpt lat="45.41349" lon="4.23048">
        <ele>677</ele>
        <time>2012-02-24T10:22:01.000Z</time>
      </trkpt>
      <trkpt lat="45.41359" lon="4.2306">
        <ele>674</ele>
        <time>2012-02-24T10:22:07.000Z</time>
      </trkpt>
      <trkpt lat="45.41366" lon="4.23063">
        <ele>673.59997558594</ele>
        <time>2012-02-24T10:22:10.000Z</time>
      </trkpt>
      <trkpt lat="45.41377" lon="4.23075">
        <ele>671.20001220703</ele>
        <time>2012-02-24T10:22:16.000Z</time>
      </trkpt>
      <trkpt lat="45.41378" lon="4.23077">
        <ele>670.59997558594</ele>
        <time>2012-02-24T10:22:17.000Z</time>
      </trkpt>
      <trkpt lat="45.4138" lon="4.23089">
        <ele>666.59997558594</ele>
        <time>2012-02-24T10:22:21.000Z</time>
      </trkpt>
      <trkpt lat="45.41382" lon="4.23107">
        <ele>662</ele>
        <time>2012-02-24T10:22:27.000Z</time>
      </trkpt>
      <trkpt lat="45.41386" lon="4.23122">
        <ele>658.59997558594</ele>
        <time>2012-02-24T10:22:32.000Z</time>
      </trkpt>
      <trkpt lat="45.4139" lon="4.23136">
        <ele>655</ele>
        <time>2012-02-24T10:22:37.000Z</time>
      </trkpt>
      <trkpt lat="45.41395" lon="4.23144">
        <ele>653.59997558594</ele>
        <time>2012-02-24T10:22:42.000Z</time>
      </trkpt>
      <trkpt lat="45.41404" lon="4.23143">
        <ele>655</ele>
        <time>2012-02-24T10:22:46.000Z</time>
      </trkpt>
      <trkpt lat="45.41416" lon="4.23141">
        <ele>657.79998779297</ele>
        <time>2012-02-24T10:22:52.000Z</time>
      </trkpt>
      <trkpt lat="45.41427" lon="4.23136">
        <ele>660.40002441406</ele>
        <time>2012-02-24T10:22:58.000Z</time>
      </trkpt>
      <trkpt lat="45.41429" lon="4.23136">
        <ele>660.79998779297</ele>
        <time>2012-02-24T10:22:59.000Z</time>
      </trkpt>
      <trkpt lat="45.41438" lon="4.23137">
        <ele>661.40002441406</ele>
        <time>2012-02-24T10:23:03.000Z</time>
      </trkpt>
      <trkpt lat="45.41446" lon="4.23137">
        <ele>662.40002441406</ele>
        <time>2012-02-24T10:23:08.000Z</time>
      </trkpt>
      <trkpt lat="45.41448" lon="4.23139">
        <ele>662</ele>
        <time>2012-02-24T10:23:11.000Z</time>
      </trkpt>
      <trkpt lat="45.41452" lon="4.2314">
        <ele>662.20001220703</ele>
        <time>2012-02-24T10:23:16.000Z</time>
      </trkpt>
      <trkpt lat="45.41456" lon="4.23139">
        <ele>662.79998779297</ele>
        <time>2012-02-24T10:23:20.000Z</time>
      </trkpt>
      <trkpt lat="45.41466" lon="4.23146">
        <ele>661.59997558594</ele>
        <time>2012-02-24T10:23:26.000Z</time>
      </trkpt>
      <trkpt lat="45.41472" lon="4.23153">
        <ele>660.20001220703</ele>
        <time>2012-02-24T10:23:30.000Z</time>
      </trkpt>
      <trkpt lat="45.41482" lon="4.23161">
        <ele>658.40002441406</ele>
        <time>2012-02-24T10:23:36.000Z</time>
      </trkpt>
      <trkpt lat="45.41489" lon="4.23164">
        <ele>657.79998779297</ele>
        <time>2012-02-24T10:23:40.000Z</time>
      </trkpt>
      <trkpt lat="45.41495" lon="4.23167">
        <ele>657.40002441406</ele>
        <time>2012-02-24T10:23:44.000Z</time>
      </trkpt>
      <trkpt lat="45.415" lon="4.23168">
        <ele>657.40002441406</ele>
        <time>2012-02-24T10:23:47.000Z</time>
      </trkpt>
      <trkpt lat="45.41513" lon="4.23169">
        <ele>656</ele>
        <time>2012-02-24T10:23:53.000Z</time>
      </trkpt>
      <trkpt lat="45.41524" lon="4.23168">
        <ele>655</ele>
        <time>2012-02-24T10:23:59.000Z</time>
      </trkpt>
      <trkpt lat="45.41533" lon="4.23163">
        <ele>656</ele>
        <time>2012-02-24T10:24:04.000Z</time>
      </trkpt>
      <trkpt lat="45.41542" lon="4.23158">
        <ele>657</ele>
        <time>2012-02-24T10:24:09.000Z</time>
      </trkpt>
      <trkpt lat="45.41549" lon="4.23154">
        <ele>658</ele>
        <time>2012-02-24T10:24:13.000Z</time>
      </trkpt>
      <trkpt lat="45.4156" lon="4.23141">
        <ele>661.40002441406</ele>
        <time>2012-02-24T10:24:19.000Z</time>
      </trkpt>
      <trkpt lat="45.41568" lon="4.23132">
        <ele>663.59997558594</ele>
        <time>2012-02-24T10:24:24.000Z</time>
      </trkpt>
      <trkpt lat="45.41577" lon="4.23123">
        <ele>666</ele>
        <time>2012-02-24T10:24:29.000Z</time>
      </trkpt>
      <trkpt lat="45.41579" lon="4.23119">
        <ele>667.20001220703</ele>
        <time>2012-02-24T10:24:31.000Z</time>
      </trkpt>
      <trkpt lat="45.41582" lon="4.23111">
        <ele>669.40002441406</ele>
        <time>2012-02-24T10:24:36.000Z</time>
      </trkpt>
      <trkpt lat="45.41586" lon="4.23111">
        <ele>669.79998779297</ele>
        <time>2012-02-24T10:24:40.000Z</time>
      </trkpt>
      <trkpt lat="45.41596" lon="4.23113">
        <ele>669.79998779297</ele>
        <time>2012-02-24T10:24:46.000Z</time>
      </trkpt>
      <trkpt lat="45.41598" lon="4.23114">
        <ele>669.79998779297</ele>
        <time>2012-02-24T10:24:47.000Z</time>
      </trkpt>
      <trkpt lat="45.41608" lon="4.23118">
        <ele>669.40002441406</ele>
        <time>2012-02-24T10:24:52.000Z</time>
      </trkpt>
      <trkpt lat="45.41618" lon="4.23122">
        <ele>669</ele>
        <time>2012-02-24T10:24:57.000Z</time>
      </trkpt>
      <trkpt lat="45.4162" lon="4.23123">
        <ele>668.79998779297</ele>
        <time>2012-02-24T10:24:58.000Z</time>
      </trkpt>
      <trkpt lat="45.41624" lon="4.23127">
        <ele>668.20001220703</ele>
        <time>2012-02-24T10:25:00.000Z</time>
      </trkpt>
      <trkpt lat="45.41635" lon="4.23132">
        <ele>667.40002441406</ele>
        <time>2012-02-24T10:25:05.000Z</time>
      </trkpt>
      <trkpt lat="45.41643" lon="4.23145">
        <ele>664.20001220703</ele>
        <time>2012-02-24T10:25:11.000Z</time>
      </trkpt>
      <trkpt lat="45.41645" lon="4.23155">
        <ele>661.40002441406</ele>
        <time>2012-02-24T10:25:15.000Z</time>
      </trkpt>
      <trkpt lat="45.41653" lon="4.23165">
        <ele>658.79998779297</ele>
        <time>2012-02-24T10:25:20.000Z</time>
      </trkpt>
      <trkpt lat="45.41662" lon="4.23177">
        <ele>656.59997558594</ele>
        <time>2012-02-24T10:25:26.000Z</time>
      </trkpt>
      <trkpt lat="45.41663" lon="4.23179">
        <ele>656.40002441406</ele>
        <time>2012-02-24T10:25:27.000Z</time>
      </trkpt>
      <trkpt lat="45.41672" lon="4.23196">
        <ele>654.79998779297</ele>
        <time>2012-02-24T10:25:34.000Z</time>
      </trkpt>
      <trkpt lat="45.41677" lon="4.23206">
        <ele>654.79998779297</ele>
        <time>2012-02-24T10:25:38.000Z</time>
      </trkpt>
      <trkpt lat="45.41683" lon="4.23215">
        <ele>654.79998779297</ele>
        <time>2012-02-24T10:25:42.000Z</time>
      </trkpt>
      <trkpt lat="45.4169" lon="4.23231">
        <ele>654.20001220703</ele>
        <time>2012-02-24T10:25:48.000Z</time>
      </trkpt>
      <trkpt lat="45.41695" lon="4.23243">
        <ele>653.20001220703</ele>
        <time>2012-02-24T10:25:52.000Z</time>
      </trkpt>
      <trkpt lat="45.41699" lon="4.2326">
        <ele>651.59997558594</ele>
        <time>2012-02-24T10:25:58.000Z</time>
      </trkpt>
      <trkpt lat="45.41702" lon="4.23268">
        <ele>651.40002441406</ele>
        <time>2012-02-24T10:26:01.000Z</time>
      </trkpt>
      <trkpt lat="45.41712" lon="4.2328">
        <ele>653.79998779297</ele>
        <time>2012-02-24T10:26:07.000Z</time>
      </trkpt>
      <trkpt lat="45.41714" lon="4.23282">
        <ele>654.40002441406</ele>
        <time>2012-02-24T10:26:08.000Z</time>
      </trkpt>
      <trkpt lat="45.41722" lon="4.2329">
        <ele>657.20001220703</ele>
        <time>2012-02-24T10:26:13.000Z</time>
      </trkpt>
      <trkpt lat="45.41727" lon="4.23299">
        <ele>658.20001220703</ele>
        <time>2012-02-24T10:26:17.000Z</time>
      </trkpt>
      <trkpt lat="45.41732" lon="4.23316">
        <ele>657.79998779297</ele>
        <time>2012-02-24T10:26:23.000Z</time>
      </trkpt>
      <trkpt lat="45.41733" lon="4.23319">
        <ele>657.79998779297</ele>
        <time>2012-02-24T10:26:24.000Z</time>
      </trkpt>
      <trkpt lat="45.41736" lon="4.23334">
        <ele>657</ele>
        <time>2012-02-24T10:26:31.000Z</time>
      </trkpt>
      <trkpt lat="45.41736" lon="4.23338">
        <ele>656.40002441406</ele>
        <time>2012-02-24T10:26:36.000Z</time>
      </trkpt>
      <trkpt lat="45.41742" lon="4.23358">
        <ele>656.79998779297</ele>
        <time>2012-02-24T10:27:40.000Z</time>
      </trkpt>
      <trkpt lat="45.41744" lon="4.23366">
        <ele>656.59997558594</ele>
        <time>2012-02-24T10:27:43.000Z</time>
      </trkpt>
      <trkpt lat="45.41747" lon="4.23381">
        <ele>656.20001220703</ele>
        <time>2012-02-24T10:27:48.000Z</time>
      </trkpt>
      <trkpt lat="45.41746" lon="4.23399">
        <ele>653</ele>
        <time>2012-02-24T10:27:54.000Z</time>
      </trkpt>
      <trkpt lat="45.41745" lon="4.23402">
        <ele>652.20001220703</ele>
        <time>2012-02-24T10:27:55.000Z</time>
      </trkpt>
      <trkpt lat="45.41745" lon="4.23414">
        <ele>650</ele>
        <time>2012-02-24T10:27:59.000Z</time>
      </trkpt>
      <trkpt lat="45.41741" lon="4.23433">
        <ele>645.59997558594</ele>
        <time>2012-02-24T10:28:05.000Z</time>
      </trkpt>
      <trkpt lat="45.41739" lon="4.23448">
        <ele>643</ele>
        <time>2012-02-24T10:28:10.000Z</time>
      </trkpt>
      <trkpt lat="45.41737" lon="4.23454">
        <ele>641.40002441406</ele>
        <time>2012-02-24T10:28:12.000Z</time>
      </trkpt>
      <trkpt lat="45.41734" lon="4.23464">
        <ele>638.59997558594</ele>
        <time>2012-02-24T10:28:16.000Z</time>
      </trkpt>
      <trkpt lat="45.41732" lon="4.23478">
        <ele>636</ele>
        <time>2012-02-24T10:28:21.000Z</time>
      </trkpt>
      <trkpt lat="45.41731" lon="4.2348">
        <ele>635.59997558594</ele>
        <time>2012-02-24T10:28:22.000Z</time>
      </trkpt>
      <trkpt lat="45.41732" lon="4.23494">
        <ele>634.59997558594</ele>
        <time>2012-02-24T10:28:28.000Z</time>
      </trkpt>
      <trkpt lat="45.41732" lon="4.23506">
        <ele>634.79998779297</ele>
        <time>2012-02-24T10:28:33.000Z</time>
      </trkpt>
      <trkpt lat="45.41733" lon="4.23515">
        <ele>635.79998779297</ele>
        <time>2012-02-24T10:28:36.000Z</time>
      </trkpt>
      <trkpt lat="45.41729" lon="4.23533">
        <ele>636.20001220703</ele>
        <time>2012-02-24T10:28:42.000Z</time>
      </trkpt>
      <trkpt lat="45.41723" lon="4.23552">
        <ele>635.59997558594</ele>
        <time>2012-02-24T10:28:49.000Z</time>
      </trkpt>
      <trkpt lat="45.41721" lon="4.23558">
        <ele>635.40002441406</ele>
        <time>2012-02-24T10:28:51.000Z</time>
      </trkpt>
      <trkpt lat="45.41712" lon="4.23571">
        <ele>632.79998779297</ele>
        <time>2012-02-24T10:28:57.000Z</time>
      </trkpt>
      <trkpt lat="45.41703" lon="4.23584">
        <ele>630.79998779297</ele>
        <time>2012-02-24T10:29:03.000Z</time>
      </trkpt>
      <trkpt lat="45.41699" lon="4.2359">
        <ele>629.59997558594</ele>
        <time>2012-02-24T10:29:06.000Z</time>
      </trkpt>
      <trkpt lat="45.4169" lon="4.2361">
        <ele>627.20001220703</ele>
        <time>2012-02-24T10:29:14.000Z</time>
      </trkpt>
      <trkpt lat="45.41683" lon="4.23623">
        <ele>626</ele>
        <time>2012-02-24T10:29:19.000Z</time>
      </trkpt>
      <trkpt lat="45.41677" lon="4.23636">
        <ele>624.79998779297</ele>
        <time>2012-02-24T10:29:24.000Z</time>
      </trkpt>
      <trkpt lat="45.41674" lon="4.23646">
        <ele>625</ele>
        <time>2012-02-24T10:29:28.000Z</time>
      </trkpt>
      <trkpt lat="45.41672" lon="4.23662">
        <ele>626.20001220703</ele>
        <time>2012-02-24T10:29:34.000Z</time>
      </trkpt>
      <trkpt lat="45.41671" lon="4.23675">
        <ele>625.40002441406</ele>
        <time>2012-02-24T10:29:38.000Z</time>
      </trkpt>
      <trkpt lat="45.41671" lon="4.23691">
        <ele>624</ele>
        <time>2012-02-24T10:29:43.000Z</time>
      </trkpt>
      <trkpt lat="45.41673" lon="4.237">
        <ele>623.59997558594</ele>
        <time>2012-02-24T10:29:48.000Z</time>
      </trkpt>
      <trkpt lat="45.41673" lon="4.23701">
        <ele>623.59997558594</ele>
        <time>2012-02-24T10:29:49.000Z</time>
      </trkpt>
      <trkpt lat="45.41677" lon="4.23713">
        <ele>623.40002441406</ele>
        <time>2012-02-24T10:29:54.000Z</time>
      </trkpt>
      <trkpt lat="45.41685" lon="4.23729">
        <ele>624.20001220703</ele>
        <time>2012-02-24T10:30:01.000Z</time>
      </trkpt>
      <trkpt lat="45.41686" lon="4.23732">
        <ele>624.40002441406</ele>
        <time>2012-02-24T10:30:02.000Z</time>
      </trkpt>
      <trkpt lat="45.41701" lon="4.23745">
        <ele>627</ele>
        <time>2012-02-24T10:30:09.000Z</time>
      </trkpt>
      <trkpt lat="45.41708" lon="4.23755">
        <ele>627.59997558594</ele>
        <time>2012-02-24T10:30:14.000Z</time>
      </trkpt>
      <trkpt lat="45.41713" lon="4.23764">
        <ele>627</ele>
        <time>2012-02-24T10:30:17.000Z</time>
      </trkpt>
      <trkpt lat="45.41722" lon="4.23776">
        <ele>627</ele>
        <time>2012-02-24T10:30:22.000Z</time>
      </trkpt>
      <trkpt lat="45.41729" lon="4.2378">
        <ele>628</ele>
        <time>2012-02-24T10:30:25.000Z</time>
      </trkpt>
      <trkpt lat="45.41741" lon="4.23783">
        <ele>630.59997558594</ele>
        <time>2012-02-24T10:30:31.000Z</time>
      </trkpt>
      <trkpt lat="45.41752" lon="4.23783">
        <ele>632.79998779297</ele>
        <time>2012-02-24T10:30:36.000Z</time>
      </trkpt>
      <trkpt lat="45.4176" lon="4.23784">
        <ele>631.79998779297</ele>
        <time>2012-02-24T10:30:40.000Z</time>
      </trkpt>
      <trkpt lat="45.41765" lon="4.23786">
        <ele>631.20001220703</ele>
        <time>2012-02-24T10:30:43.000Z</time>
      </trkpt>
      <trkpt lat="45.4178" lon="4.23784">
        <ele>630.59997558594</ele>
        <time>2012-02-24T10:30:50.000Z</time>
      </trkpt>
      <trkpt lat="45.41789" lon="4.23782">
        <ele>630.40002441406</ele>
        <time>2012-02-24T10:30:54.000Z</time>
      </trkpt>
      <trkpt lat="45.41793" lon="4.23783">
        <ele>630</ele>
        <time>2012-02-24T10:30:56.000Z</time>
      </trkpt>
      <trkpt lat="45.41802" lon="4.23781">
        <ele>629.79998779297</ele>
        <time>2012-02-24T10:31:01.000Z</time>
      </trkpt>
      <trkpt lat="45.41815" lon="4.23778">
        <ele>629.20001220703</ele>
        <time>2012-02-24T10:31:07.000Z</time>
      </trkpt>
      <trkpt lat="45.41826" lon="4.23775">
        <ele>629</ele>
        <time>2012-02-24T10:31:12.000Z</time>
      </trkpt>
      <trkpt lat="45.41831" lon="4.23773">
        <ele>629</ele>
        <time>2012-02-24T10:31:16.000Z</time>
      </trkpt>
      <trkpt lat="45.41839" lon="4.23768">
        <ele>628.20001220703</ele>
        <time>2012-02-24T10:31:21.000Z</time>
      </trkpt>
      <trkpt lat="45.4184" lon="4.23761">
        <ele>629</ele>
        <time>2012-02-24T10:31:26.000Z</time>
      </trkpt>
      <trkpt lat="45.41842" lon="4.23756">
        <ele>629.59997558594</ele>
        <time>2012-02-24T10:31:30.000Z</time>
      </trkpt>
      <trkpt lat="45.41842" lon="4.23754">
        <ele>629.79998779297</ele>
        <time>2012-02-24T10:31:33.000Z</time>
      </trkpt>
      <trkpt lat="45.41847" lon="4.23754">
        <ele>628.59997558594</ele>
        <time>2012-02-24T10:31:40.000Z</time>
      </trkpt>
      <trkpt lat="45.41851" lon="4.23759">
        <ele>626.40002441406</ele>
        <time>2012-02-24T10:31:42.000Z</time>
      </trkpt>
      <trkpt lat="45.41856" lon="4.23772">
        <ele>622.59997558594</ele>
        <time>2012-02-24T10:31:48.000Z</time>
      </trkpt>
      <trkpt lat="45.41855" lon="4.23775">
        <ele>622.20001220703</ele>
        <time>2012-02-24T10:31:49.000Z</time>
      </trkpt>
      <trkpt lat="45.41854" lon="4.23786">
        <ele>620.59997558594</ele>
        <time>2012-02-24T10:31:54.000Z</time>
      </trkpt>
      <trkpt lat="45.41854" lon="4.23789">
        <ele>620.20001220703</ele>
        <time>2012-02-24T10:31:55.000Z</time>
      </trkpt>
      <trkpt lat="45.41851" lon="4.23801">
        <ele>618.79998779297</ele>
        <time>2012-02-24T10:32:00.000Z</time>
      </trkpt>
      <trkpt lat="45.41847" lon="4.23816">
        <ele>617</ele>
        <time>2012-02-24T10:32:05.000Z</time>
      </trkpt>
      <trkpt lat="45.41844" lon="4.23827">
        <ele>616</ele>
        <time>2012-02-24T10:32:10.000Z</time>
      </trkpt>
      <trkpt lat="45.41841" lon="4.23835">
        <ele>615.40002441406</ele>
        <time>2012-02-24T10:32:15.000Z</time>
      </trkpt>
      <trkpt lat="45.41835" lon="4.23847">
        <ele>614.79998779297</ele>
        <time>2012-02-24T10:32:21.000Z</time>
      </trkpt>
      <trkpt lat="45.41832" lon="4.23855">
        <ele>613.59997558594</ele>
        <time>2012-02-24T10:32:25.000Z</time>
      </trkpt>
      <trkpt lat="45.4183" lon="4.2386">
        <ele>612.79998779297</ele>
        <time>2012-02-24T10:32:27.000Z</time>
      </trkpt>
      <trkpt lat="45.41828" lon="4.2388">
        <ele>608.79998779297</ele>
        <time>2012-02-24T10:32:33.000Z</time>
      </trkpt>
      <trkpt lat="45.41826" lon="4.23903">
        <ele>604.20001220703</ele>
        <time>2012-02-24T10:32:39.000Z</time>
      </trkpt>
      <trkpt lat="45.41825" lon="4.23917">
        <ele>601.20001220703</ele>
        <time>2012-02-24T10:32:45.000Z</time>
      </trkpt>
      <trkpt lat="45.41825" lon="4.23919">
        <ele>601</ele>
        <time>2012-02-24T10:32:46.000Z</time>
      </trkpt>
      <trkpt lat="45.41825" lon="4.23929">
        <ele>599.40002441406</ele>
        <time>2012-02-24T10:32:50.000Z</time>
      </trkpt>
      <trkpt lat="45.41827" lon="4.23944">
        <ele>596.79998779297</ele>
        <time>2012-02-24T10:32:55.000Z</time>
      </trkpt>
      <trkpt lat="45.41828" lon="4.23958">
        <ele>594.40002441406</ele>
        <time>2012-02-24T10:33:00.000Z</time>
      </trkpt>
      <trkpt lat="45.41832" lon="4.23973">
        <ele>591.59997558594</ele>
        <time>2012-02-24T10:33:05.000Z</time>
      </trkpt>
      <trkpt lat="45.41833" lon="4.23986">
        <ele>589.40002441406</ele>
        <time>2012-02-24T10:33:09.000Z</time>
      </trkpt>
      <trkpt lat="45.41832" lon="4.24002">
        <ele>586.79998779297</ele>
        <time>2012-02-24T10:33:14.000Z</time>
      </trkpt>
      <trkpt lat="45.41833" lon="4.24015">
        <ele>584</ele>
        <time>2012-02-24T10:33:19.000Z</time>
      </trkpt>
      <trkpt lat="45.41837" lon="4.24028">
        <ele>580.59997558594</ele>
        <time>2012-02-24T10:33:24.000Z</time>
      </trkpt>
      <trkpt lat="45.41839" lon="4.24038">
        <ele>577.79998779297</ele>
        <time>2012-02-24T10:33:28.000Z</time>
      </trkpt>
      <trkpt lat="45.41845" lon="4.24054">
        <ele>573.20001220703</ele>
        <time>2012-02-24T10:33:34.000Z</time>
      </trkpt>
      <trkpt lat="45.41851" lon="4.2407">
        <ele>568.20001220703</ele>
        <time>2012-02-24T10:33:40.000Z</time>
      </trkpt>
      <trkpt lat="45.41847" lon="4.24088">
        <ele>566</ele>
        <time>2012-02-24T10:33:47.000Z</time>
      </trkpt>
      <trkpt lat="45.41846" lon="4.2409">
        <ele>565.79998779297</ele>
        <time>2012-02-24T10:33:48.000Z</time>
      </trkpt>
      <trkpt lat="45.41851" lon="4.24097">
        <ele>563</ele>
        <time>2012-02-24T10:33:53.000Z</time>
      </trkpt>
      <trkpt lat="45.41853" lon="4.24097">
        <ele>562.40002441406</ele>
        <time>2012-02-24T10:33:55.000Z</time>
      </trkpt>
      <trkpt lat="45.41865" lon="4.24101">
        <ele>558</ele>
        <time>2012-02-24T10:34:01.000Z</time>
      </trkpt>
      <trkpt lat="45.41872" lon="4.24112">
        <ele>554.20001220703</ele>
        <time>2012-02-24T10:34:06.000Z</time>
      </trkpt>
      <trkpt lat="45.41876" lon="4.24122">
        <ele>551.20001220703</ele>
        <time>2012-02-24T10:34:10.000Z</time>
      </trkpt>
      <trkpt lat="45.41879" lon="4.24131">
        <ele>548.79998779297</ele>
        <time>2012-02-24T10:34:14.000Z</time>
      </trkpt>
      <trkpt lat="45.41884" lon="4.24141">
        <ele>546.20001220703</ele>
        <time>2012-02-24T10:34:20.000Z</time>
      </trkpt>
      <trkpt lat="45.41884" lon="4.24141">
        <ele>546</ele>
        <time>2012-02-24T10:34:22.000Z</time>
      </trkpt>
      <trkpt lat="45.4189" lon="4.24141">
        <ele>544.40002441406</ele>
        <time>2012-02-24T10:34:28.000Z</time>
      </trkpt>
      <trkpt lat="45.41896" lon="4.24151">
        <ele>541.40002441406</ele>
        <time>2012-02-24T10:34:32.000Z</time>
      </trkpt>
      <trkpt lat="45.41893" lon="4.24162">
        <ele>540.40002441406</ele>
        <time>2012-02-24T10:34:36.000Z</time>
      </trkpt>
      <trkpt lat="45.41883" lon="4.24179">
        <ele>540.40002441406</ele>
        <time>2012-02-24T10:34:42.000Z</time>
      </trkpt>
      <trkpt lat="45.41881" lon="4.24196">
        <ele>538.40002441406</ele>
        <time>2012-02-24T10:34:48.000Z</time>
      </trkpt>
      <trkpt lat="45.41882" lon="4.24202">
        <ele>537.40002441406</ele>
        <time>2012-02-24T10:34:50.000Z</time>
      </trkpt>
      <trkpt lat="45.41888" lon="4.24202">
        <ele>536.20001220703</ele>
        <time>2012-02-24T10:34:55.000Z</time>
      </trkpt>
      <trkpt lat="45.4189" lon="4.242">
        <ele>536</ele>
        <time>2012-02-24T10:34:56.000Z</time>
      </trkpt>
      <trkpt lat="45.41903" lon="4.24186">
        <ele>535.20001220703</ele>
        <time>2012-02-24T10:35:03.000Z</time>
      </trkpt>
      <trkpt lat="45.41916" lon="4.24183">
        <ele>532.59997558594</ele>
        <time>2012-02-24T10:35:09.000Z</time>
      </trkpt>
      <trkpt lat="45.41924" lon="4.24181">
        <ele>531</ele>
        <time>2012-02-24T10:35:13.000Z</time>
      </trkpt>
      <trkpt lat="45.41935" lon="4.24179">
        <ele>528.79998779297</ele>
        <time>2012-02-24T10:35:19.000Z</time>
      </trkpt>
      <trkpt lat="45.41935" lon="4.2418">
        <ele>528.79998779297</ele>
        <time>2012-02-24T10:35:22.000Z</time>
      </trkpt>
      <trkpt lat="45.41938" lon="4.24175">
        <ele>528.59997558594</ele>
        <time>2012-02-24T10:35:49.000Z</time>
      </trkpt>
      <trkpt lat="45.41937" lon="4.24171">
        <ele>529</ele>
        <time>2012-02-24T10:35:51.000Z</time>
      </trkpt>
      <trkpt lat="45.41937" lon="4.24172">
        <ele>528.79998779297</ele>
        <time>2012-02-24T10:35:53.000Z</time>
      </trkpt>
      <trkpt lat="45.41938" lon="4.24183">
        <ele>527.59997558594</ele>
        <time>2012-02-24T10:36:03.000Z</time>
      </trkpt>
      <trkpt lat="45.4194" lon="4.24188">
        <ele>527</ele>
        <time>2012-02-24T10:36:04.000Z</time>
      </trkpt>
      <trkpt lat="45.41939" lon="4.24207">
        <ele>525.59997558594</ele>
        <time>2012-02-24T10:36:10.000Z</time>
      </trkpt>
      <trkpt lat="45.41939" lon="4.24223">
        <ele>524.20001220703</ele>
        <time>2012-02-24T10:36:15.000Z</time>
      </trkpt>
      <trkpt lat="45.41941" lon="4.24242">
        <ele>522.20001220703</ele>
        <time>2012-02-24T10:36:20.000Z</time>
      </trkpt>
      <trkpt lat="45.41943" lon="4.24251">
        <ele>521.20001220703</ele>
        <time>2012-02-24T10:36:23.000Z</time>
      </trkpt>
      <trkpt lat="45.41949" lon="4.24264">
        <ele>519.79998779297</ele>
        <time>2012-02-24T10:36:27.000Z</time>
      </trkpt>
      <trkpt lat="45.41955" lon="4.24285">
        <ele>518.20001220703</ele>
        <time>2012-02-24T10:36:33.000Z</time>
      </trkpt>
      <trkpt lat="45.41959" lon="4.24302">
        <ele>517.20001220703</ele>
        <time>2012-02-24T10:36:38.000Z</time>
      </trkpt>
      <trkpt lat="45.41963" lon="4.24318">
        <ele>516.20001220703</ele>
        <time>2012-02-24T10:36:43.000Z</time>
      </trkpt>
      <trkpt lat="45.41968" lon="4.24335">
        <ele>515.40002441406</ele>
        <time>2012-02-24T10:36:48.000Z</time>
      </trkpt>
      <trkpt lat="45.41974" lon="4.24355">
        <ele>513.59997558594</ele>
        <time>2012-02-24T10:36:54.000Z</time>
      </trkpt>
      <trkpt lat="45.41977" lon="4.24375">
        <ele>512.20001220703</ele>
        <time>2012-02-24T10:37:00.000Z</time>
      </trkpt>
      <trkpt lat="45.41975" lon="4.24394">
        <ele>511.20001220703</ele>
        <time>2012-02-24T10:37:05.000Z</time>
      </trkpt>
      <trkpt lat="45.41967" lon="4.24413">
        <ele>510.39999389648</ele>
        <time>2012-02-24T10:37:11.000Z</time>
      </trkpt>
      <trkpt lat="45.41951" lon="4.24429">
        <ele>509.79998779297</ele>
        <time>2012-02-24T10:37:18.000Z</time>
      </trkpt>
      <trkpt lat="45.41941" lon="4.24434">
        <ele>509.60000610352</ele>
        <time>2012-02-24T10:37:22.000Z</time>
      </trkpt>
      <trkpt lat="45.41926" lon="4.24433">
        <ele>509.79998779297</ele>
        <time>2012-02-24T10:37:28.000Z</time>
      </trkpt>
      <trkpt lat="45.41916" lon="4.24428">
        <ele>510.39999389648</ele>
        <time>2012-02-24T10:37:32.000Z</time>
      </trkpt>
      <trkpt lat="45.41908" lon="4.24416">
        <ele>509.79998779297</ele>
        <time>2012-02-24T10:37:37.000Z</time>
      </trkpt>
      <trkpt lat="45.41899" lon="4.24403">
        <ele>509.79998779297</ele>
        <time>2012-02-24T10:37:42.000Z</time>
      </trkpt>
      <trkpt lat="45.41887" lon="4.24389">
        <ele>510</ele>
        <time>2012-02-24T10:37:48.000Z</time>
      </trkpt>
      <trkpt lat="45.4187" lon="4.24378">
        <ele>509.60000610352</ele>
        <time>2012-02-24T10:37:55.000Z</time>
      </trkpt>
      <trkpt lat="45.41859" lon="4.24377">
        <ele>508.39999389648</ele>
        <time>2012-02-24T10:37:59.000Z</time>
      </trkpt>
      <trkpt lat="45.41846" lon="4.24375">
        <ele>507.20001220703</ele>
        <time>2012-02-24T10:38:04.000Z</time>
      </trkpt>
      <trkpt lat="45.41828" lon="4.2437">
        <ele>506</ele>
        <time>2012-02-24T10:38:11.000Z</time>
      </trkpt>
      <trkpt lat="45.41814" lon="4.24367">
        <ele>504.39999389648</ele>
        <time>2012-02-24T10:38:17.000Z</time>
      </trkpt>
      <trkpt lat="45.418" lon="4.24365">
        <ele>502.79998779297</ele>
        <time>2012-02-24T10:38:22.000Z</time>
      </trkpt>
      <trkpt lat="45.41788" lon="4.24361">
        <ele>502</ele>
        <time>2012-02-24T10:38:26.000Z</time>
      </trkpt>
      <trkpt lat="45.41775" lon="4.24353">
        <ele>502.20001220703</ele>
        <time>2012-02-24T10:38:31.000Z</time>
      </trkpt>
      <trkpt lat="45.41759" lon="4.24343">
        <ele>503.20001220703</ele>
        <time>2012-02-24T10:38:37.000Z</time>
      </trkpt>
      <trkpt lat="45.4175" lon="4.24336">
        <ele>503.79998779297</ele>
        <time>2012-02-24T10:38:41.000Z</time>
      </trkpt>
      <trkpt lat="45.41734" lon="4.24328">
        <ele>502.79998779297</ele>
        <time>2012-02-24T10:38:47.000Z</time>
      </trkpt>
      <trkpt lat="45.41718" lon="4.24316">
        <ele>502.20001220703</ele>
        <time>2012-02-24T10:38:54.000Z</time>
      </trkpt>
      <trkpt lat="45.41706" lon="4.24309">
        <ele>501.79998779297</ele>
        <time>2012-02-24T10:38:59.000Z</time>
      </trkpt>
      <trkpt lat="45.41696" lon="4.24303">
        <ele>501.20001220703</ele>
        <time>2012-02-24T10:39:03.000Z</time>
      </trkpt>
      <trkpt lat="45.41684" lon="4.24295">
        <ele>500.39999389648</ele>
        <time>2012-02-24T10:39:08.000Z</time>
      </trkpt>
      <trkpt lat="45.4167" lon="4.24286">
        <ele>499.79998779297</ele>
        <time>2012-02-24T10:39:14.000Z</time>
      </trkpt>
      <trkpt lat="45.41658" lon="4.24275">
        <ele>498.39999389648</ele>
        <time>2012-02-24T10:39:19.000Z</time>
      </trkpt>
      <trkpt lat="45.41647" lon="4.2426">
        <ele>497.79998779297</ele>
        <time>2012-02-24T10:39:25.000Z</time>
      </trkpt>
      <trkpt lat="45.41634" lon="4.24239">
        <ele>497</ele>
        <time>2012-02-24T10:39:32.000Z</time>
      </trkpt>
      <trkpt lat="45.41629" lon="4.2423">
        <ele>497</ele>
        <time>2012-02-24T10:39:35.000Z</time>
      </trkpt>
      <trkpt lat="45.4162" lon="4.24214">
        <ele>496.39999389648</ele>
        <time>2012-02-24T10:39:41.000Z</time>
      </trkpt>
      <trkpt lat="45.4162" lon="4.24214">
        <ele>496.39999389648</ele>
        <time>2012-02-24T10:39:43.000Z</time>
      </trkpt>
      <trkpt lat="45.41617" lon="4.24206">
        <ele>496.79998779297</ele>
        <time>2012-02-24T10:40:04.000Z</time>
      </trkpt>
      <trkpt lat="45.41611" lon="4.24193">
        <ele>497</ele>
        <time>2012-02-24T10:40:08.000Z</time>
      </trkpt>
      <trkpt lat="45.41607" lon="4.24179">
        <ele>498</ele>
        <time>2012-02-24T10:40:13.000Z</time>
      </trkpt>
      <trkpt lat="45.41602" lon="4.24164">
        <ele>498.60000610352</ele>
        <time>2012-02-24T10:40:18.000Z</time>
      </trkpt>
      <trkpt lat="45.41593" lon="4.24145">
        <ele>498.39999389648</ele>
        <time>2012-02-24T10:40:24.000Z</time>
      </trkpt>
      <trkpt lat="45.41585" lon="4.24131">
        <ele>497</ele>
        <time>2012-02-24T10:40:29.000Z</time>
      </trkpt>
      <trkpt lat="45.41577" lon="4.24122">
        <ele>495.39999389648</ele>
        <time>2012-02-24T10:40:33.000Z</time>
      </trkpt>
      <trkpt lat="45.41568" lon="4.24109">
        <ele>494</ele>
        <time>2012-02-24T10:40:38.000Z</time>
      </trkpt>
      <trkpt lat="45.41556" lon="4.2409">
        <ele>491.60000610352</ele>
        <time>2012-02-24T10:40:45.000Z</time>
      </trkpt>
      <trkpt lat="45.41548" lon="4.24069">
        <ele>491.39999389648</ele>
        <time>2012-02-24T10:40:51.000Z</time>
      </trkpt>
      <trkpt lat="45.41545" lon="4.24054">
        <ele>492.20001220703</ele>
        <time>2012-02-24T10:40:55.000Z</time>
      </trkpt>
      <trkpt lat="45.41544" lon="4.24035">
        <ele>494.79998779297</ele>
        <time>2012-02-24T10:41:00.000Z</time>
      </trkpt>
      <trkpt lat="45.4154" lon="4.24018">
        <ele>495.79998779297</ele>
        <time>2012-02-24T10:41:05.000Z</time>
      </trkpt>
      <trkpt lat="45.41539" lon="4.24015">
        <ele>495.79998779297</ele>
        <time>2012-02-24T10:41:06.000Z</time>
      </trkpt>
      <trkpt lat="45.4153" lon="4.23998">
        <ele>493</ele>
        <time>2012-02-24T10:41:12.000Z</time>
      </trkpt>
      <trkpt lat="45.41518" lon="4.23978">
        <ele>489.79998779297</ele>
        <time>2012-02-24T10:41:19.000Z</time>
      </trkpt>
      <trkpt lat="45.41508" lon="4.23965">
        <ele>487.39999389648</ele>
        <time>2012-02-24T10:41:24.000Z</time>
      </trkpt>
      <trkpt lat="45.415" lon="4.23949">
        <ele>486.39999389648</ele>
        <time>2012-02-24T10:41:29.000Z</time>
      </trkpt>
      <trkpt lat="45.41491" lon="4.2393">
        <ele>486.60000610352</ele>
        <time>2012-02-24T10:41:35.000Z</time>
      </trkpt>
      <trkpt lat="45.41483" lon="4.23905">
        <ele>485.79998779297</ele>
        <time>2012-02-24T10:41:42.000Z</time>
      </trkpt>
      <trkpt lat="45.41478" lon="4.23884">
        <ele>485.20001220703</ele>
        <time>2012-02-24T10:41:48.000Z</time>
      </trkpt>
      <trkpt lat="45.41475" lon="4.23864">
        <ele>485.20001220703</ele>
        <time>2012-02-24T10:41:53.000Z</time>
      </trkpt>
      <trkpt lat="45.41471" lon="4.23836">
        <ele>485.79998779297</ele>
        <time>2012-02-24T10:42:00.000Z</time>
      </trkpt>
      <trkpt lat="45.41468" lon="4.23813">
        <ele>487.20001220703</ele>
        <time>2012-02-24T10:42:06.000Z</time>
      </trkpt>
      <trkpt lat="45.41465" lon="4.23796">
        <ele>488.20001220703</ele>
        <time>2012-02-24T10:42:11.000Z</time>
      </trkpt>
      <trkpt lat="45.41464" lon="4.23792">
        <ele>488.39999389648</ele>
        <time>2012-02-24T10:42:12.000Z</time>
      </trkpt>
      <trkpt lat="45.41458" lon="4.23769">
        <ele>488.39999389648</ele>
        <time>2012-02-24T10:42:18.000Z</time>
      </trkpt>
      <trkpt lat="45.41454" lon="4.23744">
        <ele>489</ele>
        <time>2012-02-24T10:42:24.000Z</time>
      </trkpt>
      <trkpt lat="45.41452" lon="4.23724">
        <ele>490</ele>
        <time>2012-02-24T10:42:29.000Z</time>
      </trkpt>
      <trkpt lat="45.41452" lon="4.23696">
        <ele>492.79998779297</ele>
        <time>2012-02-24T10:42:36.000Z</time>
      </trkpt>
      <trkpt lat="45.41454" lon="4.2368">
        <ele>495</ele>
        <time>2012-02-24T10:42:40.000Z</time>
      </trkpt>
      <trkpt lat="45.41456" lon="4.2366">
        <ele>498</ele>
        <time>2012-02-24T10:42:45.000Z</time>
      </trkpt>
      <trkpt lat="45.4146" lon="4.23642">
        <ele>501.39999389648</ele>
        <time>2012-02-24T10:42:50.000Z</time>
      </trkpt>
      <trkpt lat="45.41459" lon="4.23622">
        <ele>503.39999389648</ele>
        <time>2012-02-24T10:42:55.000Z</time>
      </trkpt>
      <trkpt lat="45.4145" lon="4.23607">
        <ele>504</ele>
        <time>2012-02-24T10:43:00.000Z</time>
      </trkpt>
      <trkpt lat="45.4144" lon="4.23603">
        <ele>503.39999389648</ele>
        <time>2012-02-24T10:43:04.000Z</time>
      </trkpt>
      <trkpt lat="45.41429" lon="4.23609">
        <ele>500.60000610352</ele>
        <time>2012-02-24T10:43:08.000Z</time>
      </trkpt>
      <trkpt lat="45.4142" lon="4.2362">
        <ele>496.39999389648</ele>
        <time>2012-02-24T10:43:12.000Z</time>
      </trkpt>
      <trkpt lat="45.4141" lon="4.23627">
        <ele>496.39999389648</ele>
        <time>2012-02-24T10:43:16.000Z</time>
      </trkpt>
      <trkpt lat="45.41403" lon="4.23636">
        <ele>496.39999389648</ele>
        <time>2012-02-24T10:43:20.000Z</time>
      </trkpt>
      <trkpt lat="45.41395" lon="4.23649">
        <ele>495</ele>
        <time>2012-02-24T10:43:25.000Z</time>
      </trkpt>
      <trkpt lat="45.41379" lon="4.23671">
        <ele>492.60000610352</ele>
        <time>2012-02-24T10:43:33.000Z</time>
      </trkpt>
      <trkpt lat="45.41366" lon="4.23694">
        <ele>488.60000610352</ele>
        <time>2012-02-24T10:43:40.000Z</time>
      </trkpt>
      <trkpt lat="45.41358" lon="4.2371">
        <ele>484.60000610352</ele>
        <time>2012-02-24T10:43:45.000Z</time>
      </trkpt>
      <trkpt lat="45.4135" lon="4.2373">
        <ele>478.79998779297</ele>
        <time>2012-02-24T10:43:50.000Z</time>
      </trkpt>
      <trkpt lat="45.4134" lon="4.23747">
        <ele>473</ele>
        <time>2012-02-24T10:43:56.000Z</time>
      </trkpt>
      <trkpt lat="45.41327" lon="4.2376">
        <ele>468.20001220703</ele>
        <time>2012-02-24T10:44:02.000Z</time>
      </trkpt>
      <trkpt lat="45.41317" lon="4.23766">
        <ele>466</ele>
        <time>2012-02-24T10:44:06.000Z</time>
      </trkpt>
      <trkpt lat="45.41298" lon="4.23759">
        <ele>466.39999389648</ele>
        <time>2012-02-24T10:44:13.000Z</time>
      </trkpt>
      <trkpt lat="45.41284" lon="4.23745">
        <ele>470</ele>
        <time>2012-02-24T10:44:19.000Z</time>
      </trkpt>
      <trkpt lat="45.41269" lon="4.23733">
        <ele>474.39999389648</ele>
        <time>2012-02-24T10:44:25.000Z</time>
      </trkpt>
      <trkpt lat="45.41256" lon="4.23728">
        <ele>476.20001220703</ele>
        <time>2012-02-24T10:44:30.000Z</time>
      </trkpt>
      <trkpt lat="45.41242" lon="4.23727">
        <ele>473.20001220703</ele>
        <time>2012-02-24T10:44:35.000Z</time>
      </trkpt>
      <trkpt lat="45.41225" lon="4.23727">
        <ele>467.79998779297</ele>
        <time>2012-02-24T10:44:41.000Z</time>
      </trkpt>
      <trkpt lat="45.41213" lon="4.2372">
        <ele>466.60000610352</ele>
        <time>2012-02-24T10:44:46.000Z</time>
      </trkpt>
      <trkpt lat="45.412" lon="4.23704">
        <ele>469.20001220703</ele>
        <time>2012-02-24T10:44:52.000Z</time>
      </trkpt>
      <trkpt lat="45.41187" lon="4.23687">
        <ele>471.79998779297</ele>
        <time>2012-02-24T10:44:58.000Z</time>
      </trkpt>
      <trkpt lat="45.41175" lon="4.23676">
        <ele>472</ele>
        <time>2012-02-24T10:45:03.000Z</time>
      </trkpt>
      <trkpt lat="45.41163" lon="4.23671">
        <ele>470.79998779297</ele>
        <time>2012-02-24T10:45:07.000Z</time>
      </trkpt>
      <trkpt lat="45.41147" lon="4.23665">
        <ele>470.60000610352</ele>
        <time>2012-02-24T10:45:13.000Z</time>
      </trkpt>
      <trkpt lat="45.41132" lon="4.23663">
        <ele>469</ele>
        <time>2012-02-24T10:45:18.000Z</time>
      </trkpt>
      <trkpt lat="45.4112" lon="4.23662">
        <ele>467.60000610352</ele>
        <time>2012-02-24T10:45:22.000Z</time>
      </trkpt>
      <trkpt lat="45.41111" lon="4.2366">
        <ele>467.20001220703</ele>
        <time>2012-02-24T10:45:25.000Z</time>
      </trkpt>
      <trkpt lat="45.41095" lon="4.23654">
        <ele>468.39999389648</ele>
        <time>2012-02-24T10:45:31.000Z</time>
      </trkpt>
      <trkpt lat="45.41084" lon="4.23651">
        <ele>468.39999389648</ele>
        <time>2012-02-24T10:45:35.000Z</time>
      </trkpt>
      <trkpt lat="45.41069" lon="4.23648">
        <ele>469.60000610352</ele>
        <time>2012-02-24T10:45:40.000Z</time>
      </trkpt>
      <trkpt lat="45.41066" lon="4.23648">
        <ele>469.39999389648</ele>
        <time>2012-02-24T10:45:41.000Z</time>
      </trkpt>
      <trkpt lat="45.41046" lon="4.23646">
        <ele>470.39999389648</ele>
        <time>2012-02-24T10:45:48.000Z</time>
      </trkpt>
      <trkpt lat="45.41028" lon="4.23647">
        <ele>469.60000610352</ele>
        <time>2012-02-24T10:45:54.000Z</time>
      </trkpt>
      <trkpt lat="45.41014" lon="4.23647">
        <ele>469.39999389648</ele>
        <time>2012-02-24T10:45:59.000Z</time>
      </trkpt>
      <trkpt lat="45.41" lon="4.2365">
        <ele>467.39999389648</ele>
        <time>2012-02-24T10:46:04.000Z</time>
      </trkpt>
      <trkpt lat="45.40988" lon="4.23656">
        <ele>467.39999389648</ele>
        <time>2012-02-24T10:46:08.000Z</time>
      </trkpt>
      <trkpt lat="45.4098" lon="4.23661">
        <ele>467</ele>
        <time>2012-02-24T10:46:11.000Z</time>
      </trkpt>
      <trkpt lat="45.40968" lon="4.23669">
        <ele>466.60000610352</ele>
        <time>2012-02-24T10:46:15.000Z</time>
      </trkpt>
      <trkpt lat="45.40955" lon="4.23676">
        <ele>467.39999389648</ele>
        <time>2012-02-24T10:46:20.000Z</time>
      </trkpt>
      <trkpt lat="45.40942" lon="4.23686">
        <ele>466.79998779297</ele>
        <time>2012-02-24T10:46:25.000Z</time>
      </trkpt>
      <trkpt lat="45.40929" lon="4.23695">
        <ele>465.79998779297</ele>
        <time>2012-02-24T10:46:30.000Z</time>
      </trkpt>
      <trkpt lat="45.40916" lon="4.23702">
        <ele>465.60000610352</ele>
        <time>2012-02-24T10:46:35.000Z</time>
      </trkpt>
      <trkpt lat="45.40902" lon="4.23712">
        <ele>466.39999389648</ele>
        <time>2012-02-24T10:46:40.000Z</time>
      </trkpt>
      <trkpt lat="45.40892" lon="4.23722">
        <ele>465.39999389648</ele>
        <time>2012-02-24T10:46:44.000Z</time>
      </trkpt>
      <trkpt lat="45.4089" lon="4.23725">
        <ele>465.20001220703</ele>
        <time>2012-02-24T10:46:45.000Z</time>
      </trkpt>
      <trkpt lat="45.40875" lon="4.23739">
        <ele>464.20001220703</ele>
        <time>2012-02-24T10:46:51.000Z</time>
      </trkpt>
      <trkpt lat="45.4086" lon="4.23753">
        <ele>464</ele>
        <time>2012-02-24T10:46:57.000Z</time>
      </trkpt>
      <trkpt lat="45.40846" lon="4.23768">
        <ele>464.60000610352</ele>
        <time>2012-02-24T10:47:03.000Z</time>
      </trkpt>
      <trkpt lat="45.40837" lon="4.23779">
        <ele>464.20001220703</ele>
        <time>2012-02-24T10:47:07.000Z</time>
      </trkpt>
      <trkpt lat="45.40829" lon="4.23791">
        <ele>463.60000610352</ele>
        <time>2012-02-24T10:47:11.000Z</time>
      </trkpt>
      <trkpt lat="45.40822" lon="4.23804">
        <ele>463.60000610352</ele>
        <time>2012-02-24T10:47:15.000Z</time>
      </trkpt>
      <trkpt lat="45.40817" lon="4.23814">
        <ele>463.79998779297</ele>
        <time>2012-02-24T10:47:19.000Z</time>
      </trkpt>
      <trkpt lat="45.40809" lon="4.23827">
        <ele>464.60000610352</ele>
        <time>2012-02-24T10:47:24.000Z</time>
      </trkpt>
      <trkpt lat="45.40801" lon="4.23844">
        <ele>464.60000610352</ele>
        <time>2012-02-24T10:47:29.000Z</time>
      </trkpt>
      <trkpt lat="45.40793" lon="4.23865">
        <ele>464.79998779297</ele>
        <time>2012-02-24T10:47:34.000Z</time>
      </trkpt>
      <trkpt lat="45.40787" lon="4.23885">
        <ele>463.20001220703</ele>
        <time>2012-02-24T10:47:39.000Z</time>
      </trkpt>
      <trkpt lat="45.40781" lon="4.23901">
        <ele>462.60000610352</ele>
        <time>2012-02-24T10:47:44.000Z</time>
      </trkpt>
      <trkpt lat="45.40777" lon="4.23916">
        <ele>461.20001220703</ele>
        <time>2012-02-24T10:47:49.000Z</time>
      </trkpt>
      <trkpt lat="45.4077" lon="4.23937">
        <ele>463.39999389648</ele>
        <time>2012-02-24T10:47:55.000Z</time>
      </trkpt>
      <trkpt lat="45.40767" lon="4.23951">
        <ele>464.20001220703</ele>
        <time>2012-02-24T10:47:59.000Z</time>
      </trkpt>
      <trkpt lat="45.40767" lon="4.2397">
        <ele>463</ele>
        <time>2012-02-24T10:48:04.000Z</time>
      </trkpt>
      <trkpt lat="45.40769" lon="4.23992">
        <ele>460.60000610352</ele>
        <time>2012-02-24T10:48:10.000Z</time>
      </trkpt>
      <trkpt lat="45.40769" lon="4.24012">
        <ele>460</ele>
        <time>2012-02-24T10:48:15.000Z</time>
      </trkpt>
      <trkpt lat="45.40775" lon="4.24031">
        <ele>457.20001220703</ele>
        <time>2012-02-24T10:48:21.000Z</time>
      </trkpt>
      <trkpt lat="45.40777" lon="4.24055">
        <ele>455.79998779297</ele>
        <time>2012-02-24T10:48:27.000Z</time>
      </trkpt>
      <trkpt lat="45.40777" lon="4.24071">
        <ele>455.60000610352</ele>
        <time>2012-02-24T10:48:31.000Z</time>
      </trkpt>
      <trkpt lat="45.40777" lon="4.24092">
        <ele>455.60000610352</ele>
        <time>2012-02-24T10:48:36.000Z</time>
      </trkpt>
      <trkpt lat="45.40776" lon="4.24115">
        <ele>456</ele>
        <time>2012-02-24T10:48:41.000Z</time>
      </trkpt>
      <trkpt lat="45.40779" lon="4.24136">
        <ele>454.79998779297</ele>
        <time>2012-02-24T10:48:47.000Z</time>
      </trkpt>
      <trkpt lat="45.40781" lon="4.24152">
        <ele>453.79998779297</ele>
        <time>2012-02-24T10:48:52.000Z</time>
      </trkpt>
      <trkpt lat="45.40783" lon="4.24169">
        <ele>453.20001220703</ele>
        <time>2012-02-24T10:48:56.000Z</time>
      </trkpt>
      <trkpt lat="45.40784" lon="4.24189">
        <ele>451.79998779297</ele>
        <time>2012-02-24T10:49:01.000Z</time>
      </trkpt>
      <trkpt lat="45.40785" lon="4.24211">
        <ele>450.39999389648</ele>
        <time>2012-02-24T10:49:06.000Z</time>
      </trkpt>
      <trkpt lat="45.4079" lon="4.24228">
        <ele>448.20001220703</ele>
        <time>2012-02-24T10:49:11.000Z</time>
      </trkpt>
      <trkpt lat="45.40792" lon="4.24232">
        <ele>447.60000610352</ele>
        <time>2012-02-24T10:49:12.000Z</time>
      </trkpt>
      <trkpt lat="45.40794" lon="4.24257">
        <ele>446</ele>
        <time>2012-02-24T10:49:18.000Z</time>
      </trkpt>
      <trkpt lat="45.40795" lon="4.24272">
        <ele>444.79998779297</ele>
        <time>2012-02-24T10:49:22.000Z</time>
      </trkpt>
      <trkpt lat="45.40799" lon="4.2429">
        <ele>443</ele>
        <time>2012-02-24T10:49:27.000Z</time>
      </trkpt>
      <trkpt lat="45.40802" lon="4.24309">
        <ele>441.60000610352</ele>
        <time>2012-02-24T10:49:32.000Z</time>
      </trkpt>
      <trkpt lat="45.40806" lon="4.24331">
        <ele>440.39999389648</ele>
        <time>2012-02-24T10:49:38.000Z</time>
      </trkpt>
      <trkpt lat="45.40809" lon="4.2435">
        <ele>438.60000610352</ele>
        <time>2012-02-24T10:49:43.000Z</time>
      </trkpt>
      <trkpt lat="45.40812" lon="4.24371">
        <ele>436.79998779297</ele>
        <time>2012-02-24T10:49:48.000Z</time>
      </trkpt>
      <trkpt lat="45.40816" lon="4.24383">
        <ele>435.79998779297</ele>
        <time>2012-02-24T10:49:52.000Z</time>
      </trkpt>
      <trkpt lat="45.40817" lon="4.24397">
        <ele>434.79998779297</ele>
        <time>2012-02-24T10:49:55.000Z</time>
      </trkpt>
      <trkpt lat="45.4082" lon="4.24418">
        <ele>433.20001220703</ele>
        <time>2012-02-24T10:50:00.000Z</time>
      </trkpt>
      <trkpt lat="45.40821" lon="4.24423">
        <ele>433</ele>
        <time>2012-02-24T10:50:01.000Z</time>
      </trkpt>
      <trkpt lat="45.40825" lon="4.24447">
        <ele>432.20001220703</ele>
        <time>2012-02-24T10:50:07.000Z</time>
      </trkpt>
      <trkpt lat="45.4083" lon="4.24467">
        <ele>431.79998779297</ele>
        <time>2012-02-24T10:50:12.000Z</time>
      </trkpt>
      <trkpt lat="45.40834" lon="4.24495">
        <ele>431.20001220703</ele>
        <time>2012-02-24T10:50:19.000Z</time>
      </trkpt>
      <trkpt lat="45.4084" lon="4.24515">
        <ele>430.39999389648</ele>
        <time>2012-02-24T10:50:24.000Z</time>
      </trkpt>
      <trkpt lat="45.40843" lon="4.24535">
        <ele>429.39999389648</ele>
        <time>2012-02-24T10:50:29.000Z</time>
      </trkpt>
      <trkpt lat="45.40842" lon="4.24554">
        <ele>428.60000610352</ele>
        <time>2012-02-24T10:50:33.000Z</time>
      </trkpt>
      <trkpt lat="45.4084" lon="4.24571">
        <ele>427.79998779297</ele>
        <time>2012-02-24T10:50:37.000Z</time>
      </trkpt>
      <trkpt lat="45.40839" lon="4.24583">
        <ele>427.20001220703</ele>
        <time>2012-02-24T10:50:41.000Z</time>
      </trkpt>
      <trkpt lat="45.4084" lon="4.24591">
        <ele>427</ele>
        <time>2012-02-24T10:50:45.000Z</time>
      </trkpt>
      <trkpt lat="45.40843" lon="4.24596">
        <ele>427</ele>
        <time>2012-02-24T10:50:48.000Z</time>
      </trkpt>
      <trkpt lat="45.40847" lon="4.24617">
        <ele>426.60000610352</ele>
        <time>2012-02-24T10:50:59.000Z</time>
      </trkpt>
      <trkpt lat="45.40849" lon="4.24626">
        <ele>426.39999389648</ele>
        <time>2012-02-24T10:51:04.000Z</time>
      </trkpt>
      <trkpt lat="45.40851" lon="4.24641">
        <ele>426</ele>
        <time>2012-02-24T10:51:12.000Z</time>
      </trkpt>
      <trkpt lat="45.40853" lon="4.24657">
        <ele>425.79998779297</ele>
        <time>2012-02-24T10:51:20.000Z</time>
      </trkpt>
      <trkpt lat="45.40855" lon="4.24674">
        <ele>425.39999389648</ele>
        <time>2012-02-24T10:51:28.000Z</time>
      </trkpt>
      <trkpt lat="45.40856" lon="4.24691">
        <ele>425.20001220703</ele>
        <time>2012-02-24T10:51:35.000Z</time>
      </trkpt>
      <trkpt lat="45.40858" lon="4.24713">
        <ele>424.79998779297</ele>
        <time>2012-02-24T10:51:42.000Z</time>
      </trkpt>
      <trkpt lat="45.40858" lon="4.24733">
        <ele>424.60000610352</ele>
        <time>2012-02-24T10:51:48.000Z</time>
      </trkpt>
      <trkpt lat="45.4086" lon="4.24758">
        <ele>424.39999389648</ele>
        <time>2012-02-24T10:51:55.000Z</time>
      </trkpt>
      <trkpt lat="45.40861" lon="4.24785">
        <ele>424.79998779297</ele>
        <time>2012-02-24T10:52:03.000Z</time>
      </trkpt>
      <trkpt lat="45.40862" lon="4.24804">
        <ele>425.20001220703</ele>
        <time>2012-02-24T10:52:09.000Z</time>
      </trkpt>
      <trkpt lat="45.40863" lon="4.24824">
        <ele>425.39999389648</ele>
        <time>2012-02-24T10:52:15.000Z</time>
      </trkpt>
      <trkpt lat="45.40864" lon="4.24845">
        <ele>426.20001220703</ele>
        <time>2012-02-24T10:52:21.000Z</time>
      </trkpt>
      <trkpt lat="45.40866" lon="4.24865">
        <ele>427.20001220703</ele>
        <time>2012-02-24T10:52:27.000Z</time>
      </trkpt>
      <trkpt lat="45.40867" lon="4.24888">
        <ele>428.39999389648</ele>
        <time>2012-02-24T10:52:34.000Z</time>
      </trkpt>
      <trkpt lat="45.40868" lon="4.24901">
        <ele>429</ele>
        <time>2012-02-24T10:52:38.000Z</time>
      </trkpt>
      <trkpt lat="45.40875" lon="4.2491">
        <ele>429.20001220703</ele>
        <time>2012-02-24T10:52:43.000Z</time>
      </trkpt>
      <trkpt lat="45.40877" lon="4.24909">
        <ele>429</ele>
        <time>2012-02-24T10:52:44.000Z</time>
      </trkpt>
      <trkpt lat="45.40895" lon="4.24904">
        <ele>428.20001220703</ele>
        <time>2012-02-24T10:52:51.000Z</time>
      </trkpt>
      <trkpt lat="45.40901" lon="4.2491">
        <ele>428.39999389648</ele>
        <time>2012-02-24T10:52:55.000Z</time>
      </trkpt>
      <trkpt lat="45.40914" lon="4.24929">
        <ele>428.60000610352</ele>
        <time>2012-02-24T10:53:01.000Z</time>
      </trkpt>
      <trkpt lat="45.40914" lon="4.24941">
        <ele>429.20001220703</ele>
        <time>2012-02-24T10:53:05.000Z</time>
      </trkpt>
      <trkpt lat="45.40914" lon="4.24967">
        <ele>430.39999389648</ele>
        <time>2012-02-24T10:53:10.000Z</time>
      </trkpt>
      <trkpt lat="45.40916" lon="4.24986">
        <ele>430.79998779297</ele>
        <time>2012-02-24T10:53:15.000Z</time>
      </trkpt>
      <trkpt lat="45.40917" lon="4.25011">
        <ele>431.20001220703</ele>
        <time>2012-02-24T10:53:22.000Z</time>
      </trkpt>
      <trkpt lat="45.40922" lon="4.25031">
        <ele>432</ele>
        <time>2012-02-24T10:53:28.000Z</time>
      </trkpt>
      <trkpt lat="45.40926" lon="4.25055">
        <ele>433.20001220703</ele>
        <time>2012-02-24T10:53:35.000Z</time>
      </trkpt>
      <trkpt lat="45.4093" lon="4.2507">
        <ele>434.60000610352</ele>
        <time>2012-02-24T10:53:40.000Z</time>
      </trkpt>
      <trkpt lat="45.40933" lon="4.25074">
        <ele>435.20001220703</ele>
        <time>2012-02-24T10:53:44.000Z</time>
      </trkpt>
      <trkpt lat="45.40939" lon="4.25069">
        <ele>435.79998779297</ele>
        <time>2012-02-24T10:53:47.000Z</time>
      </trkpt>
      <trkpt lat="45.40941" lon="4.25054">
        <ele>434.79998779297</ele>
        <time>2012-02-24T10:53:51.000Z</time>
      </trkpt>
      <trkpt lat="45.4095" lon="4.25034">
        <ele>433.79998779297</ele>
        <time>2012-02-24T10:53:57.000Z</time>
      </trkpt>
      <trkpt lat="45.40961" lon="4.25019">
        <ele>432.79998779297</ele>
        <time>2012-02-24T10:54:03.000Z</time>
      </trkpt>
      <trkpt lat="45.40976" lon="4.25016">
        <ele>432.79998779297</ele>
        <time>2012-02-24T10:54:10.000Z</time>
      </trkpt>
      <trkpt lat="45.40985" lon="4.25019">
        <ele>433.39999389648</ele>
        <time>2012-02-24T10:54:15.000Z</time>
      </trkpt>
      <trkpt lat="45.40995" lon="4.25024">
        <ele>434.79998779297</ele>
        <time>2012-02-24T10:54:20.000Z</time>
      </trkpt>
      <trkpt lat="45.41006" lon="4.25031">
        <ele>436.60000610352</ele>
        <time>2012-02-24T10:54:26.000Z</time>
      </trkpt>
      <trkpt lat="45.41016" lon="4.25039">
        <ele>438.60000610352</ele>
        <time>2012-02-24T10:54:32.000Z</time>
      </trkpt>
      <trkpt lat="45.41028" lon="4.25049">
        <ele>441</ele>
        <time>2012-02-24T10:54:39.000Z</time>
      </trkpt>
      <trkpt lat="45.41039" lon="4.25055">
        <ele>442.79998779297</ele>
        <time>2012-02-24T10:54:45.000Z</time>
      </trkpt>
      <trkpt lat="45.41053" lon="4.25055">
        <ele>443.20001220703</ele>
        <time>2012-02-24T10:54:51.000Z</time>
      </trkpt>
      <trkpt lat="45.41066" lon="4.25057">
        <ele>444</ele>
        <time>2012-02-24T10:54:56.000Z</time>
      </trkpt>
      <trkpt lat="45.41079" lon="4.25056">
        <ele>444.20001220703</ele>
        <time>2012-02-24T10:55:01.000Z</time>
      </trkpt>
      <trkpt lat="45.41098" lon="4.25054">
        <ele>444.20001220703</ele>
        <time>2012-02-24T10:55:09.000Z</time>
      </trkpt>
      <trkpt lat="45.4111" lon="4.25054">
        <ele>444.20001220703</ele>
        <time>2012-02-24T10:55:14.000Z</time>
      </trkpt>
      <trkpt lat="45.41125" lon="4.25054">
        <ele>444.20001220703</ele>
        <time>2012-02-24T10:55:20.000Z</time>
      </trkpt>
      <trkpt lat="45.41143" lon="4.25053">
        <ele>444.20001220703</ele>
        <time>2012-02-24T10:55:27.000Z</time>
      </trkpt>
      <trkpt lat="45.41153" lon="4.25054">
        <ele>444.39999389648</ele>
        <time>2012-02-24T10:55:31.000Z</time>
      </trkpt>
      <trkpt lat="45.4117" lon="4.25054">
        <ele>445.60000610352</ele>
        <time>2012-02-24T10:55:38.000Z</time>
      </trkpt>
      <trkpt lat="45.41184" lon="4.25047">
        <ele>448.20001220703</ele>
        <time>2012-02-24T10:55:44.000Z</time>
      </trkpt>
      <trkpt lat="45.41196" lon="4.25035">
        <ele>448.39999389648</ele>
        <time>2012-02-24T10:55:50.000Z</time>
      </trkpt>
      <trkpt lat="45.41208" lon="4.25021">
        <ele>447.60000610352</ele>
        <time>2012-02-24T10:55:56.000Z</time>
      </trkpt>
      <trkpt lat="45.41221" lon="4.25004">
        <ele>446.60000610352</ele>
        <time>2012-02-24T10:56:03.000Z</time>
      </trkpt>
      <trkpt lat="45.41234" lon="4.24988">
        <ele>447</ele>
        <time>2012-02-24T10:56:10.000Z</time>
      </trkpt>
      <trkpt lat="45.41243" lon="4.2497">
        <ele>445.60000610352</ele>
        <time>2012-02-24T10:56:16.000Z</time>
      </trkpt>
      <trkpt lat="45.4125" lon="4.24957">
        <ele>443.79998779297</ele>
        <time>2012-02-24T10:56:21.000Z</time>
      </trkpt>
      <trkpt lat="45.4126" lon="4.24941">
        <ele>442</ele>
        <time>2012-02-24T10:56:27.000Z</time>
      </trkpt>
      <trkpt lat="45.4127" lon="4.24926">
        <ele>440.20001220703</ele>
        <time>2012-02-24T10:56:33.000Z</time>
      </trkpt>
      <trkpt lat="45.41279" lon="4.24912">
        <ele>438.60000610352</ele>
        <time>2012-02-24T10:56:38.000Z</time>
      </trkpt>
      <trkpt lat="45.41287" lon="4.24899">
        <ele>438</ele>
        <time>2012-02-24T10:56:43.000Z</time>
      </trkpt>
      <trkpt lat="45.41298" lon="4.24891">
        <ele>437.79998779297</ele>
        <time>2012-02-24T10:56:48.000Z</time>
      </trkpt>
      <trkpt lat="45.413" lon="4.2489">
        <ele>437.79998779297</ele>
        <time>2012-02-24T10:56:49.000Z</time>
      </trkpt>
      <trkpt lat="45.4132" lon="4.24888">
        <ele>438.60000610352</ele>
        <time>2012-02-24T10:56:57.000Z</time>
      </trkpt>
      <trkpt lat="45.41335" lon="4.24894">
        <ele>440.60000610352</ele>
        <time>2012-02-24T10:57:03.000Z</time>
      </trkpt>
      <trkpt lat="45.41348" lon="4.249">
        <ele>440.20001220703</ele>
        <time>2012-02-24T10:57:09.000Z</time>
      </trkpt>
      <trkpt lat="45.41361" lon="4.24906">
        <ele>439.39999389648</ele>
        <time>2012-02-24T10:57:15.000Z</time>
      </trkpt>
      <trkpt lat="45.4137" lon="4.24912">
        <ele>439</ele>
        <time>2012-02-24T10:57:20.000Z</time>
      </trkpt>
      <trkpt lat="45.4138" lon="4.2492">
        <ele>439</ele>
        <time>2012-02-24T10:57:25.000Z</time>
      </trkpt>
      <trkpt lat="45.41392" lon="4.24928">
        <ele>439</ele>
        <time>2012-02-24T10:57:30.000Z</time>
      </trkpt>
      <trkpt lat="45.41403" lon="4.24937">
        <ele>439.20001220703</ele>
        <time>2012-02-24T10:57:35.000Z</time>
      </trkpt>
      <trkpt lat="45.41415" lon="4.24953">
        <ele>441</ele>
        <time>2012-02-24T10:57:41.000Z</time>
      </trkpt>
      <trkpt lat="45.4142" lon="4.24966">
        <ele>443.39999389648</ele>
        <time>2012-02-24T10:57:45.000Z</time>
      </trkpt>
      <trkpt lat="45.41423" lon="4.24982">
        <ele>446.60000610352</ele>
        <time>2012-02-24T10:57:49.000Z</time>
      </trkpt>
      <trkpt lat="45.41431" lon="4.24993">
        <ele>447.20001220703</ele>
        <time>2012-02-24T10:57:53.000Z</time>
      </trkpt>
      <trkpt lat="45.41439" lon="4.25006">
        <ele>447.39999389648</ele>
        <time>2012-02-24T10:57:58.000Z</time>
      </trkpt>
      <trkpt lat="45.41443" lon="4.25011">
        <ele>447.79998779297</ele>
        <time>2012-02-24T10:58:00.000Z</time>
      </trkpt>
      <trkpt lat="45.41448" lon="4.25022">
        <ele>448.79998779297</ele>
        <time>2012-02-24T10:58:04.000Z</time>
      </trkpt>
      <trkpt lat="45.41454" lon="4.25039">
        <ele>450.79998779297</ele>
        <time>2012-02-24T10:58:09.000Z</time>
      </trkpt>
      <trkpt lat="45.41468" lon="4.25047">
        <ele>448.60000610352</ele>
        <time>2012-02-24T10:58:15.000Z</time>
      </trkpt>
      <trkpt lat="45.41482" lon="4.25046">
        <ele>444.20001220703</ele>
        <time>2012-02-24T10:58:21.000Z</time>
      </trkpt>
      <trkpt lat="45.41492" lon="4.25046">
        <ele>441</ele>
        <time>2012-02-24T10:58:25.000Z</time>
      </trkpt>
      <trkpt lat="45.41504" lon="4.25045">
        <ele>438.20001220703</ele>
        <time>2012-02-24T10:58:30.000Z</time>
      </trkpt>
      <trkpt lat="45.41519" lon="4.25047">
        <ele>438.79998779297</ele>
        <time>2012-02-24T10:58:36.000Z</time>
      </trkpt>
      <trkpt lat="45.4153" lon="4.25045">
        <ele>438.60000610352</ele>
        <time>2012-02-24T10:58:41.000Z</time>
      </trkpt>
      <trkpt lat="45.41537" lon="4.25041">
        <ele>437.79998779297</ele>
        <time>2012-02-24T10:58:44.000Z</time>
      </trkpt>
      <trkpt lat="45.41549" lon="4.25036">
        <ele>436.79998779297</ele>
        <time>2012-02-24T10:58:49.000Z</time>
      </trkpt>
      <trkpt lat="45.41564" lon="4.25037">
        <ele>437.20001220703</ele>
        <time>2012-02-24T10:58:55.000Z</time>
      </trkpt>
      <trkpt lat="45.41573" lon="4.25037">
        <ele>437.39999389648</ele>
        <time>2012-02-24T10:58:59.000Z</time>
      </trkpt>
      <trkpt lat="45.41585" lon="4.25038">
        <ele>437.60000610352</ele>
        <time>2012-02-24T10:59:04.000Z</time>
      </trkpt>
      <trkpt lat="45.41598" lon="4.25039">
        <ele>437.79998779297</ele>
        <time>2012-02-24T10:59:09.000Z</time>
      </trkpt>
      <trkpt lat="45.41609" lon="4.25041">
        <ele>438.20001220703</ele>
        <time>2012-02-24T10:59:14.000Z</time>
      </trkpt>
      <trkpt lat="45.41624" lon="4.25043">
        <ele>438.39999389648</ele>
        <time>2012-02-24T10:59:20.000Z</time>
      </trkpt>
      <trkpt lat="45.41638" lon="4.25043">
        <ele>438.39999389648</ele>
        <time>2012-02-24T10:59:26.000Z</time>
      </trkpt>
      <trkpt lat="45.41648" lon="4.25043">
        <ele>438.39999389648</ele>
        <time>2012-02-24T10:59:30.000Z</time>
      </trkpt>
      <trkpt lat="45.41658" lon="4.25043">
        <ele>438.39999389648</ele>
        <time>2012-02-24T10:59:34.000Z</time>
      </trkpt>
      <trkpt lat="45.4167" lon="4.25042">
        <ele>439.20001220703</ele>
        <time>2012-02-24T10:59:39.000Z</time>
      </trkpt>
      <trkpt lat="45.41681" lon="4.2504">
        <ele>441.60000610352</ele>
        <time>2012-02-24T10:59:44.000Z</time>
      </trkpt>
      <trkpt lat="45.41686" lon="4.25039">
        <ele>442.39999389648</ele>
        <time>2012-02-24T10:59:46.000Z</time>
      </trkpt>
      <trkpt lat="45.41695" lon="4.25035">
        <ele>443.79998779297</ele>
        <time>2012-02-24T10:59:50.000Z</time>
      </trkpt>
      <trkpt lat="45.41707" lon="4.25029">
        <ele>445.39999389648</ele>
        <time>2012-02-24T10:59:56.000Z</time>
      </trkpt>
      <trkpt lat="45.41714" lon="4.2502">
        <ele>444.39999389648</ele>
        <time>2012-02-24T11:00:00.000Z</time>
      </trkpt>
      <trkpt lat="45.41719" lon="4.25012">
        <ele>443.39999389648</ele>
        <time>2012-02-24T11:00:04.000Z</time>
      </trkpt>
      <trkpt lat="45.41722" lon="4.25002">
        <ele>441</ele>
        <time>2012-02-24T11:00:10.000Z</time>
      </trkpt>
      <trkpt lat="45.41725" lon="4.24992">
        <ele>440</ele>
        <time>2012-02-24T11:00:17.000Z</time>
      </trkpt>
      <trkpt lat="45.41727" lon="4.24986">
        <ele>439.20001220703</ele>
        <time>2012-02-24T11:00:22.000Z</time>
      </trkpt>
      <trkpt lat="45.41728" lon="4.24979">
        <ele>438.39999389648</ele>
        <time>2012-02-24T11:00:30.000Z</time>
      </trkpt>
      <trkpt lat="45.41734" lon="4.24972">
        <ele>438.20001220703</ele>
        <time>2012-02-24T11:01:32.000Z</time>
      </trkpt>
      <trkpt lat="45.41745" lon="4.24964">
        <ele>438.60000610352</ele>
        <time>2012-02-24T11:01:37.000Z</time>
      </trkpt>
      <trkpt lat="45.4175" lon="4.24963">
        <ele>439</ele>
        <time>2012-02-24T11:01:39.000Z</time>
      </trkpt>
      <trkpt lat="45.41758" lon="4.2496">
        <ele>438.20001220703</ele>
        <time>2012-02-24T11:01:43.000Z</time>
      </trkpt>
      <trkpt lat="45.41772" lon="4.24958">
        <ele>437.60000610352</ele>
        <time>2012-02-24T11:01:49.000Z</time>
      </trkpt>
      <trkpt lat="45.41782" lon="4.24951">
        <ele>435.79998779297</ele>
        <time>2012-02-24T11:01:54.000Z</time>
      </trkpt>
      <trkpt lat="45.41794" lon="4.24948">
        <ele>435</ele>
        <time>2012-02-24T11:01:59.000Z</time>
      </trkpt>
      <trkpt lat="45.41805" lon="4.24952">
        <ele>435.39999389648</ele>
        <time>2012-02-24T11:02:03.000Z</time>
      </trkpt>
      <trkpt lat="45.41815" lon="4.24958">
        <ele>436.79998779297</ele>
        <time>2012-02-24T11:02:08.000Z</time>
      </trkpt>
      <trkpt lat="45.41828" lon="4.24967">
        <ele>438.60000610352</ele>
        <time>2012-02-24T11:02:14.000Z</time>
      </trkpt>
      <trkpt lat="45.41838" lon="4.24973">
        <ele>439.20001220703</ele>
        <time>2012-02-24T11:02:19.000Z</time>
      </trkpt>
      <trkpt lat="45.41846" lon="4.2498">
        <ele>439</ele>
        <time>2012-02-24T11:02:24.000Z</time>
      </trkpt>
      <trkpt lat="45.41854" lon="4.24989">
        <ele>438.60000610352</ele>
        <time>2012-02-24T11:02:29.000Z</time>
      </trkpt>
      <trkpt lat="45.41861" lon="4.24996">
        <ele>438.20001220703</ele>
        <time>2012-02-24T11:02:32.000Z</time>
      </trkpt>
      <trkpt lat="45.41873" lon="4.25009">
        <ele>438</ele>
        <time>2012-02-24T11:02:38.000Z</time>
      </trkpt>
      <trkpt lat="45.41887" lon="4.25023">
        <ele>437.20001220703</ele>
        <time>2012-02-24T11:02:45.000Z</time>
      </trkpt>
      <trkpt lat="45.41898" lon="4.25038">
        <ele>437</ele>
        <time>2012-02-24T11:02:51.000Z</time>
      </trkpt>
      <trkpt lat="45.41908" lon="4.2505">
        <ele>436.39999389648</ele>
        <time>2012-02-24T11:02:56.000Z</time>
      </trkpt>
      <trkpt lat="45.41917" lon="4.25057">
        <ele>434.79998779297</ele>
        <time>2012-02-24T11:03:00.000Z</time>
      </trkpt>
      <trkpt lat="45.41928" lon="4.25065">
        <ele>435</ele>
        <time>2012-02-24T11:03:06.000Z</time>
      </trkpt>
      <trkpt lat="45.41939" lon="4.25071">
        <ele>434</ele>
        <time>2012-02-24T11:03:11.000Z</time>
      </trkpt>
      <trkpt lat="45.4195" lon="4.25076">
        <ele>432.79998779297</ele>
        <time>2012-02-24T11:03:16.000Z</time>
      </trkpt>
      <trkpt lat="45.41957" lon="4.25087">
        <ele>432.79998779297</ele>
        <time>2012-02-24T11:03:20.000Z</time>
      </trkpt>
      <trkpt lat="45.41963" lon="4.25099">
        <ele>433.39999389648</ele>
        <time>2012-02-24T11:03:24.000Z</time>
      </trkpt>
      <trkpt lat="45.41966" lon="4.25102">
        <ele>433.39999389648</ele>
        <time>2012-02-24T11:03:25.000Z</time>
      </trkpt>
      <trkpt lat="45.41973" lon="4.25118">
        <ele>434.20001220703</ele>
        <time>2012-02-24T11:03:31.000Z</time>
      </trkpt>
      <trkpt lat="45.41984" lon="4.25132">
        <ele>433.20001220703</ele>
        <time>2012-02-24T11:03:37.000Z</time>
      </trkpt>
      <trkpt lat="45.41997" lon="4.25144">
        <ele>431.20001220703</ele>
        <time>2012-02-24T11:03:43.000Z</time>
      </trkpt>
      <trkpt lat="45.42009" lon="4.25155">
        <ele>430.60000610352</ele>
        <time>2012-02-24T11:03:48.000Z</time>
      </trkpt>
      <trkpt lat="45.4202" lon="4.25168">
        <ele>430.39999389648</ele>
        <time>2012-02-24T11:03:54.000Z</time>
      </trkpt>
      <trkpt lat="45.4203" lon="4.2518">
        <ele>430.79998779297</ele>
        <time>2012-02-24T11:03:59.000Z</time>
      </trkpt>
      <trkpt lat="45.42043" lon="4.25191">
        <ele>430.79998779297</ele>
        <time>2012-02-24T11:04:05.000Z</time>
      </trkpt>
      <trkpt lat="45.42056" lon="4.25205">
        <ele>431</ele>
        <time>2012-02-24T11:04:12.000Z</time>
      </trkpt>
      <trkpt lat="45.42063" lon="4.25214">
        <ele>431</ele>
        <time>2012-02-24T11:04:16.000Z</time>
      </trkpt>
      <trkpt lat="45.42076" lon="4.25224">
        <ele>430.60000610352</ele>
        <time>2012-02-24T11:04:22.000Z</time>
      </trkpt>
      <trkpt lat="45.42087" lon="4.25232">
        <ele>430.20001220703</ele>
        <time>2012-02-24T11:04:27.000Z</time>
      </trkpt>
      <trkpt lat="45.42097" lon="4.25238">
        <ele>430.79998779297</ele>
        <time>2012-02-24T11:04:32.000Z</time>
      </trkpt>
      <trkpt lat="45.42106" lon="4.25242">
        <ele>431</ele>
        <time>2012-02-24T11:04:36.000Z</time>
      </trkpt>
      <trkpt lat="45.42118" lon="4.25249">
        <ele>431.20001220703</ele>
        <time>2012-02-24T11:04:42.000Z</time>
      </trkpt>
      <trkpt lat="45.42132" lon="4.25258">
        <ele>432</ele>
        <time>2012-02-24T11:04:48.000Z</time>
      </trkpt>
      <trkpt lat="45.42144" lon="4.25261">
        <ele>432</ele>
        <time>2012-02-24T11:04:53.000Z</time>
      </trkpt>
      <trkpt lat="45.42157" lon="4.25265">
        <ele>431.79998779297</ele>
        <time>2012-02-24T11:04:58.000Z</time>
      </trkpt>
      <trkpt lat="45.42171" lon="4.25269">
        <ele>432</ele>
        <time>2012-02-24T11:05:04.000Z</time>
      </trkpt>
      <trkpt lat="45.42184" lon="4.25271">
        <ele>432.39999389648</ele>
        <time>2012-02-24T11:05:09.000Z</time>
      </trkpt>
      <trkpt lat="45.42201" lon="4.25273">
        <ele>432.79998779297</ele>
        <time>2012-02-24T11:05:16.000Z</time>
      </trkpt>
      <trkpt lat="45.42216" lon="4.25272">
        <ele>432.79998779297</ele>
        <time>2012-02-24T11:05:22.000Z</time>
      </trkpt>
      <trkpt lat="45.42233" lon="4.2527">
        <ele>432.39999389648</ele>
        <time>2012-02-24T11:05:29.000Z</time>
      </trkpt>
      <trkpt lat="45.42251" lon="4.25267">
        <ele>432</ele>
        <time>2012-02-24T11:05:36.000Z</time>
      </trkpt>
      <trkpt lat="45.42266" lon="4.25263">
        <ele>434.79998779297</ele>
        <time>2012-02-24T11:05:42.000Z</time>
      </trkpt>
      <trkpt lat="45.42282" lon="4.25257">
        <ele>437</ele>
        <time>2012-02-24T11:05:48.000Z</time>
      </trkpt>
      <trkpt lat="45.42298" lon="4.25252">
        <ele>439.20001220703</ele>
        <time>2012-02-24T11:05:55.000Z</time>
      </trkpt>
      <trkpt lat="45.42303" lon="4.25251">
        <ele>440</ele>
        <time>2012-02-24T11:05:57.000Z</time>
      </trkpt>
      <trkpt lat="45.42365" lon="4.25226">
        <ele>442.39999389648</ele>
        <time>2012-02-24T11:06:14.000Z</time>
      </trkpt>
      <trkpt lat="45.42366" lon="4.2522">
        <ele>440.39999389648</ele>
        <time>2012-02-24T11:06:17.000Z</time>
      </trkpt>
      <trkpt lat="45.42372" lon="4.25216">
        <ele>439.39999389648</ele>
        <time>2012-02-24T11:06:22.000Z</time>
      </trkpt>
      <trkpt lat="45.42384" lon="4.25211">
        <ele>438.39999389648</ele>
        <time>2012-02-24T11:06:28.000Z</time>
      </trkpt>
      <trkpt lat="45.42397" lon="4.25207">
        <ele>437.60000610352</ele>
        <time>2012-02-24T11:06:34.000Z</time>
      </trkpt>
      <trkpt lat="45.42413" lon="4.25198">
        <ele>435</ele>
        <time>2012-02-24T11:06:41.000Z</time>
      </trkpt>
      <trkpt lat="45.42427" lon="4.25192">
        <ele>432.79998779297</ele>
        <time>2012-02-24T11:06:47.000Z</time>
      </trkpt>
      <trkpt lat="45.42441" lon="4.25184">
        <ele>430.20001220703</ele>
        <time>2012-02-24T11:06:53.000Z</time>
      </trkpt>
      <trkpt lat="45.42454" lon="4.25176">
        <ele>428.20001220703</ele>
        <time>2012-02-24T11:06:59.000Z</time>
      </trkpt>
      <trkpt lat="45.42473" lon="4.25168">
        <ele>426.60000610352</ele>
        <time>2012-02-24T11:07:07.000Z</time>
      </trkpt>
      <trkpt lat="45.42487" lon="4.25161">
        <ele>426.60000610352</ele>
        <time>2012-02-24T11:07:13.000Z</time>
      </trkpt>
      <trkpt lat="45.42498" lon="4.25155">
        <ele>427</ele>
        <time>2012-02-24T11:07:18.000Z</time>
      </trkpt>
      <trkpt lat="45.4251" lon="4.25149">
        <ele>427.60000610352</ele>
        <time>2012-02-24T11:07:23.000Z</time>
      </trkpt>
      <trkpt lat="45.42521" lon="4.25143">
        <ele>428.39999389648</ele>
        <time>2012-02-24T11:07:28.000Z</time>
      </trkpt>
      <trkpt lat="45.4253" lon="4.25137">
        <ele>429</ele>
        <time>2012-02-24T11:07:32.000Z</time>
      </trkpt>
      <trkpt lat="45.4254" lon="4.25132">
        <ele>429.60000610352</ele>
        <time>2012-02-24T11:07:36.000Z</time>
      </trkpt>
      <trkpt lat="45.42551" lon="4.25125">
        <ele>430.20001220703</ele>
        <time>2012-02-24T11:07:41.000Z</time>
      </trkpt>
      <trkpt lat="45.42566" lon="4.25115">
        <ele>431</ele>
        <time>2012-02-24T11:07:48.000Z</time>
      </trkpt>
      <trkpt lat="45.42577" lon="4.25107">
        <ele>431.60000610352</ele>
        <time>2012-02-24T11:07:53.000Z</time>
      </trkpt>
      <trkpt lat="45.4259" lon="4.25096">
        <ele>433</ele>
        <time>2012-02-24T11:07:59.000Z</time>
      </trkpt>
      <trkpt lat="45.42598" lon="4.25089">
        <ele>434</ele>
        <time>2012-02-24T11:08:03.000Z</time>
      </trkpt>
      <trkpt lat="45.42611" lon="4.25081">
        <ele>435.79998779297</ele>
        <time>2012-02-24T11:08:09.000Z</time>
      </trkpt>
      <trkpt lat="45.42622" lon="4.25072">
        <ele>436.60000610352</ele>
        <time>2012-02-24T11:08:15.000Z</time>
      </trkpt>
      <trkpt lat="45.42633" lon="4.25061">
        <ele>436.79998779297</ele>
        <time>2012-02-24T11:08:21.000Z</time>
      </trkpt>
      <trkpt lat="45.42643" lon="4.25051">
        <ele>436.39999389648</ele>
        <time>2012-02-24T11:08:26.000Z</time>
      </trkpt>
      <trkpt lat="45.42648" lon="4.25045">
        <ele>435.79998779297</ele>
        <time>2012-02-24T11:08:31.000Z</time>
      </trkpt>
      <trkpt lat="45.42648" lon="4.25045">
        <ele>435.79998779297</ele>
        <time>2012-02-24T11:08:33.000Z</time>
      </trkpt>
      <trkpt lat="45.42654" lon="4.2504">
        <ele>435.20001220703</ele>
        <time>2012-02-24T11:08:43.000Z</time>
      </trkpt>
      <trkpt lat="45.42658" lon="4.25036">
        <ele>434.79998779297</ele>
        <time>2012-02-24T11:08:47.000Z</time>
      </trkpt>
      <trkpt lat="45.42666" lon="4.25029">
        <ele>433.79998779297</ele>
        <time>2012-02-24T11:08:54.000Z</time>
      </trkpt>
      <trkpt lat="45.42674" lon="4.25021">
        <ele>433.60000610352</ele>
        <time>2012-02-24T11:08:59.000Z</time>
      </trkpt>
      <trkpt lat="45.42685" lon="4.2501">
        <ele>433</ele>
        <time>2012-02-24T11:09:05.000Z</time>
      </trkpt>
      <trkpt lat="45.42697" lon="4.25">
        <ele>432.20001220703</ele>
        <time>2012-02-24T11:09:11.000Z</time>
      </trkpt>
      <trkpt lat="45.42708" lon="4.24993">
        <ele>433.39999389648</ele>
        <time>2012-02-24T11:09:17.000Z</time>
      </trkpt>
      <trkpt lat="45.42721" lon="4.24984">
        <ele>434</ele>
        <time>2012-02-24T11:09:24.000Z</time>
      </trkpt>
      <trkpt lat="45.42733" lon="4.24974">
        <ele>433.60000610352</ele>
        <time>2012-02-24T11:09:30.000Z</time>
      </trkpt>
      <trkpt lat="45.42743" lon="4.24967">
        <ele>433</ele>
        <time>2012-02-24T11:09:35.000Z</time>
      </trkpt>
      <trkpt lat="45.42754" lon="4.24959">
        <ele>431.79998779297</ele>
        <time>2012-02-24T11:09:40.000Z</time>
      </trkpt>
      <trkpt lat="45.42766" lon="4.24954">
        <ele>431.39999389648</ele>
        <time>2012-02-24T11:09:45.000Z</time>
      </trkpt>
      <trkpt lat="45.42777" lon="4.24948">
        <ele>430.79998779297</ele>
        <time>2012-02-24T11:09:50.000Z</time>
      </trkpt>
      <trkpt lat="45.42789" lon="4.24943">
        <ele>430</ele>
        <time>2012-02-24T11:09:55.000Z</time>
      </trkpt>
      <trkpt lat="45.42804" lon="4.24936">
        <ele>428.79998779297</ele>
        <time>2012-02-24T11:10:01.000Z</time>
      </trkpt>
      <trkpt lat="45.42816" lon="4.24934">
        <ele>429.39999389648</ele>
        <time>2012-02-24T11:10:06.000Z</time>
      </trkpt>
      <trkpt lat="45.42829" lon="4.24936">
        <ele>431.20001220703</ele>
        <time>2012-02-24T11:10:11.000Z</time>
      </trkpt>
      <trkpt lat="45.42839" lon="4.24937">
        <ele>432.20001220703</ele>
        <time>2012-02-24T11:10:15.000Z</time>
      </trkpt>
      <trkpt lat="45.42852" lon="4.24934">
        <ele>431.39999389648</ele>
        <time>2012-02-24T11:10:20.000Z</time>
      </trkpt>
      <trkpt lat="45.42865" lon="4.24928">
        <ele>429.60000610352</ele>
        <time>2012-02-24T11:10:25.000Z</time>
      </trkpt>
      <trkpt lat="45.42878" lon="4.24923">
        <ele>428.60000610352</ele>
        <time>2012-02-24T11:10:30.000Z</time>
      </trkpt>
      <trkpt lat="45.42893" lon="4.24918">
        <ele>427.79998779297</ele>
        <time>2012-02-24T11:10:36.000Z</time>
      </trkpt>
      <trkpt lat="45.42905" lon="4.24917">
        <ele>428.39999389648</ele>
        <time>2012-02-24T11:10:41.000Z</time>
      </trkpt>
      <trkpt lat="45.42908" lon="4.24917">
        <ele>428.39999389648</ele>
        <time>2012-02-24T11:10:42.000Z</time>
      </trkpt>
      <trkpt lat="45.42919" lon="4.24922">
        <ele>430.60000610352</ele>
        <time>2012-02-24T11:10:47.000Z</time>
      </trkpt>
      <trkpt lat="45.42928" lon="4.24925">
        <ele>431.39999389648</ele>
        <time>2012-02-24T11:10:51.000Z</time>
      </trkpt>
      <trkpt lat="45.42942" lon="4.24927">
        <ele>432</ele>
        <time>2012-02-24T11:10:57.000Z</time>
      </trkpt>
      <trkpt lat="45.42954" lon="4.24928">
        <ele>432.39999389648</ele>
        <time>2012-02-24T11:11:02.000Z</time>
      </trkpt>
      <trkpt lat="45.42971" lon="4.24935">
        <ele>434.39999389648</ele>
        <time>2012-02-24T11:11:09.000Z</time>
      </trkpt>
      <trkpt lat="45.42981" lon="4.24943">
        <ele>436.39999389648</ele>
        <time>2012-02-24T11:11:14.000Z</time>
      </trkpt>
      <trkpt lat="45.42998" lon="4.2495">
        <ele>438.39999389648</ele>
        <time>2012-02-24T11:11:21.000Z</time>
      </trkpt>
      <trkpt lat="45.4301" lon="4.24935">
        <ele>435.79998779297</ele>
        <time>2012-02-24T11:11:27.000Z</time>
      </trkpt>
      <trkpt lat="45.43016" lon="4.24917">
        <ele>431.60000610352</ele>
        <time>2012-02-24T11:11:33.000Z</time>
      </trkpt>
      <trkpt lat="45.43027" lon="4.24903">
        <ele>431</ele>
        <time>2012-02-24T11:11:39.000Z</time>
      </trkpt>
      <trkpt lat="45.43041" lon="4.24891">
        <ele>430.60000610352</ele>
        <time>2012-02-24T11:11:46.000Z</time>
      </trkpt>
      <trkpt lat="45.43051" lon="4.24888">
        <ele>430.79998779297</ele>
        <time>2012-02-24T11:11:50.000Z</time>
      </trkpt>
      <trkpt lat="45.4306" lon="4.24888">
        <ele>431.20001220703</ele>
        <time>2012-02-24T11:11:54.000Z</time>
      </trkpt>
      <trkpt lat="45.43068" lon="4.24887">
        <ele>431.39999389648</ele>
        <time>2012-02-24T11:11:58.000Z</time>
      </trkpt>
      <trkpt lat="45.43078" lon="4.24884">
        <ele>431.60000610352</ele>
        <time>2012-02-24T11:12:03.000Z</time>
      </trkpt>
      <trkpt lat="45.43089" lon="4.24882">
        <ele>431</ele>
        <time>2012-02-24T11:12:08.000Z</time>
      </trkpt>
      <trkpt lat="45.43098" lon="4.24889">
        <ele>432</ele>
        <time>2012-02-24T11:12:12.000Z</time>
      </trkpt>
      <trkpt lat="45.431" lon="4.2489">
        <ele>432.39999389648</ele>
        <time>2012-02-24T11:12:13.000Z</time>
      </trkpt>
      <trkpt lat="45.43106" lon="4.2489">
        <ele>432</ele>
        <time>2012-02-24T11:12:16.000Z</time>
      </trkpt>
      <trkpt lat="45.43117" lon="4.24888">
        <ele>431</ele>
        <time>2012-02-24T11:12:21.000Z</time>
      </trkpt>
      <trkpt lat="45.4313" lon="4.24889">
        <ele>431</ele>
        <time>2012-02-24T11:12:27.000Z</time>
      </trkpt>
      <trkpt lat="45.43142" lon="4.24891">
        <ele>430.79998779297</ele>
        <time>2012-02-24T11:12:32.000Z</time>
      </trkpt>
      <trkpt lat="45.43153" lon="4.24893">
        <ele>430.60000610352</ele>
        <time>2012-02-24T11:12:37.000Z</time>
      </trkpt>
      <trkpt lat="45.43164" lon="4.24888">
        <ele>429.20001220703</ele>
        <time>2012-02-24T11:12:42.000Z</time>
      </trkpt>
      <trkpt lat="45.43177" lon="4.24888">
        <ele>429.60000610352</ele>
        <time>2012-02-24T11:12:47.000Z</time>
      </trkpt>
      <trkpt lat="45.4319" lon="4.24889">
        <ele>430.20001220703</ele>
        <time>2012-02-24T11:12:52.000Z</time>
      </trkpt>
      <trkpt lat="45.432" lon="4.24891">
        <ele>430.79998779297</ele>
        <time>2012-02-24T11:12:56.000Z</time>
      </trkpt>
      <trkpt lat="45.43211" lon="4.24889">
        <ele>430.79998779297</ele>
        <time>2012-02-24T11:13:01.000Z</time>
      </trkpt>
      <trkpt lat="45.43223" lon="4.24891">
        <ele>431.60000610352</ele>
        <time>2012-02-24T11:13:06.000Z</time>
      </trkpt>
      <trkpt lat="45.43232" lon="4.2489">
        <ele>431.60000610352</ele>
        <time>2012-02-24T11:13:10.000Z</time>
      </trkpt>
      <trkpt lat="45.43243" lon="4.2489">
        <ele>432.20001220703</ele>
        <time>2012-02-24T11:13:15.000Z</time>
      </trkpt>
      <trkpt lat="45.43259" lon="4.24891">
        <ele>432.79998779297</ele>
        <time>2012-02-24T11:13:22.000Z</time>
      </trkpt>
      <trkpt lat="45.43271" lon="4.2489">
        <ele>432.79998779297</ele>
        <time>2012-02-24T11:13:27.000Z</time>
      </trkpt>
      <trkpt lat="45.43282" lon="4.24886">
        <ele>432.39999389648</ele>
        <time>2012-02-24T11:13:32.000Z</time>
      </trkpt>
      <trkpt lat="45.43296" lon="4.24884">
        <ele>432.39999389648</ele>
        <time>2012-02-24T11:13:38.000Z</time>
      </trkpt>
      <trkpt lat="45.43303" lon="4.24885">
        <ele>433</ele>
        <time>2012-02-24T11:13:41.000Z</time>
      </trkpt>
      <trkpt lat="45.43303" lon="4.24894">
        <ele>434.79998779297</ele>
        <time>2012-02-24T11:13:46.000Z</time>
      </trkpt>
      <trkpt lat="45.43301" lon="4.24903">
        <ele>436.79998779297</ele>
        <time>2012-02-24T11:13:50.000Z</time>
      </trkpt>
      <trkpt lat="45.43307" lon="4.24909">
        <ele>438.39999389648</ele>
        <time>2012-02-24T11:13:54.000Z</time>
      </trkpt>
      <trkpt lat="45.43317" lon="4.24907">
        <ele>438.20001220703</ele>
        <time>2012-02-24T11:14:00.000Z</time>
      </trkpt>
      <trkpt lat="45.43331" lon="4.24904">
        <ele>438.20001220703</ele>
        <time>2012-02-24T11:14:07.000Z</time>
      </trkpt>
      <trkpt lat="45.43344" lon="4.24902">
        <ele>440.39999389648</ele>
        <time>2012-02-24T11:14:13.000Z</time>
      </trkpt>
      <trkpt lat="45.43348" lon="4.24901">
        <ele>441.20001220703</ele>
        <time>2012-02-24T11:14:15.000Z</time>
      </trkpt>
      <trkpt lat="45.43357" lon="4.24895">
        <ele>441.79998779297</ele>
        <time>2012-02-24T11:14:19.000Z</time>
      </trkpt>
      <trkpt lat="45.43372" lon="4.24887">
        <ele>443.20001220703</ele>
        <time>2012-02-24T11:14:26.000Z</time>
      </trkpt>
      <trkpt lat="45.43384" lon="4.24887">
        <ele>446.39999389648</ele>
        <time>2012-02-24T11:14:32.000Z</time>
      </trkpt>
      <trkpt lat="45.43394" lon="4.24881">
        <ele>447</ele>
        <time>2012-02-24T11:14:37.000Z</time>
      </trkpt>
      <trkpt lat="45.43409" lon="4.24864">
        <ele>444.60000610352</ele>
        <time>2012-02-24T11:14:46.000Z</time>
      </trkpt>
      <trkpt lat="45.4342" lon="4.24849">
        <ele>442</ele>
        <time>2012-02-24T11:14:52.000Z</time>
      </trkpt>
      <trkpt lat="45.43433" lon="4.24833">
        <ele>440.20001220703</ele>
        <time>2012-02-24T11:14:59.000Z</time>
      </trkpt>
      <trkpt lat="45.43444" lon="4.24815">
        <ele>439.20001220703</ele>
        <time>2012-02-24T11:15:06.000Z</time>
      </trkpt>
      <trkpt lat="45.43452" lon="4.24801">
        <ele>437.39999389648</ele>
        <time>2012-02-24T11:15:11.000Z</time>
      </trkpt>
      <trkpt lat="45.43467" lon="4.24789">
        <ele>437.20001220703</ele>
        <time>2012-02-24T11:15:18.000Z</time>
      </trkpt>
      <trkpt lat="45.4348" lon="4.24783">
        <ele>438.20001220703</ele>
        <time>2012-02-24T11:15:24.000Z</time>
      </trkpt>
      <trkpt lat="45.43495" lon="4.24776">
        <ele>438.79998779297</ele>
        <time>2012-02-24T11:15:31.000Z</time>
      </trkpt>
      <trkpt lat="45.43506" lon="4.24769">
        <ele>438.79998779297</ele>
        <time>2012-02-24T11:15:36.000Z</time>
      </trkpt>
      <trkpt lat="45.43517" lon="4.24766">
        <ele>439.79998779297</ele>
        <time>2012-02-24T11:15:41.000Z</time>
      </trkpt>
      <trkpt lat="45.43527" lon="4.24759">
        <ele>440</ele>
        <time>2012-02-24T11:15:46.000Z</time>
      </trkpt>
      <trkpt lat="45.43529" lon="4.24755">
        <ele>439.60000610352</ele>
        <time>2012-02-24T11:15:48.000Z</time>
      </trkpt>
      <trkpt lat="45.43534" lon="4.24743">
        <ele>437.60000610352</ele>
        <time>2012-02-24T11:15:54.000Z</time>
      </trkpt>
      <trkpt lat="45.43542" lon="4.24733">
        <ele>437.39999389648</ele>
        <time>2012-02-24T11:16:00.000Z</time>
      </trkpt>
      <trkpt lat="45.4355" lon="4.24727">
        <ele>438</ele>
        <time>2012-02-24T11:16:05.000Z</time>
      </trkpt>
      <trkpt lat="45.43555" lon="4.2472">
        <ele>437.79998779297</ele>
        <time>2012-02-24T11:16:09.000Z</time>
      </trkpt>
      <trkpt lat="45.43557" lon="4.24716">
        <ele>437.39999389648</ele>
        <time>2012-02-24T11:16:11.000Z</time>
      </trkpt>
      <trkpt lat="45.43561" lon="4.24708">
        <ele>436.39999389648</ele>
        <time>2012-02-24T11:16:15.000Z</time>
      </trkpt>
      <trkpt lat="45.43571" lon="4.24693">
        <ele>434.79998779297</ele>
        <time>2012-02-24T11:16:22.000Z</time>
      </trkpt>
      <trkpt lat="45.43579" lon="4.24679">
        <ele>433.20001220703</ele>
        <time>2012-02-24T11:16:28.000Z</time>
      </trkpt>
      <trkpt lat="45.43579" lon="4.24677">
        <ele>432.79998779297</ele>
        <time>2012-02-24T11:16:31.000Z</time>
      </trkpt>
      <trkpt lat="45.43586" lon="4.24668">
        <ele>431.20001220703</ele>
        <time>2012-02-24T11:17:19.000Z</time>
      </trkpt>
      <trkpt lat="45.4359" lon="4.24661">
        <ele>429.79998779297</ele>
        <time>2012-02-24T11:17:25.000Z</time>
      </trkpt>
      <trkpt lat="45.43591" lon="4.24659">
        <ele>429.60000610352</ele>
        <time>2012-02-24T11:17:27.000Z</time>
      </trkpt>
      <trkpt lat="45.43597" lon="4.24655">
        <ele>428.79998779297</ele>
        <time>2012-02-24T11:17:33.000Z</time>
      </trkpt>
      <trkpt lat="45.43598" lon="4.24654">
        <ele>428.79998779297</ele>
        <time>2012-02-24T11:17:34.000Z</time>
      </trkpt>
      <trkpt lat="45.43603" lon="4.24655">
        <ele>428.60000610352</ele>
        <time>2012-02-24T11:17:38.000Z</time>
      </trkpt>
      <trkpt lat="45.43607" lon="4.24654">
        <ele>428.39999389648</ele>
        <time>2012-02-24T11:17:42.000Z</time>
      </trkpt>
      <trkpt lat="45.43617" lon="4.24659">
        <ele>428.60000610352</ele>
        <time>2012-02-24T11:17:51.000Z</time>
      </trkpt>
      <trkpt lat="45.4362" lon="4.24661">
        <ele>428.60000610352</ele>
        <time>2012-02-24T11:17:54.000Z</time>
      </trkpt>
      <trkpt lat="45.43626" lon="4.24671">
        <ele>429.60000610352</ele>
        <time>2012-02-24T11:18:01.000Z</time>
      </trkpt>
      <trkpt lat="45.43629" lon="4.24684">
        <ele>431.20001220703</ele>
        <time>2012-02-24T11:18:06.000Z</time>
      </trkpt>
      <trkpt lat="45.4363" lon="4.24688">
        <ele>431.60000610352</ele>
        <time>2012-02-24T11:18:07.000Z</time>
      </trkpt>
      <trkpt lat="45.43632" lon="4.24708">
        <ele>434</ele>
        <time>2012-02-24T11:18:14.000Z</time>
      </trkpt>
      <trkpt lat="45.43634" lon="4.24725">
        <ele>435.79998779297</ele>
        <time>2012-02-24T11:18:19.000Z</time>
      </trkpt>
      <trkpt lat="45.43635" lon="4.24742">
        <ele>437.60000610352</ele>
        <time>2012-02-24T11:18:24.000Z</time>
      </trkpt>
      <trkpt lat="45.43637" lon="4.24761">
        <ele>439.39999389648</ele>
        <time>2012-02-24T11:18:30.000Z</time>
      </trkpt>
      <trkpt lat="45.43639" lon="4.24777">
        <ele>440.60000610352</ele>
        <time>2012-02-24T11:18:35.000Z</time>
      </trkpt>
      <trkpt lat="45.4364" lon="4.24793">
        <ele>441.60000610352</ele>
        <time>2012-02-24T11:18:40.000Z</time>
      </trkpt>
      <trkpt lat="45.43643" lon="4.24811">
        <ele>442.60000610352</ele>
        <time>2012-02-24T11:18:47.000Z</time>
      </trkpt>
      <trkpt lat="45.43645" lon="4.24828">
        <ele>443.60000610352</ele>
        <time>2012-02-24T11:18:52.000Z</time>
      </trkpt>
      <trkpt lat="45.43645" lon="4.24843">
        <ele>444.39999389648</ele>
        <time>2012-02-24T11:18:57.000Z</time>
      </trkpt>
      <trkpt lat="45.43647" lon="4.24864">
        <ele>444.79998779297</ele>
        <time>2012-02-24T11:19:03.000Z</time>
      </trkpt>
      <trkpt lat="45.43647" lon="4.24882">
        <ele>446</ele>
        <time>2012-02-24T11:19:09.000Z</time>
      </trkpt>
      <trkpt lat="45.43648" lon="4.24898">
        <ele>446.20001220703</ele>
        <time>2012-02-24T11:19:15.000Z</time>
      </trkpt>
      <trkpt lat="45.43648" lon="4.24916">
        <ele>447.20001220703</ele>
        <time>2012-02-24T11:19:21.000Z</time>
      </trkpt>
      <trkpt lat="45.43648" lon="4.2492">
        <ele>447.20001220703</ele>
        <time>2012-02-24T11:19:22.000Z</time>
      </trkpt>
      <trkpt lat="45.43647" lon="4.24936">
        <ele>449.39999389648</ele>
        <time>2012-02-24T11:19:27.000Z</time>
      </trkpt>
      <trkpt lat="45.43645" lon="4.24948">
        <ele>451.60000610352</ele>
        <time>2012-02-24T11:19:31.000Z</time>
      </trkpt>
      <trkpt lat="45.43643" lon="4.24959">
        <ele>453.20001220703</ele>
        <time>2012-02-24T11:19:35.000Z</time>
      </trkpt>
      <trkpt lat="45.43643" lon="4.24982">
        <ele>455.60000610352</ele>
        <time>2012-02-24T11:19:42.000Z</time>
      </trkpt>
      <trkpt lat="45.43645" lon="4.24997">
        <ele>455.79998779297</ele>
        <time>2012-02-24T11:19:47.000Z</time>
      </trkpt>
      <trkpt lat="45.43647" lon="4.25011">
        <ele>455.60000610352</ele>
        <time>2012-02-24T11:19:52.000Z</time>
      </trkpt>
      <trkpt lat="45.43651" lon="4.25027">
        <ele>455.20001220703</ele>
        <time>2012-02-24T11:19:58.000Z</time>
      </trkpt>
      <trkpt lat="45.43654" lon="4.25033">
        <ele>454.39999389648</ele>
        <time>2012-02-24T11:20:00.000Z</time>
      </trkpt>
      <trkpt lat="45.43661" lon="4.25048">
        <ele>451.60000610352</ele>
        <time>2012-02-24T11:20:06.000Z</time>
      </trkpt>
      <trkpt lat="45.43665" lon="4.25059">
        <ele>449.60000610352</ele>
        <time>2012-02-24T11:20:11.000Z</time>
      </trkpt>
      <trkpt lat="45.43669" lon="4.25074">
        <ele>449.60000610352</ele>
        <time>2012-02-24T11:20:16.000Z</time>
      </trkpt>
      <trkpt lat="45.43673" lon="4.25086">
        <ele>450.39999389648</ele>
        <time>2012-02-24T11:20:21.000Z</time>
      </trkpt>
      <trkpt lat="45.43674" lon="4.25088">
        <ele>450.60000610352</ele>
        <time>2012-02-24T11:20:22.000Z</time>
      </trkpt>
      <trkpt lat="45.43677" lon="4.25098">
        <ele>452.60000610352</ele>
        <time>2012-02-24T11:20:27.000Z</time>
      </trkpt>
      <trkpt lat="45.43678" lon="4.25105">
        <ele>454</ele>
        <time>2012-02-24T11:20:30.000Z</time>
      </trkpt>
      <trkpt lat="45.43683" lon="4.25116">
        <ele>456</ele>
        <time>2012-02-24T11:20:36.000Z</time>
      </trkpt>
      <trkpt lat="45.43685" lon="4.2512">
        <ele>456</ele>
        <time>2012-02-24T11:20:38.000Z</time>
      </trkpt>
      <trkpt lat="45.43692" lon="4.25135">
        <ele>458</ele>
        <time>2012-02-24T11:20:46.000Z</time>
      </trkpt>
      <trkpt lat="45.43698" lon="4.25148">
        <ele>458.79998779297</ele>
        <time>2012-02-24T11:20:52.000Z</time>
      </trkpt>
      <trkpt lat="45.43704" lon="4.25154">
        <ele>458.20001220703</ele>
        <time>2012-02-24T11:20:56.000Z</time>
      </trkpt>
      <trkpt lat="45.4371" lon="4.25158">
        <ele>457</ele>
        <time>2012-02-24T11:21:00.000Z</time>
      </trkpt>
      <trkpt lat="45.4372" lon="4.25168">
        <ele>455.39999389648</ele>
        <time>2012-02-24T11:21:06.000Z</time>
      </trkpt>
      <trkpt lat="45.43722" lon="4.25168">
        <ele>455.39999389648</ele>
        <time>2012-02-24T11:21:07.000Z</time>
      </trkpt>
      <trkpt lat="45.43729" lon="4.25177">
        <ele>456.60000610352</ele>
        <time>2012-02-24T11:21:13.000Z</time>
      </trkpt>
      <trkpt lat="45.43731" lon="4.25179">
        <ele>456.60000610352</ele>
        <time>2012-02-24T11:21:14.000Z</time>
      </trkpt>
      <trkpt lat="45.43737" lon="4.25189">
        <ele>458.60000610352</ele>
        <time>2012-02-24T11:21:19.000Z</time>
      </trkpt>
      <trkpt lat="45.43741" lon="4.25194">
        <ele>459.20001220703</ele>
        <time>2012-02-24T11:21:22.000Z</time>
      </trkpt>
      <trkpt lat="45.43752" lon="4.25204">
        <ele>459.39999389648</ele>
        <time>2012-02-24T11:21:29.000Z</time>
      </trkpt>
      <trkpt lat="45.43755" lon="4.25211">
        <ele>461.79998779297</ele>
        <time>2012-02-24T11:21:34.000Z</time>
      </trkpt>
      <trkpt lat="45.4376" lon="4.25218">
        <ele>463.60000610352</ele>
        <time>2012-02-24T11:21:39.000Z</time>
      </trkpt>
      <trkpt lat="45.43765" lon="4.25222">
        <ele>463.60000610352</ele>
        <time>2012-02-24T11:21:43.000Z</time>
      </trkpt>
      <trkpt lat="45.43775" lon="4.25226">
        <ele>462.79998779297</ele>
        <time>2012-02-24T11:21:49.000Z</time>
      </trkpt>
      <trkpt lat="45.4378" lon="4.25229">
        <ele>462.39999389648</ele>
        <time>2012-02-24T11:21:56.000Z</time>
      </trkpt>
      <trkpt lat="45.43783" lon="4.25231">
        <ele>462</ele>
        <time>2012-02-24T11:22:02.000Z</time>
      </trkpt>
      <trkpt lat="45.43786" lon="4.25237">
        <ele>463.39999389648</ele>
        <time>2012-02-24T11:22:08.000Z</time>
      </trkpt>
      <trkpt lat="45.43788" lon="4.25243">
        <ele>465</ele>
        <time>2012-02-24T11:22:13.000Z</time>
      </trkpt>
      <trkpt lat="45.43792" lon="4.25247">
        <ele>465.39999389648</ele>
        <time>2012-02-24T11:22:18.000Z</time>
      </trkpt>
      <trkpt lat="45.43796" lon="4.25253">
        <ele>467</ele>
        <time>2012-02-24T11:22:26.000Z</time>
      </trkpt>
      <trkpt lat="45.438" lon="4.2526">
        <ele>469.39999389648</ele>
        <time>2012-02-24T11:22:32.000Z</time>
      </trkpt>
      <trkpt lat="45.43805" lon="4.25265">
        <ele>470</ele>
        <time>2012-02-24T11:22:38.000Z</time>
      </trkpt>
      <trkpt lat="45.4381" lon="4.25264">
        <ele>468.20001220703</ele>
        <time>2012-02-24T11:22:44.000Z</time>
      </trkpt>
      <trkpt lat="45.43818" lon="4.25265">
        <ele>465.79998779297</ele>
        <time>2012-02-24T11:22:54.000Z</time>
      </trkpt>
      <trkpt lat="45.43824" lon="4.25266">
        <ele>464</ele>
        <time>2012-02-24T11:23:02.000Z</time>
      </trkpt>
      <trkpt lat="45.43828" lon="4.25265">
        <ele>461.79998779297</ele>
        <time>2012-02-24T11:23:07.000Z</time>
      </trkpt>
      <trkpt lat="45.43833" lon="4.25268">
        <ele>461.79998779297</ele>
        <time>2012-02-24T11:23:13.000Z</time>
      </trkpt>
      <trkpt lat="45.43832" lon="4.25277">
        <ele>466.39999389648</ele>
        <time>2012-02-24T11:23:20.000Z</time>
      </trkpt>
      <trkpt lat="45.43835" lon="4.25284">
        <ele>469</ele>
        <time>2012-02-24T11:23:26.000Z</time>
      </trkpt>
      <trkpt lat="45.43837" lon="4.25292">
        <ele>472.39999389648</ele>
        <time>2012-02-24T11:23:33.000Z</time>
      </trkpt>
      <trkpt lat="45.43837" lon="4.25298">
        <ele>475</ele>
        <time>2012-02-24T11:23:39.000Z</time>
      </trkpt>
      <trkpt lat="45.43841" lon="4.25302">
        <ele>476.20001220703</ele>
        <time>2012-02-24T11:23:45.000Z</time>
      </trkpt>
      <trkpt lat="45.43843" lon="4.25306">
        <ele>477.20001220703</ele>
        <time>2012-02-24T11:23:49.000Z</time>
      </trkpt>
      <trkpt lat="45.43846" lon="4.25311">
        <ele>478.60000610352</ele>
        <time>2012-02-24T11:23:54.000Z</time>
      </trkpt>
      <trkpt lat="45.43851" lon="4.25315">
        <ele>479</ele>
        <time>2012-02-24T11:23:59.000Z</time>
      </trkpt>
      <trkpt lat="45.43857" lon="4.25318">
        <ele>478.60000610352</ele>
        <time>2012-02-24T11:24:06.000Z</time>
      </trkpt>
      <trkpt lat="45.43861" lon="4.25321">
        <ele>478.60000610352</ele>
        <time>2012-02-24T11:24:11.000Z</time>
      </trkpt>
      <trkpt lat="45.43867" lon="4.25324">
        <ele>478.20001220703</ele>
        <time>2012-02-24T11:24:17.000Z</time>
      </trkpt>
      <trkpt lat="45.43868" lon="4.25325">
        <ele>478.39999389648</ele>
        <time>2012-02-24T11:24:18.000Z</time>
      </trkpt>
      <trkpt lat="45.43873" lon="4.25333">
        <ele>480</ele>
        <time>2012-02-24T11:24:26.000Z</time>
      </trkpt>
      <trkpt lat="45.43873" lon="4.25335">
        <ele>480.39999389648</ele>
        <time>2012-02-24T11:24:27.000Z</time>
      </trkpt>
      <trkpt lat="45.43876" lon="4.25341">
        <ele>482</ele>
        <time>2012-02-24T11:24:31.000Z</time>
      </trkpt>
      <trkpt lat="45.43879" lon="4.25347">
        <ele>482.79998779297</ele>
        <time>2012-02-24T11:24:37.000Z</time>
      </trkpt>
      <trkpt lat="45.43882" lon="4.25351">
        <ele>483.39999389648</ele>
        <time>2012-02-24T11:24:40.000Z</time>
      </trkpt>
      <trkpt lat="45.43884" lon="4.25359">
        <ele>485.60000610352</ele>
        <time>2012-02-24T11:24:45.000Z</time>
      </trkpt>
      <trkpt lat="45.4389" lon="4.25375">
        <ele>488.60000610352</ele>
        <time>2012-02-24T11:24:55.000Z</time>
      </trkpt>
      <trkpt lat="45.4389" lon="4.25377">
        <ele>489.60000610352</ele>
        <time>2012-02-24T11:24:57.000Z</time>
      </trkpt>
      <trkpt lat="45.43893" lon="4.25387">
        <ele>491.60000610352</ele>
        <time>2012-02-24T11:25:03.000Z</time>
      </trkpt>
      <trkpt lat="45.43895" lon="4.25392">
        <ele>492.60000610352</ele>
        <time>2012-02-24T11:25:06.000Z</time>
      </trkpt>
      <trkpt lat="45.43898" lon="4.25402">
        <ele>494.20001220703</ele>
        <time>2012-02-24T11:25:12.000Z</time>
      </trkpt>
      <trkpt lat="45.43899" lon="4.25405">
        <ele>494.79998779297</ele>
        <time>2012-02-24T11:25:14.000Z</time>
      </trkpt>
      <trkpt lat="45.43903" lon="4.25416">
        <ele>496.79998779297</ele>
        <time>2012-02-24T11:25:20.000Z</time>
      </trkpt>
      <trkpt lat="45.43904" lon="4.25417">
        <ele>496.79998779297</ele>
        <time>2012-02-24T11:25:21.000Z</time>
      </trkpt>
      <trkpt lat="45.43905" lon="4.25427">
        <ele>497</ele>
        <time>2012-02-24T11:25:26.000Z</time>
      </trkpt>
      <trkpt lat="45.43907" lon="4.25433">
        <ele>497</ele>
        <time>2012-02-24T11:25:29.000Z</time>
      </trkpt>
      <trkpt lat="45.43906" lon="4.25443">
        <ele>498.39999389648</ele>
        <time>2012-02-24T11:25:34.000Z</time>
      </trkpt>
      <trkpt lat="45.43905" lon="4.25449">
        <ele>499.39999389648</ele>
        <time>2012-02-24T11:25:37.000Z</time>
      </trkpt>
      <trkpt lat="45.43904" lon="4.25457">
        <ele>500.39999389648</ele>
        <time>2012-02-24T11:25:41.000Z</time>
      </trkpt>
      <trkpt lat="45.43903" lon="4.25472">
        <ele>502.60000610352</ele>
        <time>2012-02-24T11:25:47.000Z</time>
      </trkpt>
      <trkpt lat="45.43905" lon="4.25485">
        <ele>503</ele>
        <time>2012-02-24T11:25:53.000Z</time>
      </trkpt>
      <trkpt lat="45.43903" lon="4.25495">
        <ele>504.60000610352</ele>
        <time>2012-02-24T11:25:57.000Z</time>
      </trkpt>
      <trkpt lat="45.43903" lon="4.25498">
        <ele>505</ele>
        <time>2012-02-24T11:25:58.000Z</time>
      </trkpt>
      <trkpt lat="45.43899" lon="4.25514">
        <ele>506.79998779297</ele>
        <time>2012-02-24T11:26:04.000Z</time>
      </trkpt>
      <trkpt lat="45.43896" lon="4.25526">
        <ele>508</ele>
        <time>2012-02-24T11:26:09.000Z</time>
      </trkpt>
      <trkpt lat="45.43892" lon="4.25541">
        <ele>510</ele>
        <time>2012-02-24T11:26:15.000Z</time>
      </trkpt>
      <trkpt lat="45.43888" lon="4.25556">
        <ele>511.79998779297</ele>
        <time>2012-02-24T11:26:21.000Z</time>
      </trkpt>
      <trkpt lat="45.43889" lon="4.2557">
        <ele>511.39999389648</ele>
        <time>2012-02-24T11:26:26.000Z</time>
      </trkpt>
      <trkpt lat="45.43889" lon="4.25575">
        <ele>511.20001220703</ele>
        <time>2012-02-24T11:26:28.000Z</time>
      </trkpt>
      <trkpt lat="45.43893" lon="4.25593">
        <ele>508.79998779297</ele>
        <time>2012-02-24T11:26:34.000Z</time>
      </trkpt>
      <trkpt lat="45.43894" lon="4.25608">
        <ele>508</ele>
        <time>2012-02-24T11:26:39.000Z</time>
      </trkpt>
      <trkpt lat="45.43895" lon="4.25627">
        <ele>507.79998779297</ele>
        <time>2012-02-24T11:26:46.000Z</time>
      </trkpt>
      <trkpt lat="45.43897" lon="4.25645">
        <ele>506.79998779297</ele>
        <time>2012-02-24T11:26:52.000Z</time>
      </trkpt>
      <trkpt lat="45.43897" lon="4.25659">
        <ele>507</ele>
        <time>2012-02-24T11:26:57.000Z</time>
      </trkpt>
      <trkpt lat="45.43896" lon="4.25661">
        <ele>507.39999389648</ele>
        <time>2012-02-24T11:26:58.000Z</time>
      </trkpt>
      <trkpt lat="45.43896" lon="4.25671">
        <ele>508.20001220703</ele>
        <time>2012-02-24T11:27:03.000Z</time>
      </trkpt>
      <trkpt lat="45.43897" lon="4.25683">
        <ele>509.39999389648</ele>
        <time>2012-02-24T11:27:09.000Z</time>
      </trkpt>
      <trkpt lat="45.439" lon="4.25693">
        <ele>508.79998779297</ele>
        <time>2012-02-24T11:27:14.000Z</time>
      </trkpt>
      <trkpt lat="45.43902" lon="4.257">
        <ele>508.79998779297</ele>
        <time>2012-02-24T11:27:18.000Z</time>
      </trkpt>
      <trkpt lat="45.43904" lon="4.25702">
        <ele>508.20001220703</ele>
        <time>2012-02-24T11:27:20.000Z</time>
      </trkpt>
      <trkpt lat="45.43908" lon="4.2571">
        <ele>507</ele>
        <time>2012-02-24T11:27:26.000Z</time>
      </trkpt>
      <trkpt lat="45.43919" lon="4.25726">
        <ele>503.20001220703</ele>
        <time>2012-02-24T11:27:34.000Z</time>
      </trkpt>
      <trkpt lat="45.43925" lon="4.25745">
        <ele>502.79998779297</ele>
        <time>2012-02-24T11:27:40.000Z</time>
      </trkpt>
      <trkpt lat="45.43928" lon="4.25757">
        <ele>503.60000610352</ele>
        <time>2012-02-24T11:27:44.000Z</time>
      </trkpt>
      <trkpt lat="45.43934" lon="4.25777">
        <ele>503.79998779297</ele>
        <time>2012-02-24T11:27:51.000Z</time>
      </trkpt>
      <trkpt lat="45.43935" lon="4.2578">
        <ele>504.20001220703</ele>
        <time>2012-02-24T11:27:52.000Z</time>
      </trkpt>
      <trkpt lat="45.43941" lon="4.25801">
        <ele>505</ele>
        <time>2012-02-24T11:27:59.000Z</time>
      </trkpt>
      <trkpt lat="45.43941" lon="4.25814">
        <ele>507.20001220703</ele>
        <time>2012-02-24T11:28:04.000Z</time>
      </trkpt>
      <trkpt lat="45.43944" lon="4.25826">
        <ele>508</ele>
        <time>2012-02-24T11:28:08.000Z</time>
      </trkpt>
      <trkpt lat="45.43948" lon="4.25839">
        <ele>508.39999389648</ele>
        <time>2012-02-24T11:28:14.000Z</time>
      </trkpt>
      <trkpt lat="45.4395" lon="4.25843">
        <ele>508</ele>
        <time>2012-02-24T11:28:17.000Z</time>
      </trkpt>
      <trkpt lat="45.4396" lon="4.2586">
        <ele>506.39999389648</ele>
        <time>2012-02-24T11:28:25.000Z</time>
      </trkpt>
      <trkpt lat="45.43966" lon="4.25874">
        <ele>506.39999389648</ele>
        <time>2012-02-24T11:28:31.000Z</time>
      </trkpt>
      <trkpt lat="45.43972" lon="4.25881">
        <ele>505</ele>
        <time>2012-02-24T11:28:36.000Z</time>
      </trkpt>
      <trkpt lat="45.43974" lon="4.25883">
        <ele>504.79998779297</ele>
        <time>2012-02-24T11:28:38.000Z</time>
      </trkpt>
      <trkpt lat="45.43976" lon="4.25885">
        <ele>504.20001220703</ele>
        <time>2012-02-24T11:28:41.000Z</time>
      </trkpt>
      <trkpt lat="45.43982" lon="4.25893">
        <ele>503</ele>
        <time>2012-02-24T11:28:47.000Z</time>
      </trkpt>
      <trkpt lat="45.43985" lon="4.25897">
        <ele>502.60000610352</ele>
        <time>2012-02-24T11:28:49.000Z</time>
      </trkpt>
      <trkpt lat="45.43991" lon="4.25909">
        <ele>502.39999389648</ele>
        <time>2012-02-24T11:28:55.000Z</time>
      </trkpt>
      <trkpt lat="45.43995" lon="4.25923">
        <ele>503.79998779297</ele>
        <time>2012-02-24T11:29:00.000Z</time>
      </trkpt>
      <trkpt lat="45.44005" lon="4.25938">
        <ele>503</ele>
        <time>2012-02-24T11:29:06.000Z</time>
      </trkpt>
      <trkpt lat="45.44011" lon="4.2595">
        <ele>502.39999389648</ele>
        <time>2012-02-24T11:29:11.000Z</time>
      </trkpt>
      <trkpt lat="45.44017" lon="4.25963">
        <ele>502.60000610352</ele>
        <time>2012-02-24T11:29:16.000Z</time>
      </trkpt>
      <trkpt lat="45.44019" lon="4.25975">
        <ele>504.60000610352</ele>
        <time>2012-02-24T11:29:21.000Z</time>
      </trkpt>
      <trkpt lat="45.44022" lon="4.2598">
        <ele>504.39999389648</ele>
        <time>2012-02-24T11:29:23.000Z</time>
      </trkpt>
      <trkpt lat="45.44027" lon="4.25995">
        <ele>505.60000610352</ele>
        <time>2012-02-24T11:29:28.000Z</time>
      </trkpt>
      <trkpt lat="45.44033" lon="4.26007">
        <ele>505.20001220703</ele>
        <time>2012-02-24T11:29:33.000Z</time>
      </trkpt>
      <trkpt lat="45.44039" lon="4.2602">
        <ele>504.79998779297</ele>
        <time>2012-02-24T11:29:38.000Z</time>
      </trkpt>
      <trkpt lat="45.44048" lon="4.26031">
        <ele>503.20001220703</ele>
        <time>2012-02-24T11:29:43.000Z</time>
      </trkpt>
      <trkpt lat="45.44055" lon="4.26039">
        <ele>502.39999389648</ele>
        <time>2012-02-24T11:29:48.000Z</time>
      </trkpt>
      <trkpt lat="45.44063" lon="4.26048">
        <ele>501.60000610352</ele>
        <time>2012-02-24T11:29:53.000Z</time>
      </trkpt>
      <trkpt lat="45.44071" lon="4.26054">
        <ele>500.39999389648</ele>
        <time>2012-02-24T11:29:57.000Z</time>
      </trkpt>
      <trkpt lat="45.44085" lon="4.26059">
        <ele>497</ele>
        <time>2012-02-24T11:30:03.000Z</time>
      </trkpt>
      <trkpt lat="45.44095" lon="4.26072">
        <ele>499</ele>
        <time>2012-02-24T11:30:09.000Z</time>
      </trkpt>
      <trkpt lat="45.44101" lon="4.26083">
        <ele>501</ele>
        <time>2012-02-24T11:30:13.000Z</time>
      </trkpt>
      <trkpt lat="45.44107" lon="4.26095">
        <ele>499.79998779297</ele>
        <time>2012-02-24T11:30:17.000Z</time>
      </trkpt>
      <trkpt lat="45.44118" lon="4.26107">
        <ele>497.39999389648</ele>
        <time>2012-02-24T11:30:23.000Z</time>
      </trkpt>
      <trkpt lat="45.44128" lon="4.26119">
        <ele>496</ele>
        <time>2012-02-24T11:30:29.000Z</time>
      </trkpt>
      <trkpt lat="45.44137" lon="4.26131">
        <ele>495.60000610352</ele>
        <time>2012-02-24T11:30:34.000Z</time>
      </trkpt>
      <trkpt lat="45.44147" lon="4.26144">
        <ele>495.60000610352</ele>
        <time>2012-02-24T11:30:40.000Z</time>
      </trkpt>
      <trkpt lat="45.44158" lon="4.26152">
        <ele>495.39999389648</ele>
        <time>2012-02-24T11:30:45.000Z</time>
      </trkpt>
      <trkpt lat="45.44171" lon="4.26158">
        <ele>495.20001220703</ele>
        <time>2012-02-24T11:30:51.000Z</time>
      </trkpt>
      <trkpt lat="45.44183" lon="4.26164">
        <ele>495.20001220703</ele>
        <time>2012-02-24T11:30:57.000Z</time>
      </trkpt>
      <trkpt lat="45.44193" lon="4.26167">
        <ele>494.79998779297</ele>
        <time>2012-02-24T11:31:02.000Z</time>
      </trkpt>
      <trkpt lat="45.44201" lon="4.26165">
        <ele>493.79998779297</ele>
        <time>2012-02-24T11:31:05.000Z</time>
      </trkpt>
      <trkpt lat="45.44214" lon="4.2616">
        <ele>492</ele>
        <time>2012-02-24T11:31:11.000Z</time>
      </trkpt>
      <trkpt lat="45.44228" lon="4.2615">
        <ele>489.60000610352</ele>
        <time>2012-02-24T11:31:17.000Z</time>
      </trkpt>
      <trkpt lat="45.44243" lon="4.2614">
        <ele>487</ele>
        <time>2012-02-24T11:31:23.000Z</time>
      </trkpt>
      <trkpt lat="45.44256" lon="4.2613">
        <ele>485</ele>
        <time>2012-02-24T11:31:29.000Z</time>
      </trkpt>
      <trkpt lat="45.4427" lon="4.26122">
        <ele>484</ele>
        <time>2012-02-24T11:31:35.000Z</time>
      </trkpt>
      <trkpt lat="45.44285" lon="4.26115">
        <ele>483.79998779297</ele>
        <time>2012-02-24T11:31:41.000Z</time>
      </trkpt>
      <trkpt lat="45.44297" lon="4.26112">
        <ele>484</ele>
        <time>2012-02-24T11:31:46.000Z</time>
      </trkpt>
      <trkpt lat="45.44309" lon="4.26109">
        <ele>484.39999389648</ele>
        <time>2012-02-24T11:31:51.000Z</time>
      </trkpt>
      <trkpt lat="45.44319" lon="4.26108">
        <ele>484.79998779297</ele>
        <time>2012-02-24T11:31:55.000Z</time>
      </trkpt>
      <trkpt lat="45.44333" lon="4.26112">
        <ele>485</ele>
        <time>2012-02-24T11:32:01.000Z</time>
      </trkpt>
      <trkpt lat="45.44348" lon="4.26118">
        <ele>487.60000610352</ele>
        <time>2012-02-24T11:32:07.000Z</time>
      </trkpt>
      <trkpt lat="45.44363" lon="4.26128">
        <ele>489.60000610352</ele>
        <time>2012-02-24T11:32:14.000Z</time>
      </trkpt>
      <trkpt lat="45.44374" lon="4.26138">
        <ele>491</ele>
        <time>2012-02-24T11:32:19.000Z</time>
      </trkpt>
      <trkpt lat="45.44383" lon="4.26149">
        <ele>491.39999389648</ele>
        <time>2012-02-24T11:32:24.000Z</time>
      </trkpt>
      <trkpt lat="45.44391" lon="4.26164">
        <ele>491</ele>
        <time>2012-02-24T11:32:30.000Z</time>
      </trkpt>
      <trkpt lat="45.44399" lon="4.26184">
        <ele>489.20001220703</ele>
        <time>2012-02-24T11:32:36.000Z</time>
      </trkpt>
      <trkpt lat="45.44404" lon="4.26197">
        <ele>487.79998779297</ele>
        <time>2012-02-24T11:32:40.000Z</time>
      </trkpt>
      <trkpt lat="45.44407" lon="4.26215">
        <ele>485.60000610352</ele>
        <time>2012-02-24T11:32:45.000Z</time>
      </trkpt>
      <trkpt lat="45.44409" lon="4.26222">
        <ele>484.79998779297</ele>
        <time>2012-02-24T11:32:47.000Z</time>
      </trkpt>
      <trkpt lat="45.44413" lon="4.26245">
        <ele>482</ele>
        <time>2012-02-24T11:32:53.000Z</time>
      </trkpt>
      <trkpt lat="45.44419" lon="4.26256">
        <ele>481</ele>
        <time>2012-02-24T11:32:57.000Z</time>
      </trkpt>
      <trkpt lat="45.44427" lon="4.26264">
        <ele>478.60000610352</ele>
        <time>2012-02-24T11:33:01.000Z</time>
      </trkpt>
      <trkpt lat="45.44443" lon="4.26269">
        <ele>475.39999389648</ele>
        <time>2012-02-24T11:33:07.000Z</time>
      </trkpt>
      <trkpt lat="45.44453" lon="4.26262">
        <ele>474.39999389648</ele>
        <time>2012-02-24T11:33:12.000Z</time>
      </trkpt>
      <trkpt lat="45.44461" lon="4.26247">
        <ele>475.20001220703</ele>
        <time>2012-02-24T11:33:17.000Z</time>
      </trkpt>
      <trkpt lat="45.44468" lon="4.26233">
        <ele>477.20001220703</ele>
        <time>2012-02-24T11:33:22.000Z</time>
      </trkpt>
      <trkpt lat="45.44475" lon="4.2622">
        <ele>479.39999389648</ele>
        <time>2012-02-24T11:33:27.000Z</time>
      </trkpt>
      <trkpt lat="45.44484" lon="4.26207">
        <ele>481.79998779297</ele>
        <time>2012-02-24T11:33:32.000Z</time>
      </trkpt>
      <trkpt lat="45.44494" lon="4.26196">
        <ele>483.60000610352</ele>
        <time>2012-02-24T11:33:37.000Z</time>
      </trkpt>
      <trkpt lat="45.44502" lon="4.26187">
        <ele>485</ele>
        <time>2012-02-24T11:33:41.000Z</time>
      </trkpt>
      <trkpt lat="45.44515" lon="4.2617">
        <ele>486.79998779297</ele>
        <time>2012-02-24T11:33:48.000Z</time>
      </trkpt>
      <trkpt lat="45.44526" lon="4.2616">
        <ele>487</ele>
        <time>2012-02-24T11:33:53.000Z</time>
      </trkpt>
      <trkpt lat="45.44539" lon="4.26148">
        <ele>487.20001220703</ele>
        <time>2012-02-24T11:33:59.000Z</time>
      </trkpt>
      <trkpt lat="45.44553" lon="4.26143">
        <ele>486</ele>
        <time>2012-02-24T11:34:04.000Z</time>
      </trkpt>
      <trkpt lat="45.44563" lon="4.26141">
        <ele>484.39999389648</ele>
        <time>2012-02-24T11:34:08.000Z</time>
      </trkpt>
      <trkpt lat="45.44582" lon="4.26146">
        <ele>479.39999389648</ele>
        <time>2012-02-24T11:34:15.000Z</time>
      </trkpt>
      <trkpt lat="45.44595" lon="4.26154">
        <ele>476.39999389648</ele>
        <time>2012-02-24T11:34:20.000Z</time>
      </trkpt>
      <trkpt lat="45.44605" lon="4.26159">
        <ele>474.60000610352</ele>
        <time>2012-02-24T11:34:24.000Z</time>
      </trkpt>
      <trkpt lat="45.44619" lon="4.26168">
        <ele>471.79998779297</ele>
        <time>2012-02-24T11:34:30.000Z</time>
      </trkpt>
      <trkpt lat="45.44631" lon="4.26173">
        <ele>469.60000610352</ele>
        <time>2012-02-24T11:34:35.000Z</time>
      </trkpt>
      <trkpt lat="45.44645" lon="4.26177">
        <ele>468</ele>
        <time>2012-02-24T11:34:40.000Z</time>
      </trkpt>
      <trkpt lat="45.44659" lon="4.26183">
        <ele>465.39999389648</ele>
        <time>2012-02-24T11:34:46.000Z</time>
      </trkpt>
      <trkpt lat="45.4467" lon="4.26186">
        <ele>463.79998779297</ele>
        <time>2012-02-24T11:34:50.000Z</time>
      </trkpt>
      <trkpt lat="45.44679" lon="4.26187">
        <ele>462.20001220703</ele>
        <time>2012-02-24T11:34:54.000Z</time>
      </trkpt>
      <trkpt lat="45.44692" lon="4.26189">
        <ele>460</ele>
        <time>2012-02-24T11:34:59.000Z</time>
      </trkpt>
      <trkpt lat="45.44702" lon="4.26191">
        <ele>458.20001220703</ele>
        <time>2012-02-24T11:35:03.000Z</time>
      </trkpt>
      <trkpt lat="45.44715" lon="4.26189">
        <ele>457.20001220703</ele>
        <time>2012-02-24T11:35:08.000Z</time>
      </trkpt>
      <trkpt lat="45.44728" lon="4.26182">
        <ele>457.20001220703</ele>
        <time>2012-02-24T11:35:13.000Z</time>
      </trkpt>
      <trkpt lat="45.44742" lon="4.26172">
        <ele>457.20001220703</ele>
        <time>2012-02-24T11:35:19.000Z</time>
      </trkpt>
      <trkpt lat="45.44753" lon="4.26163">
        <ele>456.39999389648</ele>
        <time>2012-02-24T11:35:24.000Z</time>
      </trkpt>
      <trkpt lat="45.4476" lon="4.26157">
        <ele>455</ele>
        <time>2012-02-24T11:35:27.000Z</time>
      </trkpt>
      <trkpt lat="45.44769" lon="4.26146">
        <ele>452.79998779297</ele>
        <time>2012-02-24T11:35:32.000Z</time>
      </trkpt>
      <trkpt lat="45.44778" lon="4.26132">
        <ele>450.39999389648</ele>
        <time>2012-02-24T11:35:37.000Z</time>
      </trkpt>
      <trkpt lat="45.44781" lon="4.26123">
        <ele>450</ele>
        <time>2012-02-24T11:35:40.000Z</time>
      </trkpt>
      <trkpt lat="45.4478" lon="4.26099">
        <ele>451.39999389648</ele>
        <time>2012-02-24T11:35:47.000Z</time>
      </trkpt>
      <trkpt lat="45.44779" lon="4.26087">
        <ele>452.60000610352</ele>
        <time>2012-02-24T11:35:51.000Z</time>
      </trkpt>
      <trkpt lat="45.44778" lon="4.26076">
        <ele>453.60000610352</ele>
        <time>2012-02-24T11:35:54.000Z</time>
      </trkpt>
      <trkpt lat="45.44774" lon="4.26059">
        <ele>456.20001220703</ele>
        <time>2012-02-24T11:35:59.000Z</time>
      </trkpt>
      <trkpt lat="45.44771" lon="4.26036">
        <ele>458.60000610352</ele>
        <time>2012-02-24T11:36:05.000Z</time>
      </trkpt>
      <trkpt lat="45.44768" lon="4.26014">
        <ele>461.79998779297</ele>
        <time>2012-02-24T11:36:10.000Z</time>
      </trkpt>
      <trkpt lat="45.44767" lon="4.25995">
        <ele>463.60000610352</ele>
        <time>2012-02-24T11:36:15.000Z</time>
      </trkpt>
      <trkpt lat="45.44773" lon="4.25975">
        <ele>461.79998779297</ele>
        <time>2012-02-24T11:36:21.000Z</time>
      </trkpt>
      <trkpt lat="45.4478" lon="4.25955">
        <ele>459.39999389648</ele>
        <time>2012-02-24T11:36:27.000Z</time>
      </trkpt>
      <trkpt lat="45.44788" lon="4.2594">
        <ele>456.39999389648</ele>
        <time>2012-02-24T11:36:32.000Z</time>
      </trkpt>
      <trkpt lat="45.44796" lon="4.25924">
        <ele>453.60000610352</ele>
        <time>2012-02-24T11:36:37.000Z</time>
      </trkpt>
      <trkpt lat="45.44803" lon="4.25907">
        <ele>451.39999389648</ele>
        <time>2012-02-24T11:36:42.000Z</time>
      </trkpt>
      <trkpt lat="45.44809" lon="4.2589">
        <ele>450.60000610352</ele>
        <time>2012-02-24T11:36:47.000Z</time>
      </trkpt>
      <trkpt lat="45.44821" lon="4.25874">
        <ele>447.20001220703</ele>
        <time>2012-02-24T11:36:53.000Z</time>
      </trkpt>
      <trkpt lat="45.44834" lon="4.25862">
        <ele>443.39999389648</ele>
        <time>2012-02-24T11:36:59.000Z</time>
      </trkpt>
      <trkpt lat="45.4485" lon="4.25849">
        <ele>441.79998779297</ele>
        <time>2012-02-24T11:37:06.000Z</time>
      </trkpt>
      <trkpt lat="45.44864" lon="4.25837">
        <ele>440.39999389648</ele>
        <time>2012-02-24T11:37:12.000Z</time>
      </trkpt>
      <trkpt lat="45.44875" lon="4.25821">
        <ele>438.20001220703</ele>
        <time>2012-02-24T11:37:18.000Z</time>
      </trkpt>
      <trkpt lat="45.44884" lon="4.25803">
        <ele>436</ele>
        <time>2012-02-24T11:37:24.000Z</time>
      </trkpt>
      <trkpt lat="45.44893" lon="4.25786">
        <ele>434.20001220703</ele>
        <time>2012-02-24T11:37:30.000Z</time>
      </trkpt>
      <trkpt lat="45.44901" lon="4.25765">
        <ele>432.79998779297</ele>
        <time>2012-02-24T11:37:37.000Z</time>
      </trkpt>
      <trkpt lat="45.44904" lon="4.25748">
        <ele>432.39999389648</ele>
        <time>2012-02-24T11:37:42.000Z</time>
      </trkpt>
      <trkpt lat="45.44903" lon="4.25721">
        <ele>431.60000610352</ele>
        <time>2012-02-24T11:37:49.000Z</time>
      </trkpt>
      <trkpt lat="45.44898" lon="4.25701">
        <ele>431.39999389648</ele>
        <time>2012-02-24T11:37:55.000Z</time>
      </trkpt>
      <trkpt lat="45.44892" lon="4.25674">
        <ele>430.79998779297</ele>
        <time>2012-02-24T11:38:03.000Z</time>
      </trkpt>
      <trkpt lat="45.44886" lon="4.25655">
        <ele>430.20001220703</ele>
        <time>2012-02-24T11:38:09.000Z</time>
      </trkpt>
      <trkpt lat="45.44881" lon="4.25635">
        <ele>429.39999389648</ele>
        <time>2012-02-24T11:38:15.000Z</time>
      </trkpt>
      <trkpt lat="45.44874" lon="4.25619">
        <ele>429</ele>
        <time>2012-02-24T11:38:20.000Z</time>
      </trkpt>
      <trkpt lat="45.44867" lon="4.25595">
        <ele>427.79998779297</ele>
        <time>2012-02-24T11:38:27.000Z</time>
      </trkpt>
      <trkpt lat="45.44861" lon="4.25575">
        <ele>426.79998779297</ele>
        <time>2012-02-24T11:38:33.000Z</time>
      </trkpt>
      <trkpt lat="45.44855" lon="4.25558">
        <ele>425.60000610352</ele>
        <time>2012-02-24T11:38:39.000Z</time>
      </trkpt>
      <trkpt lat="45.44852" lon="4.25541">
        <ele>424.60000610352</ele>
        <time>2012-02-24T11:38:44.000Z</time>
      </trkpt>
      <trkpt lat="45.44853" lon="4.25538">
        <ele>424.39999389648</ele>
        <time>2012-02-24T11:38:45.000Z</time>
      </trkpt>
      <trkpt lat="45.44857" lon="4.2553">
        <ele>423.39999389648</ele>
        <time>2012-02-24T11:39:04.000Z</time>
      </trkpt>
      <trkpt lat="45.44857" lon="4.2553">
        <ele>423.39999389648</ele>
        <time>2012-02-24T11:39:05.000Z</time>
      </trkpt>
    </trkseg>
  </trk>
</gpx>